[[{"header":{"parameterUnit":"m.s-1","parameterCategory":1,"la1":30.6,"la2":29.2853,"lo1":-89.7004,"lo2":-87.6739,"dy":0.0162,"dx":0.0183,"nx":112,"ny":82,"refTime":"2024-07-19T06:00:00:Z","depth":0,"parameterNumber":2,"parameterNumberName":"U-component_of_WINDS"},"data":[0.0,0.0,0.0,0.0,0.0,0.0,0.0,0.0,0.0,0.0,0.0,0.0,0.0,0.0,0.0,0.0,0.0,0.0,0.0,0.0,0.0,0.0,0.0,0.0,0.0,0.0,0.0,0.0,0.0,0.0,0.0,0.0,0.0,0.0,0.0,0.0,0.0,0.0,0.0,0.0,0.0,0.0,0.0,0.0,0.0,0.0,0.0,0.0,0.0,0.0,0.0,0.0,0.0,0.0,0.0,0.0,0.0,0.0,0.0,0.0,0.0,0.0,0.0,0.0,0.0,0.0,0.0,0.0,0.0,0.0,0.0,0.0,0.0,0.0,0.0,0.0,0.0,0.0,0.0,0.0,0.0,0.0,0.0,0.0,0.0,0.0,0.0,0.0,0.0,0.0,-2.5507,-2.5825,-2.6386,-2.6725,-2.6691,-2.6691,-2.6082,-2.4592,0.0,0.0,0.0,0.0,0.0,0.0,0.0,0.0,0.0,0.0,0.0,0.0,0.0,0.0,0.0,0.0,0.0,0.0,0.0,0.0,0.0,0.0,0.0,0.0,0.0,0.0,0.0,0.0,0.0,0.0,0.0,0.0,0.0,0.0,0.0,0.0,0.0,0.0,0.0,0.0,0.0,0.0,0.0,0.0,0.0,0.0,0.0,0.0,0.0,0.0,0.0,0.0,0.0,0.0,0.0,0.0,0.0,0.0,0.0,0.0,0.0,0.0,0.0,0.0,0.0,0.0,0.0,0.0,0.0,0.0,0.0,0.0,0.0,0.0,0.0,0.0,0.0,0.0,0.0,0.0,0.0,0.0,0.0,0.0,0.0,0.0,0.0,0.0,0.0,0.0,0.0,0.0,0.0,0.0,0.0,0.0,0.0,0.0,0.0,0.0,0.0,0.0,0.0,0.0,-2.4597,-2.6353,-2.6741,-2.6809,-2.6708,-2.6691,-2.6082,-2.4592,0.0,0.0,0.0,0.0,0.0,0.0,0.0,0.0,0.0,0.0,0.0,0.0,0.0,0.0,0.0,0.0,0.0,0.0,0.0,0.0,0.0,0.0,0.0,0.0,0.0,0.0,0.0,0.0,0.0,0.0,0.0,0.0,0.0,0.0,0.0,0.0,0.0,0.0,0.0,0.0,0.0,0.0,0.0,0.0,0.0,0.0,0.0,0.0,0.0,0.0,0.0,0.0,0.0,0.0,0.0,0.0,0.0,0.0,0.0,0.0,0.0,0.0,0.0,0.0,0.0,0.0,0.0,0.0,0.0,0.0,0.0,0.0,0.0,0.0,0.0,0.0,0.0,0.0,0.0,0.0,0.0,0.0,0.0,0.0,0.0,0.0,0.0,0.0,0.0,0.0,0.0,0.0,0.0,0.0,0.0,0.0,0.0,0.0,0.0,0.0,0.0,0.0,0.0,-2.4379,-2.4911,-2.6216,-2.6624,-2.6674,-2.6401,-2.6573,-2.6082,-2.4592,-2.4335,0.0,0.0,0.0,0.0,0.0,0.0,0.0,0.0,0.0,0.0,0.0,0.0,0.0,0.0,0.0,0.0,0.0,0.0,0.0,0.0,0.0,0.0,0.0,0.0,0.0,0.0,0.0,0.0,0.0,0.0,0.0,0.0,0.0,0.0,0.0,0.0,0.0,0.0,0.0,0.0,0.0,0.0,0.0,0.0,0.0,0.0,0.0,0.0,0.0,0.0,0.0,0.0,0.0,0.0,0.0,0.0,0.0,0.0,0.0,0.0,0.0,0.0,0.0,0.0,0.0,0.0,0.0,0.0,0.0,0.0,0.0,0.0,0.0,0.0,0.0,0.0,0.0,0.0,0.0,0.0,0.0,0.0,0.0,0.0,0.0,0.0,0.0,0.0,0.0,0.0,0.0,0.0,0.0,0.0,0.0,0.0,0.0,0.0,0.0,0.0,0.0,0.0,-2.5026,-2.5508,-2.5896,-2.6228,-2.6298,-2.598,-2.6113,-2.5665,-2.4451,-2.3962,0.0,0.0,0.0,0.0,0.0,0.0,0.0,0.0,0.0,0.0,0.0,0.0,0.0,0.0,0.0,0.0,0.0,0.0,0.0,0.0,0.0,0.0,0.0,0.0,0.0,0.0,0.0,0.0,0.0,0.0,0.0,0.0,0.0,0.0,0.0,0.0,0.0,0.0,0.0,0.0,0.0,0.0,0.0,0.0,0.0,0.0,0.0,0.0,0.0,0.0,0.0,0.0,0.0,0.0,0.0,0.0,0.0,0.0,0.0,0.0,0.0,0.0,0.0,0.0,0.0,0.0,0.0,0.0,0.0,0.0,0.0,0.0,0.0,0.0,0.0,0.0,0.0,0.0,0.0,0.0,0.0,0.0,0.0,0.0,0.0,0.0,0.0,0.0,0.0,0.0,0.0,0.0,0.0,0.0,0.0,0.0,0.0,0.0,0.0,0.0,0.0,0.0,-2.4792,-2.5896,-2.5596,-2.5577,-2.5577,-2.554,-2.5013,-2.4455,-2.3967,-2.3336,0.0,0.0,0.0,0.0,0.0,0.0,0.0,0.0,0.0,0.0,0.0,0.0,0.0,0.0,0.0,0.0,0.0,0.0,0.0,0.0,0.0,0.0,0.0,0.0,0.0,0.0,0.0,0.0,0.0,0.0,0.0,0.0,0.0,0.0,0.0,0.0,0.0,0.0,0.0,0.0,0.0,0.0,0.0,0.0,0.0,0.0,0.0,0.0,0.0,0.0,0.0,0.0,0.0,0.0,0.0,0.0,0.0,0.0,0.0,0.0,0.0,0.0,0.0,0.0,0.0,0.0,0.0,0.0,0.0,0.0,0.0,0.0,0.0,0.0,0.0,0.0,0.0,0.0,0.0,0.0,0.0,0.0,0.0,0.0,0.0,0.0,0.0,0.0,0.0,0.0,0.0,0.0,0.0,0.0,0.0,0.0,0.0,0.0,0.0,0.0,0.0,0.0,-2.3969,-2.4831,-2.5109,-2.5351,-2.5408,-2.5141,-2.5129,-2.4684,-2.3651,0.0,0.0,0.0,0.0,0.0,0.0,0.0,0.0,0.0,0.0,0.0,0.0,0.0,0.0,0.0,0.0,0.0,0.0,0.0,0.0,0.0,0.0,0.0,0.0,0.0,0.0,0.0,0.0,0.0,0.0,0.0,0.0,0.0,0.0,0.0,0.0,0.0,0.0,0.0,0.0,0.0,0.0,0.0,0.0,0.0,0.0,0.0,0.0,0.0,0.0,0.0,0.0,0.0,0.0,0.0,0.0,0.0,0.0,0.0,0.0,0.0,0.0,0.0,0.0,0.0,0.0,0.0,0.0,0.0,0.0,0.0,0.0,0.0,0.0,0.0,0.0,0.0,0.0,0.0,0.0,0.0,0.0,0.0,0.0,0.0,0.0,0.0,0.0,0.0,0.0,0.0,0.0,0.0,0.0,0.0,0.0,0.0,0.0,0.0,0.0,0.0,0.0,-2.2622,-2.3582,-2.4342,-2.4672,-2.4962,-2.502,-2.4739,-2.4569,-2.4124,-2.3269,0.0,0.0,0.0,0.0,0.0,0.0,0.0,0.0,0.0,0.0,0.0,0.0,0.0,0.0,0.0,0.0,0.0,0.0,0.0,0.0,0.0,0.0,0.0,0.0,0.0,0.0,0.0,0.0,0.0,0.0,0.0,0.0,0.0,0.0,0.0,0.0,0.0,0.0,0.0,0.0,0.0,0.0,0.0,0.0,0.0,0.0,0.0,0.0,0.0,0.0,0.0,0.0,0.0,0.0,0.0,0.0,0.0,0.0,0.0,0.0,0.0,0.0,0.0,0.0,0.0,0.0,0.0,0.0,0.0,0.0,0.0,0.0,0.0,0.0,0.0,0.0,0.0,0.0,0.0,0.0,0.0,0.0,0.0,0.0,0.0,0.0,0.0,0.0,0.0,0.0,0.0,0.0,0.0,0.0,0.0,0.0,0.0,0.0,0.0,0.0,0.0,0.0,-2.2362,-2.3815,-2.4739,-2.4343,-2.4302,-2.4302,-2.4302,-2.3071,-2.2437,0.0,0.0,0.0,0.0,0.0,0.0,0.0,0.0,0.0,0.0,0.0,0.0,0.0,0.0,0.0,0.0,0.0,0.0,0.0,0.0,0.0,0.0,0.0,0.0,0.0,0.0,0.0,0.0,0.0,0.0,0.0,0.0,0.0,0.0,0.0,0.0,0.0,0.0,0.0,0.0,0.0,0.0,0.0,0.0,0.0,0.0,0.0,0.0,0.0,0.0,0.0,0.0,0.0,0.0,0.0,0.0,0.0,0.0,0.0,0.0,0.0,0.0,0.0,0.0,0.0,0.0,0.0,0.0,0.0,0.0,0.0,0.0,0.0,0.0,0.0,0.0,0.0,0.0,0.0,0.0,0.0,0.0,0.0,0.0,0.0,0.0,0.0,0.0,0.0,0.0,0.0,0.0,0.0,0.0,0.0,0.0,0.0,0.0,0.0,0.0,0.0,0.0,0.0,-2.2243,-2.3575,-2.4431,-2.4302,-2.4302,-2.4302,-2.4302,-2.3502,-2.2852,-2.2468,0.0,0.0,0.0,0.0,0.0,0.0,0.0,0.0,0.0,0.0,0.0,0.0,0.0,0.0,0.0,0.0,0.0,0.0,0.0,0.0,0.0,0.0,0.0,0.0,0.0,0.0,0.0,0.0,0.0,0.0,0.0,0.0,0.0,0.0,0.0,0.0,0.0,0.0,0.0,0.0,0.0,0.0,0.0,0.0,0.0,0.0,0.0,0.0,0.0,0.0,0.0,0.0,0.0,0.0,0.0,0.0,0.0,0.0,0.0,0.0,0.0,0.0,0.0,0.0,0.0,0.0,0.0,0.0,0.0,0.0,0.0,0.0,0.0,0.0,0.0,0.0,0.0,0.0,0.0,0.0,0.0,0.0,0.0,0.0,0.0,0.0,0.0,0.0,0.0,0.0,0.0,0.0,0.0,0.0,0.0,0.0,0.0,0.0,0.0,0.0,0.0,0.0,-2.2259,-2.3471,-2.4302,-2.4302,-2.4071,-2.3902,-2.3902,-2.304,-2.2336,-2.1935,0.0,0.0,0.0,0.0,0.0,0.0,0.0,0.0,0.0,0.0,0.0,0.0,0.0,0.0,0.0,0.0,0.0,0.0,0.0,0.0,0.0,0.0,0.0,0.0,0.0,0.0,0.0,0.0,0.0,0.0,0.0,0.0,0.0,0.0,0.0,0.0,0.0,0.0,0.0,0.0,0.0,0.0,0.0,0.0,0.0,0.0,0.0,0.0,0.0,0.0,0.0,0.0,0.0,0.0,0.0,0.0,0.0,0.0,0.0,0.0,0.0,0.0,0.0,0.0,0.0,0.0,0.0,0.0,0.0,0.0,0.0,0.0,0.0,0.0,0.0,0.0,0.0,0.0,0.0,0.0,0.0,0.0,0.0,0.0,0.0,0.0,0.0,0.0,0.0,0.0,0.0,0.0,0.0,0.0,0.0,0.0,0.0,0.0,0.0,0.0,0.0,0.0,-2.2382,-2.3517,-2.4302,-2.4302,-2.3702,-2.3302,-2.3302,-2.2074,-2.1304,-2.1304,0.0,0.0,0.0,0.0,0.0,0.0,0.0,0.0,0.0,0.0,0.0,0.0,0.0,0.0,0.0,0.0,0.0,0.0,0.0,0.0,0.0,0.0,0.0,0.0,0.0,0.0,0.0,0.0,0.0,0.0,0.0,0.0,0.0,0.0,0.0,0.0,0.0,0.0,0.0,0.0,0.0,0.0,0.0,0.0,0.0,0.0,0.0,0.0,0.0,0.0,0.0,0.0,0.0,0.0,0.0,0.0,0.0,0.0,0.0,0.0,-1.9594,-1.9609,0.0,0.0,0.0,0.0,0.0,0.0,0.0,0.0,0.0,0.0,0.0,0.0,0.0,0.0,0.0,0.0,0.0,0.0,0.0,0.0,0.0,0.0,0.0,0.0,0.0,0.0,0.0,0.0,0.0,0.0,0.0,0.0,0.0,0.0,0.0,0.0,0.0,0.0,0.0,0.0,-2.2948,-2.381,-2.4302,-2.4302,-2.3702,-2.3302,-2.3302,-2.2074,-2.1304,-2.1304,-1.9886,0.0,0.0,0.0,0.0,0.0,0.0,0.0,0.0,0.0,0.0,0.0,0.0,0.0,0.0,0.0,0.0,0.0,0.0,0.0,0.0,0.0,0.0,0.0,0.0,0.0,0.0,0.0,0.0,0.0,0.0,0.0,0.0,0.0,0.0,0.0,0.0,0.0,0.0,0.0,0.0,0.0,0.0,0.0,0.0,0.0,0.0,0.0,0.0,0.0,0.0,0.0,0.0,0.0,0.0,0.0,0.0,0.0,0.0,0.0,-2.0996,-2.1011,0.0,0.0,0.0,0.0,0.0,0.0,0.0,0.0,0.0,0.0,0.0,0.0,0.0,0.0,0.0,0.0,0.0,0.0,0.0,0.0,0.0,0.0,0.0,0.0,0.0,0.0,0.0,0.0,0.0,0.0,0.0,0.0,0.0,0.0,0.0,0.0,0.0,0.0,0.0,0.0,-2.3143,-2.3887,-2.4179,-2.3856,-2.3225,-2.2686,-2.2382,-2.1341,-2.0724,-2.0724,-1.9754,0.0,0.0,0.0,0.0,0.0,0.0,0.0,0.0,0.0,0.0,0.0,0.0,0.0,0.0,0.0,0.0,0.0,0.0,0.0,0.0,0.0,0.0,0.0,0.0,0.0,0.0,0.0,0.0,0.0,0.0,0.0,0.0,0.0,0.0,0.0,0.0,0.0,0.0,0.0,0.0,0.0,0.0,0.0,0.0,0.0,0.0,0.0,0.0,0.0,0.0,0.0,0.0,0.0,-2.2043,-2.212,-2.2644,-2.2089,-2.2443,-2.3409,-2.2305,-2.2459,-2.3425,-2.2748,0.0,0.0,0.0,0.0,0.0,0.0,0.0,0.0,0.0,0.0,0.0,0.0,0.0,0.0,0.0,0.0,0.0,0.0,0.0,0.0,0.0,0.0,-2.1685,-2.0595,-2.116,-2.178,-2.1167,0.0,0.0,0.0,0.0,0.0,0.0,0.0,0.0,0.0,0.0,0.0,-2.3339,-2.3963,-2.4056,-2.3359,-2.2682,-2.2005,-2.1311,-2.0531,-2.008,-2.008,-1.9508,-1.9154,0.0,0.0,0.0,0.0,0.0,0.0,0.0,0.0,0.0,0.0,0.0,0.0,0.0,0.0,0.0,0.0,0.0,0.0,0.0,0.0,0.0,0.0,0.0,0.0,0.0,0.0,0.0,0.0,0.0,0.0,0.0,0.0,-1.7512,-1.9029,0.0,0.0,0.0,0.0,0.0,0.0,0.0,0.0,0.0,0.0,0.0,0.0,0.0,-2.2166,-2.2166,-2.2825,-2.3163,-2.3163,-2.3671,-2.3948,-2.404,-2.3948,-2.401,-2.4164,-2.3994,0.0,-2.4117,-2.344,0.0,0.0,0.0,0.0,0.0,0.0,0.0,0.0,0.0,0.0,0.0,0.0,0.0,0.0,0.0,0.0,0.0,0.0,0.0,0.0,0.0,0.0,-2.188,-2.074,-2.1333,-2.2004,-2.1383,-2.114,-2.0841,-2.0309,-2.0536,-2.0764,0.0,0.0,0.0,0.0,0.0,0.0,-2.4025,-2.4256,-2.4015,-2.3294,-2.26,-2.1889,-2.1108,-2.0421,-2.0008,-2.0008,-1.9914,-1.9816,-1.9695,-1.9172,0.0,0.0,0.0,0.0,0.0,0.0,0.0,0.0,0.0,0.0,0.0,0.0,0.0,0.0,0.0,0.0,0.0,0.0,0.0,0.0,0.0,0.0,0.0,0.0,0.0,0.0,0.0,0.0,0.0,-1.7181,-1.903,-2.0145,-2.0914,-2.1368,0.0,0.0,0.0,0.0,0.0,0.0,0.0,0.0,0.0,-2.284,-2.3225,-2.3594,-2.3994,-2.4687,-2.4698,-2.4031,-2.3997,-2.3628,-2.2999,-2.2646,-2.2691,-2.3029,-2.3381,-2.3508,-2.3537,-2.3773,-2.3589,-2.3125,0.0,0.0,0.0,0.0,-2.1543,-2.1355,-2.1565,-2.1251,-2.0722,-2.0357,0.0,0.0,0.0,0.0,0.0,0.0,0.0,-2.0822,-2.0972,-2.1363,-2.1537,-2.07,-2.1154,-2.1594,-2.0988,-2.1019,-2.1122,-2.0898,-2.1198,-2.1367,-2.1046,-2.0905,0.0,0.0,0.0,-2.2897,-2.3996,-2.4114,-2.3733,-2.2655,-2.2254,-2.1641,-2.0521,-2.0104,-1.9884,-1.9884,-1.9848,-1.9797,-1.9744,-1.9491,-1.9309,0.0,0.0,0.0,0.0,0.0,0.0,0.0,0.0,0.0,0.0,0.0,0.0,0.0,0.0,0.0,0.0,0.0,0.0,0.0,0.0,0.0,0.0,0.0,0.0,0.0,0.0,0.0,0.0,-1.8889,-2.0389,-2.1404,-2.2357,-2.2967,0.0,0.0,0.0,0.0,0.0,0.0,-2.3337,-2.3197,-2.3407,-2.4056,-2.4422,-2.4863,-2.5367,-2.5886,-2.5659,-2.4616,-2.4008,-2.329,-2.2432,-2.1836,-2.1807,-2.2265,-2.2708,-2.2991,-2.3196,-2.4051,-2.3999,-2.3392,-2.3455,-2.3169,-2.2715,-2.2586,-2.2201,-2.1811,-2.212,-2.1663,-2.0917,-2.088,-2.0641,-2.033,-2.0013,0.0,0.0,0.0,0.0,-2.1083,-2.1299,-2.1434,-2.1302,-2.0458,-2.0786,-2.114,-2.0546,-2.0884,-2.1311,-2.1329,-2.1572,-2.1661,-2.1355,-2.1204,0.0,-2.2802,-2.2677,-2.2739,-2.3522,-2.361,-2.3218,-2.2139,-2.1869,-2.1351,-2.0264,-1.9921,-1.9762,-1.9762,-1.9726,-1.9708,-1.9708,-1.9708,-1.9708,-1.9708,0.0,0.0,0.0,0.0,0.0,0.0,0.0,0.0,0.0,0.0,0.0,0.0,0.0,0.0,0.0,0.0,0.0,0.0,0.0,0.0,0.0,0.0,0.0,0.0,0.0,0.0,0.0,0.0,0.0,-2.3304,-2.3507,0.0,0.0,0.0,0.0,-2.4317,-2.4271,-2.4779,-2.6125,-2.5667,-2.5583,-2.612,-2.5681,-2.5457,-2.5495,-2.554,-2.5257,-2.4703,-2.4085,-2.3775,-2.3693,-2.3078,-2.2839,-2.2868,-2.2875,-2.3238,-2.3809,-2.4423,-2.3955,-2.2909,-2.3473,-2.3313,-2.2777,-2.2644,-2.2207,-2.1692,-2.1589,-2.1183,-2.0724,-2.0709,-2.0772,-2.0941,-2.1429,-2.1676,0.0,0.0,-2.2671,-2.2431,-2.1475,-2.1546,-2.1482,-1.9925,-2.0301,-2.0886,-2.0324,-2.0633,-2.1106,-2.1358,-2.1393,-2.1585,-2.2077,0.0,-2.2188,-2.2646,-2.2649,-2.2578,-2.2583,-2.2581,-2.2449,-2.2125,-2.1532,-2.1004,-2.0684,-2.0082,-1.9708,-1.9708,-1.9708,-1.9708,-1.9708,-1.9708,-1.9708,-1.9708,-1.9031,0.0,0.0,0.0,0.0,0.0,0.0,0.0,0.0,0.0,0.0,0.0,0.0,0.0,0.0,0.0,0.0,0.0,0.0,0.0,0.0,0.0,0.0,0.0,0.0,0.0,0.0,0.0,0.0,-2.3664,-2.4143,0.0,-2.4905,-2.4744,-2.4927,-2.5737,-2.5706,-2.5857,-2.6364,-2.584,-2.5756,-2.6342,-2.5878,-2.5614,-2.5555,-2.5662,-2.5028,-2.3715,-2.3122,-2.2423,-2.1667,-2.1105,-2.1035,-2.1388,-2.1778,-2.2269,-2.2908,-2.3885,-2.3941,-2.3386,-2.3506,-2.3214,-2.267,-2.2522,-2.2337,-2.214,-2.21,-2.1943,-2.1786,-2.1799,-2.1825,-2.1904,-2.2088,-2.2181,-2.2286,-2.2604,-2.2392,-2.2008,-2.1737,-2.1242,-2.0564,-1.9609,-1.9644,-1.9837,-1.9647,-2.0074,-2.0724,-2.1546,-2.1718,-2.2015,-2.2884,-2.2944,-2.2912,-2.3008,-2.2939,-2.271,-2.2306,-2.2244,-2.2064,-2.1559,-2.1303,-2.1076,-2.0848,-2.0216,-1.9984,-2.0329,-1.9947,-1.9708,-1.9708,-1.9708,-1.9708,-1.9708,-1.9468,-1.8998,0.0,0.0,0.0,0.0,0.0,0.0,0.0,0.0,0.0,0.0,0.0,0.0,0.0,0.0,0.0,0.0,0.0,0.0,0.0,0.0,0.0,0.0,0.0,0.0,0.0,-2.2378,-2.3428,-2.439,-2.4869,-2.5378,-2.5988,-2.6098,-2.6287,-2.677,-2.6612,-2.6589,-2.6756,-2.5851,-2.5612,-2.6188,-2.5511,-2.5137,-2.5081,-2.5172,-2.4522,-2.3184,-2.2595,-2.1866,-2.1087,-2.0541,-2.0464,-2.083,-2.1223,-2.1724,-2.2373,-2.3121,-2.3417,-2.3424,-2.3755,-2.342,-2.2784,-2.2703,-2.2413,-2.2113,-2.2113,-2.21,-2.21,-2.21,-2.2216,-2.24,-2.2401,-2.2388,-2.2467,-2.2732,-2.2391,-2.1878,-2.1598,-2.1093,-2.0446,-1.9711,-1.9661,-1.9771,-1.9771,-2.0075,-2.0656,-2.1572,-2.1835,-2.2201,-2.3105,-2.3148,-2.2997,-2.2735,-2.2589,-2.227,-2.1705,-2.1623,-2.1533,-2.1287,-2.1066,-2.0941,-2.0991,-2.0204,-1.9944,-2.0503,-1.9757,-1.9538,-2.0074,-1.9567,-1.9524,-2.0034,-1.9857,-1.9413,-1.8712,0.0,0.0,0.0,0.0,0.0,0.0,0.0,0.0,0.0,0.0,0.0,0.0,0.0,0.0,0.0,0.0,0.0,0.0,0.0,0.0,0.0,0.0,0.0,-2.2765,-2.3393,-2.4331,-2.5576,-2.5817,-2.6025,-2.6494,-2.6764,-2.7054,-2.7334,-2.6933,-2.6909,-2.74,-2.5859,-2.5208,-2.5756,-2.4676,-2.4072,-2.4058,-2.4058,-2.3729,-2.3147,-2.2537,-2.2278,-2.2251,-2.1656,-2.1399,-2.1399,-2.1399,-2.1724,-2.228,-2.2153,-2.2375,-2.2911,-2.4098,-2.398,-2.3197,-2.3197,-2.2492,-2.1538,-2.1538,-2.1538,-2.1538,-2.1538,-2.193,-2.24,-2.2401,-2.2388,-2.2506,-2.3041,-2.2778,-2.2139,-2.1102,-2.1144,-2.1197,-2.023,-2.034,-2.066,-2.0673,-2.0673,-2.0831,-2.1394,-2.1706,-2.2086,-2.2711,-2.2683,-2.2392,-2.1799,-2.1603,0.0,-2.0777,-2.0699,-2.0873,-2.1326,-2.081,-2.062,-2.115,-2.0076,-1.9593,-2.018,-1.9171,-1.9245,-2.0806,-1.9384,-1.9238,-2.0661,-2.0162,-1.9897,-1.9897,0.0,0.0,0.0,0.0,0.0,0.0,0.0,0.0,0.0,0.0,0.0,0.0,0.0,0.0,0.0,0.0,0.0,0.0,0.0,0.0,0.0,-2.2889,-2.4127,-2.4222,-2.4898,-2.569,-2.6481,-2.6676,-2.6901,-2.7337,-2.7437,-2.7295,-2.6855,-2.6702,-2.6335,-2.5649,-2.4805,-2.4579,-2.5126,-2.4058,-2.3435,-2.3463,-2.3014,-2.2483,-2.1887,-2.1724,-2.1643,-2.1629,-2.148,-2.1399,-2.1399,-2.1399,-2.1724,-2.228,-2.2153,-2.2375,-2.2831,-2.3042,-2.2932,-2.2624,-2.2624,-2.2427,-2.2152,-2.2152,-2.2152,-2.2152,-2.2152,-2.2256,-2.24,-2.2401,-2.2388,-2.2427,-2.2583,-2.2217,-2.1681,-2.138,-2.0805,-2.0191,-1.9926,-1.9614,-1.9512,-1.9943,-2.0035,-2.0335,-2.1315,-2.1564,-2.1931,-2.2929,-2.2744,-2.2402,-2.2232,-2.1799,-2.1302,-2.0777,-2.0699,-2.0749,-2.0873,-2.0728,-2.0817,-2.1285,-2.0584,-2.0328,-2.0901,-2.0167,-1.9929,-2.0373,-1.9978,-1.9908,-2.0321,-1.9914,-1.9829,0.0,0.0,0.0,0.0,0.0,0.0,0.0,0.0,0.0,0.0,0.0,0.0,0.0,0.0,0.0,0.0,0.0,0.0,0.0,0.0,0.0,0.0,-2.3865,-2.4889,-2.5503,-2.578,-2.6272,-2.7215,-2.7192,-2.728,-2.7724,-2.7611,-2.7242,-2.6594,-2.5994,-2.5404,-2.4878,-2.3907,-2.3493,-2.3801,-2.2906,-2.2456,-2.2453,-2.2112,-2.1738,-2.1399,-2.1399,-2.1399,-2.1399,-2.1399,-2.1399,-2.1399,-2.1399,-2.1589,-2.19,-2.179,-2.1854,-2.2073,0.0,0.0,0.0,0.0,-2.1695,-2.1734,-2.1956,-2.2035,-2.2035,-2.2035,-2.2191,-2.2361,-2.2086,-2.2035,-2.2008,-2.2021,-2.1616,-2.1146,-2.1146,-2.0687,-2.019,-2.019,-1.9915,-1.9758,-2.0111,-2.019,-2.0361,-2.1053,-2.1146,0.0,-2.2348,-2.2243,-2.2021,-2.2008,-2.1525,-2.1053,-2.0751,-2.0699,-2.0699,-2.0699,-2.0699,-2.0799,-2.1082,-2.051,0.0,0.0,0.0,-1.9671,-1.9671,-2.0271,0.0,0.0,0.0,0.0,0.0,-2.047,0.0,0.0,-2.1198,-2.1413,0.0,0.0,0.0,0.0,0.0,0.0,0.0,0.0,0.0,0.0,0.0,0.0,0.0,0.0,0.0,0.0,-2.4677,-2.529,-2.6461,-2.6156,-2.6282,-2.7639,-2.7381,-2.7271,-2.7675,-2.7357,-2.688,-2.6227,-2.4978,-2.4294,-2.4403,-2.2995,0.0,0.0,0.0,-2.1494,-2.1494,-2.1494,-2.1467,-2.1399,-2.1399,-2.1399,-2.1399,-2.1399,-2.1399,-2.1399,-2.1399,-2.1399,-2.1399,-2.1229,-2.1082,-2.1065,-2.2022,-2.1983,-2.1355,-2.087,-2.0699,-2.0777,-2.1237,0.0,0.0,-2.142,-2.1773,-2.2113,-2.1577,-2.142,-2.142,-2.142,-2.108,-2.0699,-2.0699,-2.0699,-2.0699,-2.0699,-2.0699,-2.0699,-2.0699,-2.0699,-2.0699,-2.0699,-2.0699,-2.0844,-2.1328,-2.142,-2.1433,-2.1498,-2.1053,-2.0699,-2.0699,-2.0699,-2.0699,-2.0699,-2.0699,0.0,-2.0699,-2.0216,-2.0137,-2.0673,-1.9706,-1.9094,-1.9094,-2.0407,-2.0752,-1.9928,-2.0257,-2.0725,-2.1326,-2.1326,-2.1554,-2.1941,-2.1384,-2.149,0.0,0.0,0.0,0.0,0.0,0.0,0.0,0.0,0.0,0.0,0.0,0.0,0.0,0.0,0.0,-2.3713,-2.4673,-2.5539,-2.6063,-2.5947,-2.6125,-2.6989,-2.7113,-2.6995,-2.6714,-2.6743,-2.6053,-2.4215,-2.4022,-2.3426,-2.2142,-2.1751,-2.1792,-2.2278,-2.2196,-2.2142,-2.2142,-2.2142,-2.1898,-2.1399,-2.1399,0.0,-2.1399,-2.1399,-2.1399,-2.1399,-2.1399,-2.1399,-2.1375,-2.1131,-2.0923,-2.0775,-2.0998,-2.0986,-2.0831,-2.0751,-2.0699,-2.0725,-2.0805,-2.0844,-2.0844,-2.0844,-2.0923,-2.1001,-2.0883,-2.0844,0.0,-2.0844,-2.0791,-2.0699,-2.0699,-2.0699,-2.0699,-2.0699,-2.0699,-2.0699,-2.0699,-2.0699,-2.0699,-2.0699,-2.0699,-2.0738,-2.0831,-2.0844,-2.1001,-2.1446,-2.1053,-2.0699,-2.0699,-2.0699,-2.0699,-2.0699,-2.0699,-2.0699,-2.0699,-2.0607,-2.0594,-2.0699,-2.0489,-2.0334,-2.0334,-2.0648,-2.0701,-2.0542,-2.0603,-2.0705,-2.0848,-2.0848,-2.0898,-2.0983,-2.1594,-2.2212,0.0,0.0,0.0,0.0,0.0,0.0,0.0,0.0,0.0,0.0,0.0,-2.1797,-2.1797,0.0,-2.3577,-2.4415,-2.4839,-2.5248,-2.5821,-2.5611,-2.5784,-2.6871,-2.6725,-2.6461,-2.6217,-2.5861,-2.5114,-2.3792,-2.3169,-2.2541,-2.1845,-2.1817,-2.1993,-2.2291,-2.2578,-2.2741,-2.2741,-2.2741,-2.2591,-2.2307,-2.2307,-2.2307,-2.2307,-2.2307,-2.2307,-2.2307,-2.2307,-2.2307,-2.2282,-2.2002,-2.1836,-2.1706,-2.1275,-2.0936,-2.0699,-2.0699,-2.0699,-2.0699,-2.0699,-2.0699,-2.0699,-2.0699,-2.0699,-2.0699,-2.0699,-2.0699,-2.0699,-2.0699,-2.0699,-2.0699,-2.0699,-2.0699,-2.0699,-2.0699,-2.0699,-2.0699,-2.0699,-2.0699,-2.0699,-2.0699,-2.0699,-2.0699,-2.0699,-2.0699,-2.0804,-2.1066,-2.0857,-2.0699,-2.0699,-2.0699,-2.0699,-2.0699,-2.0699,-2.0699,-2.0699,-2.0699,-2.0699,-2.0699,-2.0699,-2.0699,-2.0699,-2.0699,-2.0699,-2.0699,-2.0699,-2.0699,-2.0699,-2.0699,-2.0699,-2.0699,-2.1191,-2.1871,0.0,0.0,0.0,0.0,0.0,0.0,0.0,-2.0379,-2.0736,-2.0877,-2.1772,-2.2543,-2.2543,-2.302,-2.3835,-2.5154,-2.4859,-2.4756,-2.5529,-2.5273,-2.5412,-2.6562,-2.6167,-2.5762,-2.5602,-2.4964,-2.4265,-2.361,-2.2672,-2.2126,-2.2211,-2.238,-2.2536,-2.2658,-2.312,-2.3378,-2.3378,-2.3378,-2.3323,-2.3215,-2.3215,-2.3215,-2.3215,-2.3215,-2.3215,-2.3215,-2.3215,-2.3189,-2.3149,-2.2898,-2.2764,-2.2684,-2.1957,-2.1407,-2.0988,-2.0791,-2.0699,-2.0699,-2.0699,-2.0699,-2.0699,-2.0699,-2.0699,-2.0699,-2.0699,-2.0699,-2.0699,-2.0699,-2.0699,-2.0699,-2.0699,-2.0699,-2.0699,-2.0699,-2.0699,-2.0699,-2.0699,-2.0699,-2.0699,-2.0699,-2.0699,-2.0699,-2.0699,-2.0699,-2.0699,-2.0699,-2.0699,-2.0699,-2.0699,-2.0699,-2.0699,-2.0699,-2.0699,-2.0699,-2.0699,-2.0699,-2.0699,-2.0699,-2.0699,-2.0699,-2.0699,-2.0699,-2.0699,-2.0699,-2.0699,-2.0699,-2.0699,-2.0699,-2.0699,-2.0699,-2.0699,-2.1262,-1.9136,-1.9275,-1.9537,-2.0674,-2.0949,-2.1304,0.0,-2.2459,-2.2262,-2.2925,-2.3223,-2.3386,-2.3433,-2.3595,-2.3991,-2.4739,-2.4374,-2.4224,-2.4981,-2.5033,-2.5069,-2.5227,-2.5159,-2.4876,-2.4279,-2.43,-2.3777,-2.2495,-2.2923,-2.2933,-2.2321,-2.2793,-2.335,-2.3879,-2.396,-2.4001,-2.4001,-2.4001,-2.373,-2.3215,-2.3215,-2.3215,-2.3215,-2.3215,-2.3215,-2.3215,-2.3215,-2.3135,-2.3016,-2.2858,-2.2737,-2.259,-2.2376,-2.2269,-2.2086,-2.1066,-2.0699,-2.0699,-2.0699,-2.0699,-2.0699,-2.0699,-2.0699,-2.0699,-2.0699,-2.0699,-2.0699,-2.0699,-2.0699,-2.0699,-2.0699,-2.0699,-2.0699,-2.0699,-2.0699,-2.0699,-2.0699,-2.0699,-2.0699,-2.0699,-2.0699,-2.0699,-2.0699,-2.0699,-2.0699,-2.0699,-2.0699,-2.0699,-2.0699,-2.0699,-2.0699,-2.0699,-2.0699,-2.0699,-2.0699,-2.0699,-2.0699,-2.0699,-2.0699,-2.0699,-2.0699,-2.0699,-2.0699,-2.0699,-2.0699,-2.0699,-2.0699,-2.0699,-2.0699,-2.0699,-2.0699,-2.1027,-1.9802,-1.9987,-2.0094,-2.0582,-2.072,-2.0965,-2.192,-2.2228,-2.2416,-2.279,-2.3216,-2.3514,-2.3596,-2.3637,-2.3921,-2.4679,-2.4584,-2.4569,-2.4946,-2.5005,-2.5005,-2.5005,-2.5005,-2.4886,-2.4605,-2.4317,-2.3904,-2.3351,-2.3255,-2.3119,-2.2834,-2.3391,-2.3838,-2.4082,-2.4435,-2.4639,-2.4639,-2.4639,-2.4489,-2.4245,-2.4245,-2.4245,-2.4245,-2.4245,-2.4245,-2.4245,-2.4245,-2.4176,-2.4025,-2.3997,-2.3817,-2.354,-2.3181,-2.298,-2.2779,-2.1982,-2.1708,-2.1708,-2.1695,-2.1446,-2.1184,-2.1184,-2.1184,-2.1184,-2.1184,-2.1407,-2.1629,-2.1276,-2.1184,-2.1093,-2.0791,-2.0699,-2.0699,-2.0699,-2.0699,-2.0699,-2.0699,-2.0699,-2.0699,-2.0699,-2.0699,-2.0699,-2.0699,-2.0699,-2.0699,-2.0699,-2.0699,-2.0699,-2.0699,-2.0699,-2.0699,-2.0699,-2.0699,-2.0699,-2.0699,-2.0699,-2.0699,-2.0699,-2.0699,-2.0699,-2.0699,-2.0699,-2.0699,-2.0699,-2.0699,-2.0699,-2.0699,-2.0699,-2.0699,-2.0712,-2.1027,-2.1276,-2.03,-2.0407,-2.0435,-2.0551,-2.0582,-2.0749,-2.1427,-2.1812,-2.2127,-2.2459,-2.2897,-2.334,-2.3627,-2.3717,-2.3993,-2.4728,-2.4722,-2.4666,-2.4826,-2.4946,-2.4982,-2.4866,-2.4946,-2.5065,-2.5254,-2.4508,-2.4025,-2.4076,-2.3616,-2.3423,-2.3577,-2.4069,-2.434,-2.434,-2.4774,-2.5005,-2.5005,-2.5005,-2.5005,-2.5005,-2.5005,-2.5005,-2.5005,-2.5005,-2.5005,-2.5005,-2.4948,-2.4892,-2.4778,-2.4692,-2.4536,-2.4253,-2.3841,-2.357,-2.3391,-2.3001,-2.2676,-2.2401,-2.2387,-2.2113,-2.1721,-2.1564,-2.1616,-2.1721,-2.1564,-2.1904,-2.227,-2.1668,-2.1511,-2.1381,-2.0831,-2.0805,-2.0923,-2.0923,-2.0923,-2.0962,-2.1144,-2.1053,-2.0962,-2.1132,-2.1158,-2.1171,-2.1171,-2.1027,-2.0923,-2.0923,-2.0779,-2.0699,-2.0699,-2.0699,-2.0699,-2.0699,-2.0699,-2.0699,-2.0699,-2.0699,-2.0699,-2.0699,-2.0699,-2.0699,-2.0699,-2.0699,-2.0699,-2.0699,-2.0699,-2.0699,-2.0699,-2.0699,-2.0791,-2.0923,-2.1315,-2.1603,-2.0478,-2.0458,-2.0543,-2.1121,-2.1273,-2.1442,-2.212,-2.1781,-2.1574,-2.2428,-2.2602,-2.2895,-2.3724,-2.3991,-2.4277,-2.489,-2.4492,-2.4204,-2.4477,-2.4802,-2.4866,-2.4559,-2.4786,-2.5254,-2.5914,-2.4786,-2.4003,-2.4013,-2.3981,-2.4152,-2.454,-2.4819,-2.4978,-2.4978,-2.4991,-2.5005,-2.5005,-2.5005,-2.5005,-2.5005,-2.5005,-2.5005,-2.5005,-2.5005,-2.5005,-2.4977,-2.4863,-2.4806,-2.4778,-2.445,-2.4321,-2.4292,-2.4144,-2.4099,-2.4057,-2.4044,-2.3367,-2.24,-2.2401,-2.2375,-2.227,-2.1694,-2.189,-2.2257,-2.1681,-2.1904,-2.227,-2.1668,-2.1511,-2.1381,-2.0831,-2.1093,-2.1485,-2.1485,-2.1485,-2.1642,-2.2218,-2.1904,-2.1655,-2.2243,-2.2362,-2.2363,-2.2363,-2.1851,-2.1485,-2.1485,-2.104,-2.0699,-2.0699,-2.0699,-2.0699,-2.0699,-2.0699,-2.0699,-2.0699,-2.0699,-2.0699,-2.0699,-2.0699,-2.0699,-2.0699,-2.0699,-2.0699,-2.0699,-2.0699,-2.0699,-2.0699,-2.0699,-2.0962,-2.1485,-2.1498,-2.1799,-2.0386,-2.0477,-2.0505,-2.0667,-2.0711,-2.074,-2.0936,-2.1134,-2.1543,-2.2428,-2.2945,-2.3533,-2.4456,-2.4669,-2.4751,-2.4966,-2.4846,-2.4731,-2.4806,-2.4926,-2.4946,-2.4862,-2.5316,-2.574,-2.5977,-2.5161,-2.4807,-2.5286,-2.4872,-2.4673,-2.4874,-2.4953,-2.5005,-2.5005,-2.5005,-2.5005,-2.5005,-2.5005,-2.5005,-2.5005,-2.5005,-2.5005,-2.5005,-2.5005,-2.5005,-2.5005,-2.4948,-2.4835,-2.4677,-2.4635,-2.4463,-2.4187,-2.4232,-2.4187,-2.4083,-2.4083,-2.3848,-2.3537,-2.3524,-2.3263,-2.2897,-2.2673,-2.2779,-2.2897,-2.2701,-2.3054,-2.3406,-2.2805,-2.2374,-2.2061,-2.1865,-2.1642,-2.1603,-2.2009,-2.2086,-2.2165,-2.2348,-2.2257,-2.2166,-2.2374,-2.24,-2.2414,-2.2388,-2.2217,-2.21,-2.21,-2.1289,-2.0699,-2.0699,-2.0699,-2.0699,-2.0699,-2.0699,-2.0831,-2.1198,-2.1224,-2.1407,-2.1786,-2.1838,-2.1642,-2.1237,-2.1616,-2.1485,-2.0725,-2.1446,-2.1629,-2.1224,-2.1629,-2.1917,-2.2113,-2.2479,-2.2753,-2.0369,-2.0477,-2.0458,-2.0405,-2.0423,-2.0407,-2.0321,-2.0643,-2.1224,-2.2053,-2.2589,-2.3161,-2.4078,-2.4448,-2.4622,-2.4622,-2.4827,-2.4946,-2.4842,-2.4906,-2.5041,-2.5156,-2.5663,-2.6198,-2.6704,-2.6063,-2.5808,-2.6282,-2.5454,-2.5018,-2.5314,-2.5118,-2.5005,-2.5005,-2.5005,-2.5005,-2.5005,-2.5208,-2.5317,-2.5317,-2.5317,-2.5208,-2.5005,-2.5005,-2.5005,-2.5005,-2.4948,-2.4835,-2.4677,-2.4635,-2.4434,-2.4187,-2.4203,-2.4187,-2.4083,-2.4083,-2.4083,-2.4083,-2.4083,-2.3835,-2.3483,-2.3261,-2.3367,-2.3469,-2.3289,-2.3613,-2.3965,-2.3365,-2.2949,-2.265,-2.244,-2.2243,-2.2217,-2.2583,-2.2688,-2.2725,-2.2947,-2.2831,-2.274,-2.2975,-2.3027,-2.3014,-2.3016,-2.2831,-2.2622,-2.2427,-2.1786,-2.1302,-2.1302,-2.1302,-2.1315,-2.1315,-2.1315,-2.1446,-2.1786,-2.1825,-2.1982,-2.2375,-2.2414,-2.223,-2.1851,-2.2205,-2.2074,-2.1328,-2.2035,-2.2205,-2.1812,-2.2204,-2.2505,-2.2673,-2.3026,-2.3313,-2.0477,-2.0458,-2.0405,-2.0405,-2.0458,-2.046,-2.0321,-2.0354,-2.0626,-2.1434,-2.1592,-2.1864,-2.2736,-2.3449,-2.3904,-2.3904,-2.4527,-2.4902,-2.458,-2.4818,-2.517,-2.5502,-2.5869,-2.6625,-2.7968,-2.7411,-2.6994,-2.7016,-2.5731,-2.522,-2.5865,-2.5314,-2.5005,-2.5005,-2.5032,-2.5059,-2.5059,-2.5643,-2.5941,-2.5941,-2.5941,-2.5629,-2.5059,-2.5059,-2.5032,-2.4977,-2.4863,-2.4806,-2.4778,-2.445,-2.4321,-2.4292,-2.4157,-2.4083,-2.4083,-2.4083,-2.4083,-2.4083,-2.4083,-2.4083,-2.3992,-2.3417,-2.3613,-2.3979,-2.3404,-2.3639,-2.3965,-2.3391,-2.3208,-2.3093,-2.261,-2.2831,-2.3195,-2.3221,-2.3263,-2.3391,-2.3995,-2.3639,-2.3404,-2.3979,-2.4083,-2.4083,-2.4083,-2.3642,-2.308,-2.2558,-2.248,-2.2467,-2.2413,-2.2414,-2.2388,-2.2388,-2.2388,-2.2401,-2.2427,-2.2439,-2.2452,-2.248,-2.248,-2.248,-2.2452,-2.248,-2.2453,-2.2388,-2.2453,-2.2467,-2.2427,-2.2467,-2.2754,-2.3263,-2.3263,-2.3535,-2.0477,-2.0458,-2.0405,-2.0458,-2.0458,-2.039,-2.0321,-2.0304,-2.0574,-2.1416,-2.1592,-2.1864,-2.2736,-2.3449,-2.3904,-2.3904,-2.4527,-2.4966,-2.4886,-2.5384,-2.5783,-2.5874,-2.6867,-2.7699,-2.8063,-2.8101,-2.8176,-2.8374,-2.6683,-2.5616,-2.5592,-2.5216,-2.5005,-2.5005,-2.5439,-2.567,-2.567,-2.628,-2.6562,-2.6562,-2.6562,-2.6253,-2.567,-2.567,-2.5426,-2.5005,-2.4948,-2.4892,-2.4778,-2.4607,-2.445,-2.4292,-2.4157,-2.4083,-2.4083,-2.4083,-2.4083,-2.4083,-2.4083,-2.4083,-2.4057,-2.3913,-2.3965,-2.4057,-2.3913,-2.3995,-2.4086,-2.39,-2.3535,-2.3261,-2.3589,-2.3446,-2.33,-2.3757,-2.3861,-2.39,-2.4086,-2.3965,-2.3913,-2.4057,-2.4083,-2.4083,-2.4083,-2.3965,-2.3809,-2.3694,-2.3668,-2.3367,-2.2518,-2.2414,-2.2388,-2.2388,-2.2414,-2.2557,-2.2962,-2.3014,-2.3197,-2.3642,-2.3668,-2.3472,-2.3,-2.3433,-2.3263,-2.2401,-2.3223,-2.3446,-2.3001,-2.3459,-2.3746,-2.3861,-2.3861,-2.3939,-2.056,-2.056,-2.0542,-2.051,-2.0526,-2.0508,-2.0356,-2.0373,-2.0534,-2.1094,-2.1207,-2.1445,-2.2309,-2.3259,-2.3904,-2.3904,-2.5045,-2.5808,-2.5492,-2.604,-2.6593,-2.6893,-2.762,-2.8221,-2.8521,-2.8522,-2.8611,-2.8875,-2.7586,-2.6562,-2.6106,-2.6017,-2.5801,-2.5398,-2.5982,-2.643,-2.6687,-2.704,-2.7172,-2.7172,-2.7172,-2.6891,-2.6294,-2.6294,-2.5968,-2.5385,-2.5385,-2.5192,-2.4863,-2.4721,-2.4578,-2.4421,-2.4261,-2.4157,-2.4083,-2.4083,-2.4083,-2.4083,-2.4083,-2.4083,-2.4083,-2.4083,-2.4083,-2.4083,-2.4083,-2.4083,-2.4083,-2.4083,-2.3848,-2.3665,-2.3992,-2.3835,-2.3665,-2.4005,-2.4083,-2.4083,-2.4083,-2.4083,-2.4083,-2.4083,-2.4083,-2.4083,-2.4083,-2.4083,-2.4083,-2.4083,-2.4083,-2.3861,-2.3221,-2.3145,-2.316,-2.316,-2.3145,-2.3289,-2.3561,-2.3587,-2.3731,-2.407,-2.4083,-2.3939,-2.3629,-2.3913,-2.3812,-2.3173,-2.3785,-2.3913,-2.3587,-2.3926,-2.4083,-2.4083,-2.4083,-2.4083,-2.0609,-2.066,-2.061,-2.0527,-2.0577,-2.0609,-2.0457,-2.0458,-2.0527,-2.0676,-2.0771,-2.1057,-2.1757,-2.3006,-2.3904,-2.3904,-2.555,-2.6625,-2.6088,-2.6641,-2.7352,-2.8015,-2.8173,-2.8474,-2.9035,-2.874,-2.8611,-2.8875,-2.8322,-2.7641,-2.6961,-2.7177,-2.6923,-2.6145,-2.666,-2.7199,-2.7813,-2.7827,-2.7827,-2.7827,-2.7827,-2.7515,-2.6915,-2.6915,-2.6606,-2.6009,-2.6009,-2.5683,-2.5127,-2.4985,-2.4801,-2.4607,-2.4392,-2.4232,-2.4112,-2.4112,-2.4083,-2.4083,-2.4083,-2.4083,-2.4083,-2.4083,-2.4083,-2.4083,-2.4083,-2.4083,-2.4083,-2.4083,-2.4083,-2.4083,-2.4083,-2.4083,-2.4083,-2.4083,-2.4083,-2.4083,-2.3995,-2.3894,-2.3865,-2.3953,-2.3953,-2.3995,-2.4083,-2.4083,-2.4083,-2.4083,-2.4083,-2.4083,-2.4083,-2.4083,-2.4083,-2.4083,-2.4083,-2.4083,-2.4083,-2.4083,-2.4083,-2.4083,-2.4083,-2.4083,-2.4083,-2.4083,-2.4083,-2.4083,-2.4083,-2.4083,-2.4083,-2.4083,-2.4083,-2.4083,-2.4083,-2.4083,-2.0423,-2.0407,-2.039,-2.0477,-2.0426,-2.039,-2.046,-2.0458,-2.0474,-2.066,-2.1148,-2.1605,-2.1851,-2.3006,-2.3904,-2.3904,-2.4713,-2.5507,-2.5945,-2.6641,-2.7352,-2.8015,-2.86,-2.8972,-2.9098,-2.874,-2.8611,-2.8875,-2.848,-2.8033,-2.7566,-2.74,-2.7322,-2.7379,-2.7501,-2.7841,-2.8438,-2.8438,-2.8438,-2.8438,-2.8438,-2.8125,-2.7556,-2.7556,-2.7199,-2.663,-2.663,-2.6307,-2.5738,-2.5592,-2.5251,-2.4721,-2.4408,-2.4292,-2.4247,-2.4128,-2.4083,-2.4083,-2.4083,-2.4083,-2.4083,-2.4083,-2.4083,-2.4083,-2.4083,-2.4083,-2.4083,-2.4083,-2.4083,-2.4083,-2.4083,-2.4083,-2.4083,-2.4083,-2.4083,-2.3953,-2.3399,-2.2847,-2.2604,-2.319,-2.328,-2.3442,-2.3995,-2.4083,-2.4083,-2.4083,-2.4083,-2.4083,-2.4083,-2.4083,-2.4083,-2.4083,-2.4083,-2.4083,-2.4083,-2.4083,-2.4083,-2.4083,-2.4083,-2.4083,-2.4083,-2.4083,-2.4083,-2.4083,-2.4083,-2.4083,-2.4083,-2.4083,-2.4083,-2.4083,-2.4083,-2.4083,-2.0441,-2.0441,-2.0424,-2.0441,-2.039,-2.0373,-2.0477,0.0,0.0,-2.0711,-2.1012,-2.1375,-2.1821,-2.3006,-2.3904,-2.3904,-2.5124,-2.6219,-2.653,-2.7178,-2.7873,-2.853,-2.8893,-2.9098,-2.9098,-2.906,-2.9125,-2.9394,-2.9328,-2.8805,-2.7749,-2.7566,-2.7728,-2.8139,-2.8166,-2.8302,-2.8587,-2.8587,-2.8587,-2.8587,-2.8587,-2.8451,-2.8166,-2.8166,-2.7841,-2.7253,-2.7253,-2.6945,-2.6348,-2.5964,-2.5578,-2.5208,-2.4742,-2.445,-2.4292,-2.4232,-2.4157,-2.4083,-2.4083,-2.4083,-2.4083,-2.4083,-2.4083,-2.4083,-2.4083,-2.4083,-2.4083,-2.4083,-2.4083,-2.4083,-2.4083,-2.4083,-2.4083,-2.4083,-2.3822,-2.3501,-2.3177,-2.2561,-2.2286,-2.2955,-2.3088,-2.331,-2.3982,-2.4083,-2.4083,-2.4083,-2.3793,-2.3573,-2.3573,-2.3573,-2.3691,-2.4054,-2.4083,-2.4083,-2.4083,-2.4083,-2.4083,-2.4083,-2.4083,-2.4083,-2.4083,-2.4083,-2.4083,-2.4083,-2.4083,-2.4083,-2.4083,-2.4083,-2.4083,-2.4083,-2.4083,-2.4083,-2.0443,-2.046,-2.0458,-2.0405,-2.0405,-2.0423,-2.051,-2.0544,-2.0595,-2.0761,-2.0921,-2.1252,-2.1981,-2.3101,-2.3951,-2.4112,-2.5677,-2.6925,-2.7083,-2.7668,-2.8347,-2.9019,-2.9098,-2.9098,-2.9098,-2.9347,-2.9587,-2.9682,-2.9794,-2.9349,-2.8171,-2.7965,-2.8112,-2.8587,-2.8587,-2.8587,-2.8587,-2.8587,-2.8587,-2.8587,-2.8587,-2.8587,-2.8587,-2.8587,-2.8343,-2.7895,-2.7895,-2.7556,-2.6942,-2.6484,-2.6072,-2.57,-2.5154,-2.4713,-2.4363,-2.4276,-2.4203,-2.4083,-2.4083,-2.4083,-2.4083,-2.4083,-2.4083,-2.4083,-2.4083,-2.4083,-2.4083,-2.4083,-2.4083,-2.4083,-2.4083,-2.4083,-2.4054,-2.3923,-2.3263,-2.2652,-2.2652,-2.2132,-2.1865,-2.2531,-2.2652,-2.2937,-2.3763,-2.3776,-2.3704,-2.3865,-2.3322,-2.2907,-2.2907,-2.2907,-2.31,-2.3616,-2.3936,-2.4054,-2.3894,-2.4024,-2.4083,-2.4083,-2.4083,-2.4083,-2.4083,-2.4083,-2.4083,-2.4083,-2.4083,-2.4083,-2.4083,-2.4083,-2.4083,-2.4083,-2.4083,-2.4083,-2.0321,-2.0321,-2.0321,-2.0388,-2.0405,-2.0457,-2.0643,0.0,-2.0694,-2.0778,-2.1331,-2.2013,-2.2693,-2.3417,-2.4128,-2.4796,-2.5586,-2.634,-2.702,-2.7668,-2.8347,-2.9019,-2.9098,-2.9098,-2.9098,-2.9411,-2.9421,-2.9011,-2.8841,-2.8963,-2.9406,-2.8862,-2.8532,-2.8587,-2.8587,-2.8587,-2.8587,-2.8587,-2.8587,-2.8587,-2.8587,-2.8587,-2.8587,-2.8587,-2.856,-2.8519,-2.8519,-2.8166,-2.7623,-2.7569,-2.6891,-2.5858,-2.548,-2.5029,-2.4534,-2.4229,-2.4112,-2.4083,-2.4083,-2.4083,-2.4083,-2.4083,-2.4083,-2.4083,-2.4083,-2.4083,-2.4083,-2.4083,-2.4083,-2.4083,-2.4083,-2.4083,-2.3953,-2.3339,-2.2194,-2.1282,-2.1282,-2.0752,-2.0474,-2.1155,-2.1282,-2.1678,-2.2967,-2.2695,-2.2482,-2.3088,-2.2634,-2.2194,-2.2194,-2.2194,-2.2237,-2.2267,-2.3365,-2.3852,-2.325,-2.3763,-2.4083,-2.4083,-2.4083,-2.4083,-2.4083,-2.4083,-2.4083,-2.4083,-2.4083,-2.4083,-2.4083,-2.4083,-2.4083,-2.4083,-2.4083,-2.4083,-2.0356,-2.0304,-2.0304,-2.0321,-2.0371,-2.044,-2.056,-2.0644,-2.0836,-2.1346,-2.1695,-2.209,-2.2772,-2.3119,-2.3528,-2.4223,-2.4571,-2.5277,-2.6878,-2.7336,-2.7905,-2.8972,-2.9501,-2.9753,-2.9753,-3.0154,-3.0258,-2.9962,-2.9471,-2.9305,-2.9602,-2.8972,-2.8587,-2.8587,-2.8587,-2.8587,-2.8587,-2.8587,-2.8587,-2.8587,-2.8587,-2.8587,-2.8587,-2.8587,-2.8587,-2.8587,-2.8587,-2.8451,-2.8207,-2.7854,-2.7155,-2.6266,-2.5859,-2.5172,-2.4421,-2.4419,-2.4287,-2.4083,-2.4083,-2.4083,-2.4083,-2.4083,-2.4083,-2.4083,-2.4083,-2.4083,-2.4083,-2.4083,-2.4083,-2.4024,-2.3603,-2.3203,-2.2829,-2.2573,-2.1772,-2.1092,-2.1092,-2.0571,-2.0302,-2.0976,-2.1092,-2.1408,-2.2347,-2.2286,-2.2194,-2.247,-2.1928,-2.1491,-2.1491,-2.1491,-2.1345,-2.0944,-2.2451,-2.3382,-2.3118,-2.3691,-2.4083,-2.4083,-2.4083,-2.4083,-2.4083,-2.4083,-2.4083,-2.4083,-2.4083,-2.4083,-2.4083,-2.4083,-2.4083,-2.4083,-2.4083,-2.4083,-2.051,-2.039,-2.0304,-2.0304,-2.0356,-2.0441,-2.0494,-2.0627,-2.0949,-2.1742,-2.19,-2.2169,-2.3056,-2.3196,-2.3417,0.0,-2.4586,-2.5356,-2.6893,-2.7425,-2.804,-2.8988,-2.9564,-2.9959,-3.0188,-3.0634,-3.0874,-3.0852,-3.0083,-2.954,-2.9446,-2.8908,-2.8587,-2.8587,-2.8587,-2.8587,-2.8587,-2.8587,-2.8587,-2.8587,-2.8587,-2.8587,-2.8587,-2.8587,-2.8587,-2.8587,-2.8587,-2.8587,-2.856,-2.8139,-2.7561,-2.6873,-2.6253,-2.5456,-2.4644,-2.4699,-2.4461,-2.4122,-2.4308,-2.4256,-2.4083,-2.4083,-2.4083,-2.4083,-2.4083,-2.4083,-2.4083,-2.4083,-2.4083,-2.3953,-2.328,-2.2592,-2.2039,-2.1865,-2.1282,-2.0784,-2.0784,-2.0421,-2.0237,-2.07,-2.0784,-2.1008,-2.1678,-2.1647,-2.1585,-2.1772,-2.1219,-2.0784,-2.0784,-2.0784,-2.07,-2.0421,-2.1834,-2.2804,-2.2804,-2.3603,-2.4083,-2.4083,-2.4083,-2.4083,-2.4083,-2.4083,-2.4083,-2.4083,-2.4083,-2.4083,-2.4083,-2.4083,-2.4083,-2.4083,-2.4083,-2.4083,-2.0794,-2.0544,-2.0304,-2.0304,-2.0392,-2.051,-2.051,-2.0662,-2.1,-2.1742,-2.19,-2.2311,-2.3635,-2.3888,-2.4144,-2.4859,-2.6171,-2.7083,-2.7099,-2.823,-2.9082,-2.9098,-2.9114,-2.9398,-3.0141,-3.0634,-3.1026,-3.139,-3.0297,-2.9446,-2.9131,-2.878,-2.8587,-2.8587,-2.8587,-2.8587,-2.8587,-2.8587,-2.8587,-2.8587,-2.8587,-2.8587,-2.8587,-2.8587,-2.8587,-2.8587,-2.8587,-2.8587,-2.8587,-2.8587,-2.8234,-2.7606,-2.6644,-2.5935,-2.5369,-2.5099,-2.4639,-2.4204,-2.4796,-2.4596,-2.4083,-2.4083,-2.4083,-2.4083,-2.4083,-2.4083,-2.4083,-2.4083,-2.4083,-2.3953,-2.328,-2.2592,-2.1916,-2.1282,-2.0603,-2.0107,-2.0107,-2.0118,-2.0118,-2.0107,-2.0107,-2.0324,-2.0996,-2.0571,-2.0356,-2.1008,-2.055,-2.0107,-2.0107,-2.0107,-2.0356,-2.1028,-2.171,-2.2101,-2.2101,-2.3322,-2.4083,-2.4083,-2.4083,-2.4083,-2.4083,-2.4083,-2.4083,-2.4083,-2.4083,-2.4083,-2.4083,-2.4083,-2.4083,-2.4083,-2.4083,-2.4083,-2.0909,-2.0712,-2.061,-2.0407,-2.0816,-2.1139,-2.0737,-2.1105,-2.1742,-2.2439,-2.2582,-2.3009,-2.44,-2.4239,-2.4476,-2.6151,-2.6388,-2.702,-2.8932,-2.9153,-2.9288,-2.9785,-3.0275,-3.0566,-3.0674,-3.1238,-3.1284,-3.0569,-2.9943,-2.9446,-2.9131,-2.878,-2.8587,-2.8587,-2.8587,-2.8587,-2.8587,-2.8587,-2.8587,-2.8587,-2.8587,-2.8587,-2.8587,-2.8587,-2.8587,-2.8587,-2.8587,-2.8587,-2.8587,-2.8587,-2.8184,-2.7494,-2.6777,-2.5992,-2.521,-2.4698,-2.4344,-2.4122,-2.4321,-2.4269,-2.4083,-2.4083,-2.4083,-2.4083,-2.4083,-2.4083,-2.3995,-2.3543,-2.31,-2.2573,-2.1896,-2.1585,-2.125,-2.0571,-2.0237,-2.0118,-2.0118,-2.0118,-2.0118,-2.0118,-2.0118,-2.0183,-2.0388,-2.0237,-2.0172,-2.0388,-2.0237,-2.0118,-2.0118,-2.0518,-2.0848,-2.1071,-2.2101,-2.2774,-2.2774,-2.3573,-2.4083,-2.4083,-2.4083,-2.4083,-2.4083,-2.4083,-2.4083,-2.4083,-2.4083,-2.4083,-2.4083,-2.4083,-2.4083,-2.4083,-2.4083,-2.4083,-2.1371,-2.1039,-2.0795,-2.0663,-2.0957,-2.116,-2.0787,-2.1107,-2.1742,-2.2708,-2.2898,-2.3325,-2.4752,-2.4622,-2.4839,-2.6435,-2.653,-2.7209,-2.9469,-2.9382,-2.9272,-2.9738,-3.0638,-3.1023,-3.0601,-3.1263,-3.1233,-3.0083,-2.9634,-2.9257,-2.894,-2.8716,-2.8587,-2.8587,-2.8587,-2.8587,-2.8587,-2.8587,-2.8587,-2.8587,-2.8587,-2.8587,-2.8587,-2.8587,-2.8587,-2.8587,-2.8587,-2.8587,0.0,-2.8587,-2.8351,-2.7863,-2.7175,-2.6582,-2.5993,-2.5487,-2.4971,-2.4524,-2.4687,-2.4448,-2.4083,-2.4083,-2.4083,-2.4054,-2.3793,-2.3721,-2.3573,-2.2907,-2.2408,-2.1959,-2.1282,-2.1092,-2.0944,-2.027,-2.0118,-2.0118,-2.0118,-2.0118,-2.0162,-2.0347,-2.0238,-2.0172,-2.038,-2.0238,-2.0118,-2.0118,-2.0118,-2.0118,-2.0118,-2.0453,-2.0816,-2.106,-2.207,-2.2847,-2.3088,-2.3691,-2.4083,-2.4083,-2.4083,-2.4083,-2.4083,-2.4083,-2.4083,-2.4083,-2.4083,-2.4083,-2.4083,-2.4083,-2.4083,-2.4083,-2.4083,-2.4083,0.0,-2.1447,-2.0942,-2.0991,-2.0892,-2.0757,-2.071,-2.0839,0.0,-2.2629,-2.2946,-2.3404,-2.4796,-2.5065,-2.5318,-2.6103,-2.6799,-2.7709,-2.9067,-2.9209,-2.9161,-2.9091,-3.0298,-3.0798,-3.0005,-3.0762,-3.0867,-2.983,-2.9341,-2.894,-2.8619,-2.8587,-2.8587,-2.8587,-2.8587,-2.8587,-2.8587,-2.8587,-2.8587,-2.8587,-2.8587,-2.8587,-2.8587,-2.8587,-2.8587,-2.8587,-2.8587,-2.8587,-2.8587,-2.8587,-2.8587,-2.8532,-2.7777,-2.7498,-2.7453,-2.7006,-2.6179,-2.5335,-2.5651,-2.5066,-2.4164,-2.4125,-2.4083,-2.3953,-2.325,-2.3027,-2.2907,-2.2237,-2.2021,-2.1865,-2.1187,-2.106,-2.0944,-2.027,-2.0118,-2.0118,-2.0118,-2.0118,-2.026,-2.0807,-2.05,-2.0325,-2.0861,-2.0511,-2.0162,-2.0162,-2.0129,-2.0118,-2.0118,-2.0151,-2.0421,-2.1028,-2.171,-2.2378,-2.3027,-2.3691,-2.4083,-2.4083,-2.4083,-2.4083,-2.4083,-2.4083,-2.4083,-2.4083,-2.4083,-2.4083,-2.4083,-2.4083,-2.4083,-2.4083,-2.4083,-2.4083,-2.2293,0.0,-2.1166,-2.0974,-2.1258,-2.1459,0.0,-2.175,-2.2748,-2.2871,0.0,-2.4112,-2.5503,-2.5756,-2.634,-2.8088,-2.8514,-2.9114,-3.0503,-3.0259,-2.9698,-2.9029,-2.9753,-3.0027,-2.9353,-3.0021,-3.0118,-2.9252,-2.9122,-2.894,-2.8619,-2.8587,-2.8587,-2.8587,-2.8587,-2.8587,-2.8587,-2.8587,-2.8587,-2.8587,-2.8587,-2.8587,-2.8587,-2.8587,-2.8587,-2.8587,-2.8587,-2.8587,-2.8587,-2.8587,-2.8587,-2.8532,-2.7777,-2.7498,-2.74,-2.6712,-2.6272,-2.5963,-2.5506,-2.5169,-2.4836,-2.4285,-2.4083,-2.3894,-2.2695,-2.2347,-2.2194,-2.1522,-2.1345,-2.1187,-2.0518,-2.0732,-2.0944,-2.027,-2.0118,-2.0118,-2.0118,-2.0118,-2.026,-2.0807,-2.0807,-2.0883,-2.133,-2.1047,-2.0719,-2.0719,-2.0347,-2.0118,-2.0118,-2.0539,-2.0944,-2.1092,-2.171,-2.2378,-2.3027,-2.3691,-2.4083,-2.4083,-2.4083,-2.4083,-2.4083,-2.4083,-2.4083,-2.4083,-2.4083,-2.4083,-2.4083,-2.4083,-2.4083,-2.4083,-2.4083,-2.4083,-2.2352,-2.2224,-2.2062,-2.2015,-2.2167,-2.2296,-2.2231,0.0,0.0,0.0,0.0,-2.4255,-2.5329,-2.5787,-2.6483,-2.793,-2.8435,-2.9004,-2.999,-3.0076,-2.9721,-2.8959,-2.9492,-2.954,-2.8595,-2.9144,-2.9232,-2.8454,-2.846,-2.8493,-2.8573,-2.8587,-2.8587,-2.8587,-2.8587,-2.8587,-2.8587,-2.8587,-2.8587,-2.8587,-2.8587,-2.8587,-2.8587,-2.8587,-2.8587,-2.8587,-2.8587,-2.8587,-2.8587,-2.8587,-2.8587,-2.856,-2.817,-2.7985,-2.7944,-2.7404,-2.7059,-2.6761,-2.6193,-2.559,-2.503,-2.4639,-2.4334,-2.3835,-2.2512,-2.2101,-2.1896,-2.0912,-2.1007,-2.1274,-2.0621,-2.0753,-2.0917,-2.0533,-2.0271,-2.0172,-2.0424,-2.0271,-2.0391,-2.1352,-2.12,-2.1124,-2.18,-2.1516,-2.1222,-2.1222,-2.097,-2.0696,-2.05,-2.0786,-2.1004,-2.1004,-2.1585,-2.2242,-2.2911,-2.3581,-2.4017,-2.4096,-2.4083,-2.4083,-2.4083,-2.4083,-2.4083,-2.4083,-2.4083,-2.4083,-2.4083,-2.4083,-2.4083,-2.4083,-2.4083,-2.4083,-2.2446,-2.291,-2.3374,-2.3278,-2.3112,-2.3141,-2.372,0.0,0.0,0.0,0.0,0.0,-2.5017,-2.5693,-2.6383,-2.7103,-2.7788,-2.8374,-2.8826,-2.9327,-2.9427,-2.8833,-2.9278,-2.9171,-2.8012,-2.8318,-2.8369,-2.7748,-2.7608,-2.7841,-2.8424,-2.8451,-2.8492,-2.8587,-2.8587,-2.8587,-2.8587,-2.8587,-2.8587,-2.8587,-2.8587,-2.8587,-2.8587,-2.8587,-2.8587,-2.8587,-2.8587,-2.8587,-2.8587,-2.8587,-2.8587,-2.8587,-2.8587,-2.8587,-2.8587,-2.8398,-2.8069,-2.7606,-2.7118,-2.6138,-2.5123,-2.5031,-2.4575,-2.3863,-2.2628,-2.2175,-2.1846,-2.0693,-2.106,-2.1694,-2.1051,-2.0984,-2.1073,-2.1027,-2.0544,-2.026,-2.0883,-2.0587,-2.063,-2.2015,-2.1647,-2.1408,-2.2269,-2.2018,-2.1701,-2.1701,-2.1636,-2.1509,-2.1217,-2.1071,-2.1037,-2.1162,-2.1531,-2.2105,-2.2866,-2.3369,-2.382,-2.421,-2.4164,-2.4083,-2.4083,-2.4083,-2.4083,-2.4083,-2.4083,-2.4083,-2.4083,-2.4083,-2.4083,-2.4083,-2.4083,-2.4083,-2.3054,-2.4191,-2.4838,-2.3344,-2.3385,-2.3704,-2.3263,0.0,0.0,0.0,0.0,0.0,0.0,-2.6351,-2.6979,-2.7664,-2.8346,-2.8818,-2.8889,-2.8975,-2.8951,-2.866,-2.8714,-2.8656,-2.8339,-2.798,-2.7744,-2.7623,-2.7199,-2.7186,-2.7813,-2.7841,-2.8071,-2.8573,-2.8587,-2.8587,-2.8587,-2.8587,-2.8587,-2.8587,-2.8587,-2.8587,-2.8587,-2.8587,-2.8587,-2.8587,-2.8587,-2.8587,-2.8587,-2.8587,-2.8587,-2.8587,-2.8587,-2.8587,-2.8587,-2.8554,-2.85,-2.8319,-2.7442,-2.6514,-2.5615,-2.5149,-2.455,-2.3882,-2.3178,-2.2561,-2.2011,-2.165,-2.1735,-2.1804,-2.1085,-2.1363,-2.1753,-2.1546,-2.0795,-2.0358,-2.1286,-2.1135,-2.1091,-2.2116,-2.2193,-2.2258,-2.2805,-2.251,-2.2204,-2.2204,-2.1854,-2.1792,-2.2366,-2.1876,-2.1738,-2.2355,-2.1968,-2.2162,-2.3469,-2.3192,-2.3516,-2.4771,-2.4387,-2.4083,-2.4083,-2.4083,-2.4083,-2.4083,-2.4083,-2.4083,-2.4083,-2.4083,-2.4083,-2.4083,-2.4083,-2.4083,-2.2615,-2.3883,-2.4901,-2.4472,-2.508,-2.5654,-2.5155,0.0,0.0,0.0,0.0,0.0,0.0,-2.6967,-2.768,-2.8439,-2.8739,-2.8904,-2.8904,-2.8803,-2.87,-2.8597,-2.8541,-2.8332,-2.7959,-2.744,-2.7111,-2.71,-2.6917,-2.6915,-2.7186,-2.7841,-2.8166,-2.8125,-2.8424,-2.8587,-2.8587,-2.8587,-2.8587,-2.8587,-2.8587,-2.8587,-2.8587,-2.8587,-2.8587,-2.8587,-2.8587,-2.8587,-2.8587,-2.8587,-2.8587,-2.8587,-2.8587,-2.8587,-2.8587,-2.8476,-2.8392,-2.8268,-2.7714,-2.6978,-2.6242,-2.6012,-2.5273,-2.4441,-2.3793,-2.3144,-2.2518,-2.1957,-2.2053,-2.2217,-2.1779,-2.1915,-2.2133,-2.2002,-2.1243,-2.0729,-2.1439,-2.1002,-2.0839,-2.2073,-2.2106,-2.216,-2.2881,-2.2826,-2.2684,-2.2684,-2.2828,-2.2975,-2.3087,-2.2786,-2.2855,-2.3625,-2.3018,-2.3144,-2.4545,-2.4423,-2.4335,-2.4497,-2.4256,-2.4083,-2.4083,-2.4083,-2.4083,-2.4083,-2.4083,-2.4083,-2.4083,-2.4083,-2.4083,-2.4083,-2.4083,-2.4083,-2.2107,-2.3376,-2.4646,-2.5293,0.0,-2.698,-2.6793,-2.6269,0.0,0.0,0.0,0.0,-2.6209,-2.696,-2.7832,-2.8636,-2.8802,-2.8826,-2.8826,-2.87,-2.8589,-2.8565,-2.8468,-2.821,-2.777,-2.7108,-2.6695,-2.6692,-2.6514,-2.6427,-2.6562,-2.761,-2.803,-2.7718,-2.8288,-2.8587,-2.8587,-2.8587,-2.8587,-2.8587,-2.8587,-2.8587,-2.8587,-2.8587,-2.8587,-2.8587,-2.8587,-2.8587,-2.8587,-2.8587,-2.8587,-2.8587,-2.8587,-2.8587,-2.8587,-2.8365,-2.8216,-2.8079,-2.7855,-2.74,-2.6831,-2.6569,-2.5905,-2.5055,-2.4415,-2.3789,-2.3176,-2.2764,-2.2725,-2.2707,-2.2383,-2.2421,-2.254,-2.248,-2.1734,-2.1222,-2.1789,-2.1254,-2.0979,-2.2237,-2.2171,-2.2149,-2.287,-2.3001,-2.3001,-2.3001,-2.3486,-2.3849,-2.3827,-2.3675,-2.3945,-2.4927,-2.4306,-2.4281,-2.5394,-2.566,-2.5352,-2.4383,-2.4321,-2.4256,-2.4096,-2.4083,-2.4083,-2.4083,-2.4083,-2.4083,-2.4083,-2.4083,-2.4083,-2.4083,-2.4083,-2.4083,-2.2107,-2.3376,-2.4599,-2.4963,-2.5607,0.0,-2.6542,-2.5778,0.0,-2.4729,0.0,-2.4539,-2.4724,-2.5771,-2.6867,-2.7671,-2.8272,-2.8621,-2.8621,-2.8597,-2.8549,-2.8436,-2.8411,-2.8372,-2.8348,-2.7352,-2.6707,-2.6698,-2.5716,-2.5371,-2.5928,-2.6592,-2.7159,-2.7691,-2.8288,-2.8587,-2.8587,-2.8587,-2.8587,-2.8587,-2.8587,-2.8587,-2.8587,-2.8587,-2.8587,-2.8587,-2.8587,-2.8587,-2.8587,-2.8587,-2.8587,-2.8587,-2.8587,-2.8587,-2.8587,-2.8365,-2.8216,-2.8079,-2.7855,-2.763,-2.7255,-2.6198,-2.5749,-2.5547,-2.506,-2.4381,-2.3973,-2.4942,-2.4318,-2.3186,-2.2471,-2.2818,-2.3275,-2.3022,-2.2226,-2.1789,-2.2706,-2.251,-2.2313,-2.2848,-2.2925,-2.2925,-2.299,-2.3001,-2.3001,-2.3001,-2.3038,-2.3559,-2.4969,-2.4506,-2.4601,-2.6111,-2.5603,-2.5244,-2.5465,-2.618,-2.6132,-2.5018,-2.494,-2.4661,-2.4109,-2.4083,-2.4083,-2.4083,-2.4083,-2.4083,-2.4083,-2.4083,-2.4083,-2.4083,-2.4083,-2.4083,-2.1397,-2.3359,-2.5205,-2.5345,-2.6079,0.0,0.0,-2.6503,-2.6743,-2.6382,-2.6587,-2.6764,-2.651,-2.7208,-2.7783,-2.7727,-2.8264,-2.8708,-2.8708,-2.866,-2.8573,-2.8541,-2.8444,-2.8235,-2.787,-2.7159,-2.6414,-2.5685,-2.5591,-2.5493,-2.5344,-2.628,-2.7064,-2.7691,-2.7922,-2.822,-2.8587,-2.8587,-2.8587,-2.8587,-2.8587,-2.8587,-2.8587,-2.8587,-2.8587,-2.8587,-2.8587,-2.8587,-2.8587,-2.8587,-2.8587,-2.8587,-2.8587,-2.8509,-2.8398,-2.8216,-2.8066,-2.7888,-2.7689,-2.7556,-2.7425,-2.6994,-2.6616,-2.6214,-2.567,-2.504,-2.4438,-2.3968,-2.367,-2.35,-2.3445,-2.329,-2.3128,-2.3032,-2.251,-2.2051,-2.2116,-2.1985,-2.192,-2.2084,-2.2368,-2.2663,-2.2957,-2.3001,-2.3001,-2.3001,-2.3386,-2.4059,-2.5158,-2.5052,-2.5417,-2.6939,-2.6837,-2.668,-2.6732,-2.7031,-2.687,-2.6117,-2.5398,-2.4743,-2.4109,-2.4083,-2.4083,-2.4083,-2.4083,-2.4083,-2.4083,-2.4083,-2.4083,-2.4083,-2.4083,-2.4083,-2.1329,-2.3359,-2.5372,-2.5828,0.0,0.0,-2.6376,-2.6681,-2.6973,-2.6778,-2.7103,-2.7373,-2.7241,-2.7605,-2.7837,-2.7627,-2.821,-2.8676,-2.8676,-2.8589,-2.8541,-2.8541,-2.846,-2.8235,-2.782,-2.7133,-2.6373,-2.5616,-2.5398,-2.5236,-2.5018,-2.5763,-2.6606,-2.7406,-2.761,-2.799,-2.8587,-2.8587,-2.8587,-2.8587,-2.8587,-2.8587,-2.8587,-2.8587,-2.8587,-2.8587,-2.8587,-2.8587,-2.8587,-2.8587,-2.8587,-2.8587,-2.8522,-2.843,-2.83,-2.8085,-2.7934,-2.7776,-2.7556,-2.7372,-2.7262,-2.7262,-2.6726,-2.6091,-2.6087,-2.5556,-2.4774,-2.3946,-2.3763,-2.3873,-2.3884,-2.3447,-2.3001,-2.3001,-2.2761,-2.2444,-2.2106,-2.192,-2.1865,-2.2007,-2.2193,-2.2466,-2.2925,-2.3001,-2.3075,-2.3313,-2.3768,-2.448,-2.5511,-2.5664,-2.6104,-2.7356,-2.749,-2.749,-2.749,-2.749,-2.721,-2.6452,-2.5667,-2.4988,-2.4413,-2.4217,-2.4083,-2.4083,-2.4083,-2.4083,-2.4083,-2.4083,-2.4083,-2.4083,-2.4083,-2.4083,-2.2107,-2.3376,-2.4863,0.0,0.0,0.0,-2.6955,-2.6037,-2.5004,-2.5259,-2.5327,-2.5564,-2.6272,-2.6418,-2.6626,-2.7288,-2.7965,-2.8411,-2.8411,-2.8411,-2.8411,-2.8411,-2.8411,-2.8411,-2.8387,-2.7378,-2.6689,-2.6689,-2.5061,-2.4353,-2.4964,-2.5005,-2.5575,-2.6766,-2.7406,-2.799,-2.8587,-2.8587,-2.8587,-2.8587,-2.8587,-2.8587,-2.8587,-2.8587,-2.8587,-2.8587,-2.8587,-2.8587,-2.8587,-2.8587,-2.8587,-2.8587,-2.8365,-2.8287,-2.8254,-2.7908,-2.7809,-2.7776,-2.7556,-2.7157,-2.6706,-2.6674,-2.5826,-2.5026,-2.6304,-2.5801,-2.4897,-2.5509,-2.5047,-2.423,-2.3549,-2.3201,-2.299,-2.3001,-2.3001,-2.3001,-2.299,-2.2641,-2.2455,-2.2903,-2.263,-2.2466,-2.2925,-2.3001,-2.325,-2.3975,-2.4108,-2.466,-2.6208,-2.6414,-2.6701,-2.7423,-2.749,-2.749,-2.749,-2.749,-2.7007,-2.5884,-2.5806,-2.5563,-2.5018,-2.4426,-2.4083,-2.4083,-2.4083,-2.4083,-2.4083,-2.4083,-2.4083,-2.4083,-2.4083,-2.4083,-2.2381,-2.4137,0.0,-2.659,0.0,0.0,0.0,-2.699,0.0,0.0,-2.7488,-2.7411,-2.7149,-2.7488,-2.7719,-2.7442,-2.7965,-2.8411,-2.8411,-2.8411,-2.8411,-2.8411,-2.8411,-2.8235,-2.782,-2.6745,-2.5734,-2.4946,-2.439,-2.4177,-2.4353,-2.5168,-2.6185,-2.7406,-2.7623,-2.799,-2.8587,-2.8587,-2.8587,-2.8587,-2.8587,-2.8587,-2.8587,-2.8587,-2.8587,-2.8587,-2.8587,-2.8587,-2.8587,-2.8587,-2.8587,-2.8587,-2.8365,-2.8235,-2.8131,-2.7888,-2.7723,-2.759,-2.7523,-2.7157,-2.6641,-2.616,-2.5458,-2.4791,-2.4811,-2.4223,-2.358,-2.3798,-2.3224,-2.2528,-2.2339,-2.2393,-2.2608,-2.2925,-2.3001,-2.2914,-2.2586,-2.2663,-2.2739,-2.2553,-2.2673,-2.2848,-2.2979,-2.3001,-2.325,-2.3975,-2.4108,-2.466,-2.6208,-2.6837,-2.7255,-2.7503,-2.749,-2.749,-2.749,-2.749,-2.7359,-2.7007,-2.6648,-2.5798,-2.4426,-2.4217,-2.4083,-2.4083,-2.4083,-2.4083,-2.4083,-2.4083,-2.4083,-2.4083,-2.4083,-2.4083,-2.3564,-2.5339,0.0,-2.752,-2.7943,-2.8157,-2.7736,-2.7485,-2.745,-2.7781,-2.7929,-2.7965,-2.7827,-2.7919,-2.7965,-2.7827,-2.815,-2.8411,-2.8411,-2.8411,-2.8411,-2.8411,-2.8411,-2.8162,-2.7565,-2.6468,-2.5423,-2.4532,-2.3787,-2.3581,-2.4069,-2.4571,-2.5493,-2.6945,-2.723,-2.7637,-2.8234,-2.8478,-2.8587,-2.8587,-2.8587,-2.8587,-2.8587,-2.8587,-2.8587,-2.8587,-2.8587,-2.8587,-2.8587,-2.8587,-2.8587,-2.8554,-2.8314,-2.8164,-2.8079,-2.7789,-2.759,-2.7464,-2.7275,-2.6817,-2.627,-2.5871,-2.4829,-2.3809,-2.4186,-2.3345,-2.2297,-2.2575,-2.2452,-2.2076,-2.1573,-2.2117,-2.2791,-2.2718,-2.287,-2.2881,-2.2411,-2.2531,-2.2652,-2.2331,-2.2775,-2.3237,-2.339,-2.3449,-2.3815,-2.4838,-2.5252,-2.5789,-2.6722,-2.7222,-2.749,-2.749,-2.749,-2.749,-2.749,-2.749,-2.7398,-2.721,-2.6902,-2.6112,-2.4814,-2.457,-2.4347,-2.4083,-2.4083,-2.4083,-2.4083,-2.4083,-2.4083,-2.4083,-2.4083,-2.4083,-2.5253,-2.6674,0.0,-2.8807,-2.8993,-2.8849,-2.827,-2.7522,-2.6957,-2.6977,-2.7221,-2.758,-2.8211,-2.7857,-2.7688,-2.8304,-2.8411,-2.8411,-2.8411,-2.8411,-2.8411,-2.8411,-2.8411,-2.8186,-2.7655,-2.6493,-2.5593,-2.5022,-2.3425,-2.2929,-2.396,-2.3649,-2.4191,-2.5846,-2.6497,-2.7077,-2.7691,-2.8234,-2.8546,-2.8587,-2.8587,-2.8587,-2.8587,-2.8587,-2.8587,-2.8587,-2.8587,-2.8587,-2.8587,-2.8587,-2.8587,-2.8554,-2.8243,-2.8112,-2.8046,-2.7636,-2.7464,-2.7346,-2.6857,-2.6269,-2.5715,-2.5652,-2.4029,-2.2406,-2.4141,-2.2923,-2.1163,-2.1966,-2.2418,-2.2418,-2.1374,-2.2246,-2.3248,-2.2453,-2.2637,-2.2889,-2.2411,-2.2382,-2.244,-2.244,-2.3063,-2.3709,-2.4148,-2.4228,-2.4696,-2.6161,-2.704,-2.749,-2.749,-2.749,-2.749,-2.749,-2.749,-2.749,-2.749,-2.749,-2.7301,-2.6811,-2.6784,-2.6491,-2.5897,-2.5301,-2.4756,-2.4204,-2.4122,-2.4083,-2.4083,-2.4083,-2.4083,-2.4083,-2.4083,-2.4083,-2.5676,-2.6674,0.0,-2.8807,-2.8993,-2.867,-2.7348,-2.681,-2.6675,-2.6946,-2.7221,-2.7442,-2.758,-2.7934,-2.8242,-2.8381,-2.8411,-2.8411,-2.8411,-2.8411,-2.8411,-2.8411,-2.8411,-2.8348,-2.821,-2.6758,-2.5556,-2.4964,-2.4159,-2.3608,-2.3405,-2.4639,-2.5493,-2.5873,-2.6497,-2.7077,-2.7691,-2.7841,-2.8125,-2.8587,-2.8587,-2.8587,-2.8587,-2.8587,-2.8587,-2.8587,-2.8587,-2.8587,-2.8587,-2.8587,-2.8587,-2.8554,-2.8243,-2.8112,-2.8046,-2.7636,-2.7249,-2.6876,-2.6745,-2.6039,-2.5084,-2.4548,-2.3344,-2.2273,-2.3181,-2.1981,-2.0786,-2.3008,-2.2604,-2.1623,-2.2425,-2.24,-2.2141,-2.1957,-2.2592,-2.3048,-2.2443,-2.3048,-2.3718,-2.3718,-2.4341,-2.4921,-2.5028,-2.504,-2.5358,-2.6242,-2.704,-2.749,-2.749,-2.749,-2.749,-2.749,-2.749,-2.749,-2.749,-2.749,-2.7438,-2.7353,-2.734,-2.7092,-2.6549,-2.5541,-2.494,-2.4822,-2.4347,-2.4083,-2.4083,-2.4083,-2.4083,-2.4083,-2.4083,-2.4083,-2.6133,0.0,0.0,-2.977,0.0,-2.879,-2.7994,-2.6881,-2.607,-2.6254,-2.6626,-2.6903,-2.6888,-2.7457,-2.7919,-2.7919,-2.8196,-2.8411,-2.8411,-2.8411,-2.8411,-2.8411,-2.8411,-2.8186,-2.7645,-2.6493,-2.5322,-2.4179,-2.3815,-2.354,-2.3228,-2.4353,-2.5168,-2.5453,-2.6063,-2.6524,-2.6837,-2.7135,-2.7447,-2.7746,-2.7746,-2.7895,-2.818,-2.8465,-2.8587,-2.8587,-2.8587,-2.8587,-2.8587,-2.8587,-2.8587,-2.8554,-2.8281,-2.8164,-2.8046,-2.7769,-2.7406,-2.7,-2.6452,-2.5876,-2.5258,-2.4322,-2.3369,-2.2652,-2.2985,-2.2132,-2.1345,-2.2738,-2.2604,-2.2132,-2.2531,-2.277,-2.2729,-2.2099,-2.2669,-2.3025,-2.1888,-2.3242,-2.4271,-2.2852,-2.4342,-2.5636,-2.5068,-2.5724,-2.6346,-2.638,-2.704,-2.749,-2.749,-2.749,-2.749,-2.749,-2.749,-2.749,-2.749,-2.749,-2.749,-2.749,-2.7275,-2.6987,-2.6719,-2.5607,-2.4992,-2.4992,-2.4413,-2.4083,-2.4083,-2.4083,-2.4083,-2.4083,-2.4083,-2.4083,-2.6488,0.0,-2.9314,-3.0666,-3.0008,-2.8959,-2.8824,-2.7136,-2.5596,-2.5521,-2.5884,-2.6195,-2.6142,-2.6734,-2.7226,-2.7226,-2.7796,-2.8227,-2.8227,-2.8334,-2.8411,-2.8411,-2.8411,-2.7999,-2.6938,-2.6301,-2.5292,-2.3628,-2.3512,-2.3472,-2.3364,-2.3933,-2.4462,-2.4991,-2.548,-2.5778,-2.5887,-2.6402,-2.6684,-2.6793,-2.6793,-2.705,-2.7569,-2.8058,-2.8397,-2.8587,-2.8587,-2.8587,-2.8587,-2.8587,-2.8587,-2.8554,-2.8189,-2.8085,-2.8033,-2.7571,-2.7399,-2.719,-2.6073,-2.5649,-2.5511,-2.4422,-2.3632,-2.3118,-2.325,-2.2725,-2.2132,-2.239,-2.2756,-2.2997,-2.2573,-2.3113,-2.3484,-2.2512,-2.2793,-2.2903,-2.1386,-2.3225,-2.4434,-2.1891,-2.4042,-2.5988,-2.4988,-2.6138,-2.7017,-2.6498,-2.694,-2.7385,-2.749,-2.749,-2.749,-2.749,-2.749,-2.749,-2.749,-2.749,-2.749,-2.749,-2.6987,-2.6706,-2.6706,-2.5607,-2.4992,-2.4992,-2.4413,-2.4083,-2.4083,-2.4083,-2.4083,-2.4083,-2.42,-2.4258,0.0,0.0,-2.9213,0.0,-2.9617,-2.8824,-2.8111,-2.6951,-2.5926,-2.5577,-2.5474,-2.5435,-2.5435,-2.6041,-2.6518,-2.6518,-2.7088,-2.7534,-2.7534,-2.8042,-2.8411,-2.8411,-2.8411,-2.8122,-2.7464,-2.6891,-2.6067,-2.4854,-2.4764,-2.4516,-2.4001,-2.4557,-2.4924,-2.5005,-2.5086,-2.5371,-2.5873,-2.5968,-2.6294,-2.6793,-2.6793,-2.6833,-2.6915,-2.6996,-2.7623,-2.8587,-2.8587,-2.8587,-2.8587,-2.8587,-2.8587,-2.849,-2.7484,-2.7497,-2.7914,-2.6363,-2.6217,-2.6654,-2.5515,-2.511,-2.5005,-2.4334,-2.3632,-2.3207,-2.3793,-2.307,-2.2329,-2.3526,-2.3471,-2.3207,-2.3704,-2.3113,-2.2482,-2.2877,-2.3008,-2.2796,-2.1893,-2.3262,-2.441,-2.3513,-2.4723,-2.5831,-2.5658,-2.5868,-2.6101,-2.6362,-2.6641,-2.6961,-2.7438,-2.749,-2.749,-2.749,-2.749,-2.749,-2.749,-2.749,-2.749,-2.749,-2.6987,-2.6706,-2.6706,-2.5607,-2.4992,-2.4992,-2.4413,-2.4083,-2.4083,-2.4083,-2.4083,-2.4112,-2.4649,-2.4863,-2.7537,-2.8485,-2.9281,0.0,-2.9669,-2.8678,-2.8688,-2.6989,-2.5483,-2.5691,-2.52,-2.4748,-2.4748,-2.5318,-2.578,-2.578,-2.6349,-2.6934,-2.7334,-2.7642,-2.798,-2.8365,-2.8097,-2.7655,-2.7108,-2.6561,-2.576,-2.4569,-2.4805,-2.4747,-2.4123,-2.4679,-2.5005,-2.5005,-2.5005,-2.5127,-2.5385,-2.5398,-2.5534,-2.5776,-2.5776,-2.5982,-2.6307,-2.6307,-2.6769,-2.7596,-2.7596,-2.7596,-2.7596,-2.7596,-2.7596,-2.7534,-2.6735,-2.6703,-2.699,-2.5923,-2.6039,-2.6549,-2.5398,-2.5214,-2.5301,-2.437,-2.3894,-2.3734,-2.4024,-2.3675,-2.3335,-2.3923,-2.3894,-2.3734,-2.4024,-2.3645,-2.3292,-2.3603,-2.3349,-2.3164,-2.361,-2.4523,-2.5189,-2.4936,-2.4836,-2.5029,-2.5665,-2.5793,-2.5845,-2.6046,-2.6138,-2.6399,-2.6974,-2.7053,-2.717,-2.7464,-2.749,-2.749,-2.749,-2.749,-2.749,-2.749,-2.6987,-2.6562,-2.6216,-2.5437,-2.4985,-2.5007,-2.4419,-2.4287,-2.4591,-2.4258,-2.4287,-2.4591,-2.4534,-2.4677,0.0,0.0,-2.9042,-3.0548,-2.9732,-2.8696,-2.9271,-2.7508,-2.5795,-2.5887,-2.5248,-2.4627,-2.4354,-2.4697,-2.505,-2.505,-2.5604,-2.6296,-2.7042,-2.7288,-2.7642,-2.8319,-2.7984,-2.7504,-2.6964,-2.6416,-2.5656,-2.4655,-2.4844,-2.4815,-2.434,-2.4774,-2.5005,-2.5005,-2.5005,-2.5005,-2.5005,-2.5005,-2.5005,-2.5005,-2.5005,-2.5236,-2.567,-2.567,-2.5914,-2.6345,-2.6657,-2.6793,-2.6793,-2.6793,-2.6793,-2.6732,-2.614,-2.5972,-2.599,-2.5428,-2.5645,-2.6077,-2.5114,-2.5132,-2.5432,-2.4439,-2.4083,-2.4083,-2.4083,-2.4083,-2.4083,-2.4083,-2.4083,-2.4083,-2.4083,-2.3953,-2.3933,-2.4266,-2.3705,-2.3465,-2.4808,-2.5224,-2.5423,-2.5722,-2.4823,-2.431,-2.5222,-2.5362,-2.5427,-2.561,-2.5715,-2.6086,-2.6791,-2.6883,-2.7053,-2.7451,-2.749,-2.749,-2.749,-2.749,-2.7438,-2.7327,-2.6778,-2.6203,-2.5628,-2.5053,-2.4839,-2.499,-2.4563,-2.4607,-2.5216,-2.4736,-2.4765,-2.5188,-2.4736,-2.4863,0.0,-2.7334,0.0,-2.9768,-2.9548,-2.905,-2.933,-2.8745,-2.7696,-2.6216,-2.5852,-2.5508,-2.4488,-2.4333,-2.4364,-2.4364,-2.4896,-2.5626,-2.6349,-2.6995,-2.7642,-2.8319,-2.8372,-2.8122,-2.7515,-2.6964,-2.6428,-2.5837,-2.53,-2.4991,-2.4951,-2.4991,-2.5005,-2.5005,-2.5005,-2.5005,-2.5005,-2.5005,-2.5005,-2.5005,-2.5005,-2.5032,-2.5059,-2.5059,-2.5073,-2.5168,-2.6291,-2.6793,-2.6793,-2.6793,-2.6793,-2.6718,-2.579,-2.5401,-2.5255,-2.448,-2.4476,-2.4843,-2.4322,-2.453,-2.494,-2.4321,-2.4083,-2.4083,-2.4083,-2.4083,-2.4083,-2.4083,-2.4083,-2.4083,-2.4083,-2.3632,-2.3449,-2.4658,-2.4017,-2.3419,-2.4551,-2.4457,-2.4436,-2.5595,-2.4892,-2.4106,-2.4174,-2.4174,-2.4439,-2.5132,-2.5545,-2.6198,-2.7307,-2.7451,-2.7464,-2.749,-2.749,-2.749,-2.749,-2.749,-2.7301,-2.6784,-2.6177,-2.5615,-2.507,-2.4465,-2.4429,-2.4977,-2.4977,-2.5216,-2.5769,-2.5742,-2.5742,-2.5769,-2.5742,-2.6041,0.0,0.0,0.0,-2.8174,-2.8438,-2.8693,-2.8952,-2.8253,-2.7361,-2.6778,-2.6046,-2.5273,-2.4446,-2.4302,-2.4302,-2.4302,-2.4502,-2.4902,-2.561,-2.6303,-2.7011,-2.7673,-2.7814,-2.7605,-2.7041,-2.6481,-2.5947,-2.537,-2.5118,-2.5005,-2.5005,-2.5005,-2.5005,-2.5005,-2.5005,-2.5005,-2.5005,-2.5005,-2.5005,-2.5005,-2.5005,-2.5005,-2.5005,-2.5005,-2.5005,-2.5032,-2.5466,-2.5627,-2.5627,-2.5627,-2.5627,-2.5598,-2.4942,-2.4511,-2.4184,-2.3974,-2.4073,-2.4286,-2.4136,-2.4491,-2.49,-2.4308,-2.4083,-2.4083,-2.4083,-2.4083,-2.4083,-2.4083,-2.4083,-2.4083,-2.4083,-2.3923,-2.3844,-2.4301,-2.4429,-2.4537,-2.4864,-2.504,-2.5076,-2.4771,-2.437,-2.4083,-2.4083,-2.4083,-2.4174,-2.4435,-2.4949,-2.5419,-2.5837,-2.6517,-2.6987,-2.6987,-2.7301,-2.749,-2.749,-2.749,-2.7288,-2.6745,-2.6847,-2.6507,-2.556,-2.5685,-2.5868,-2.6096,-2.6082,-2.619,-2.6377,-2.5987,-2.6014,-2.6363,-2.5987,-2.6122,-2.4797,0.0,0.0,-2.7353,-2.7507,-2.7921,-2.9091,-2.8361,-2.7454,-2.7454,-2.6492,-2.5419,-2.4758,-2.4456,-2.4302,-2.4302,-2.4302,-2.4527,-2.5204,-2.5733,-2.6364,-2.7288,-2.7439,-2.734,-2.7001,-2.6481,-2.592,-2.5342,-2.5118,-2.5005,-2.5005,-2.5005,-2.5005,-2.5005,-2.5005,-2.5005,-2.5005,-2.5005,-2.5005,-2.5005,-2.5005,-2.5005,-2.5005,-2.5005,-2.5005,-2.5005,-2.5005,-2.5005,-2.5005,-2.5005,-2.492,-2.4736,-2.4593,-2.393,-2.31,-2.356,-2.3593,-2.3387,-2.3671,-2.417,-2.4622,-2.4243,-2.4083,-2.4083,-2.4083,-2.4083,-2.4083,-2.4083,-2.4083,-2.4083,-2.4083,-2.4256,-2.4347,-2.4164,-2.4779,-2.5275,-2.4792,-2.5132,-2.5367,-2.4775,-2.4344,-2.4178,-2.4374,-2.4243,-2.4178,-2.4374,-2.4756,-2.507,-2.5267,-2.5916,-2.6386,-2.6386,-2.6896,-2.7236,-2.7236,-2.7385,-2.7163,-2.6438,-2.6961,-2.6762,-2.5587,-2.609,-2.6479,-2.6709,-2.6709,-2.6814,-2.6997,-2.6602,-2.6602,-2.6997,-2.639,-2.631,0.0,0.0,0.0,-2.7299,-2.6886,-2.6866,-2.9698,-2.9167,-2.806,-2.806,-2.7125,-2.6096,-2.545,-2.4789,-2.4364,-2.4333,-2.4317,-2.4533,-2.5173,-2.5281,-2.5826,-2.7211,-2.738,-2.7429,-2.7505,-2.7016,-2.6493,-2.5947,-2.5342,-2.4992,-2.4979,-2.4978,-2.4978,-2.4978,-2.4991,-2.5005,-2.5005,-2.5005,-2.5005,-2.5005,-2.5005,-2.5005,-2.5005,-2.5005,-2.5005,-2.5005,-2.5005,-2.5005,-2.5005,-2.5005,-2.4736,-2.4379,-2.4835,-2.3741,-2.2063,-2.319,-2.2967,-2.2194,-2.2877,-2.3531,-2.4083,-2.4083,-2.4083,-2.4083,-2.4083,-2.4083,-2.4083,-2.4083,-2.4083,-2.4083,-2.4083,-2.4517,-2.4835,-2.4243,-2.4931,-2.544,-2.4331,-2.4557,-2.5136,-2.5636,-2.4853,-2.4295,-2.4874,-2.4491,-2.4308,-2.4887,-2.4992,-2.5188,-2.5707,-2.5767,-2.578,-2.5767,-2.6321,-2.6706,-2.6706,-2.7183,-2.7027,-2.589,-2.6404,-2.6212,-2.5116,-2.5564,-2.6122,-2.6736,-2.6736,-2.7008,-2.76,-2.76,-2.76,-2.76,-2.6997,-2.6736,-2.3091,0.0,0.0,0.0,0.0,0.0,-2.6891,-2.7146,-2.7391,-2.7391,-2.6851,-2.6318,-2.6134,-2.5933,-2.5641,-2.5118,-2.4625,-2.4364,-2.4564,-2.4989,-2.5641,-2.6565,-2.7088,-2.7429,-2.7505,-2.7363,-2.6865,-2.5833,-2.5297,-2.4756,-2.4246,-2.4313,-2.434,-2.434,-2.4774,-2.5005,-2.5005,-2.5005,-2.5005,-2.5005,-2.5005,-2.5005,-2.5005,-2.5005,-2.5005,-2.5005,-2.5005,-2.5005,-2.5005,-2.5005,-2.492,-2.4793,-2.4835,-2.3842,-2.2482,-2.3135,-2.2834,-2.2194,-2.2877,-2.3531,-2.4083,-2.4083,-2.4083,-2.4083,-2.4083,-2.4083,-2.4083,-2.4083,-2.4083,-2.4083,-2.4083,-2.423,-2.4321,-2.4122,-2.4331,-2.4475,-2.4161,-2.4243,-2.44,-2.4527,-2.4305,-2.4164,-2.4321,-2.4217,-2.4178,-2.4321,-2.473,-2.4913,-2.4622,-2.5284,-2.5667,-2.5249,-2.6117,-2.6706,-2.6706,-2.7256,-2.7238,-2.6501,-2.7024,-2.7015,-2.6245,-2.68,-2.7163,-2.7357,-2.7357,-2.7433,-2.76,-2.76,-2.76,-2.76,-2.7433,-2.7357,-2.3646,-2.4695,-2.5915,-2.4531,0.0,0.0,-2.6327,-2.6186,-2.6219,-2.73,-2.6914,-2.6495,-2.6787,-2.6603,-2.6257,-2.5826,-2.5426,-2.5072,-2.4758,-2.4804,-2.5272,-2.6272,-2.6734,-2.6894,-2.6686,-2.7161,-2.6876,-2.539,-2.512,-2.4579,-2.3658,-2.3686,-2.3838,-2.4082,-2.4435,-2.4761,-2.5005,-2.5005,-2.5005,-2.5005,-2.5005,-2.5005,-2.5005,-2.5005,-2.5005,-2.5005,-2.5005,-2.5005,-2.5005,-2.5005,-2.4863,-2.465,-2.475,-2.3901,-2.2652,-2.3135,-2.2985,-2.2561,-2.2967,-2.3531,-2.4083,-2.4083,-2.4083,-2.4083,-2.4083,-2.4083,-2.4083,-2.4083,-2.4083,-2.4083,-2.4083,-2.4083,-2.4083,-2.4083,-2.4083,-2.4083,-2.4083,-2.4083,-2.4178,-2.4426,-2.4282,-2.4191,-2.4426,-2.4282,-2.4083,-2.4083,-2.44,-2.4491,-2.4164,-2.467,-2.4988,-2.4648,-2.545,-2.6204,-2.6711,-2.7037,-2.7196,-2.7129,-2.7428,-2.7335,-2.6724,-2.728,-2.76,-2.76,-2.76,-2.76,-2.76,-2.76,-2.76,-2.76,-2.76,-2.76,-2.4728,-2.5152,-2.5848,-2.5843,-2.4865,0.0,-2.672,-2.5729,-2.4921,-2.7117,-2.6823,-2.6364,-2.7042,-2.6795,-2.6441,-2.6287,-2.6418,-2.6257,-2.5533,-2.4918,-2.5025,-2.6349,-2.6503,-2.6291,-2.5768,-2.6795,-2.6723,-2.4903,-2.4819,-2.4339,-2.3169,-2.3144,-2.3403,-2.3879,-2.396,-2.4286,-2.4896,-2.491,-2.4937,-2.5005,-2.5005,-2.5005,-2.5005,-2.5005,-2.5005,-2.5005,-2.5005,-2.5005,-2.5005,-2.5005,-2.4679,-2.4247,-2.4635,-2.393,-2.2743,-2.3135,-2.3195,-2.3088,-2.3088,-2.3531,-2.4083,-2.4083,-2.4083,-2.4083,-2.4083,-2.4083,-2.4083,-2.4083,-2.4083,-2.4083,-2.4083,-2.4083,-2.4083,-2.4083,-2.4083,-2.4083,-2.4083,-2.4083,-2.4269,-2.4809,-2.4465,-2.4282,-2.4822,-2.4452,-2.4083,-2.4083,-2.4083,-2.4083,-2.4083,-2.4083,-2.4083,-2.4083,-2.4681,-2.5508,-2.6592,-2.675,-2.7035,-2.7666,-2.7636,-2.737,-2.6829,-2.7306,-2.76,-2.76,-2.76,-2.76,-2.76,-2.76,-2.76,-2.76,-2.76,-2.76,-2.4863,-2.5913,-2.6876,-2.4846,-2.5615,0.0,-2.4254,-2.4061,-2.4292,-2.4261,-2.4493,-2.4918,-2.5595,-2.6534,-2.6826,-2.5703,-2.6472,-2.6965,-2.6272,-2.6057,-2.6287,-2.7103,-2.7196,-2.7172,-2.7041,-2.727,-2.681,-2.5302,-2.438,-2.3429,-2.2454,-2.2867,-2.2989,-2.2658,-2.312,-2.3676,-2.4258,-2.4272,-2.4502,-2.5005,-2.5005,-2.5005,-2.5005,-2.5005,-2.5005,-2.5005,-2.5005,-2.5005,-2.5005,-2.5005,-2.492,-2.4806,-2.4706,-2.4118,-2.3386,-2.3207,-2.3118,-2.3088,-2.3088,-2.3531,-2.4083,-2.4083,-2.4083,-2.4083,-2.4083,-2.4083,-2.4083,-2.4083,-2.4083,-2.4083,-2.4083,-2.4083,-2.4083,-2.4083,-2.4083,-2.4083,-2.4083,-2.4083,-2.4122,-2.4256,-2.4191,-2.4122,-2.4269,-2.4191,-2.4083,-2.4083,-2.4083,-2.4083,-2.4083,-2.4083,-2.4083,-2.4083,-2.5039,-2.5754,-2.598,-2.689,-2.7495,-2.7606,-2.7604,-2.7542,-2.7423,-2.7549,-2.76,-2.76,-2.76,-2.76,-2.76,-2.76,-2.76,-2.76,-2.76,-2.76,-2.5912,-2.6404,-2.6994,-2.5843,-2.5832,0.0,0.0,-2.4095,-2.3902,-2.4241,-2.4302,-2.4502,-2.5173,-2.561,-2.5733,-2.5358,-2.6211,-2.678,-2.6464,-2.6364,-2.6611,-2.7319,-2.7396,-2.7257,-2.6919,-2.7503,-2.7363,-2.6039,-2.5115,-2.4125,-2.3105,-2.3321,-2.3253,-2.2729,-2.2983,-2.3324,-2.3649,-2.3947,-2.4245,-2.4557,-2.4869,-2.5005,-2.5005,-2.5005,-2.5005,-2.5005,-2.5005,-2.5005,-2.4977,-2.492,-2.4892,-2.4863,-2.4677,-2.429,-2.3822,-2.3662,-2.3603,-2.3603,-2.3603,-2.3822,-2.4083,-2.4083,-2.4083,-2.4083,-2.4083,-2.4083,-2.4083,-2.4083,-2.4083,-2.4083,-2.4083,-2.4083,-2.4083,-2.4083,-2.4083,-2.4083,-2.4083,-2.4083,-2.4083,-2.4083,-2.4083,-2.4083,-2.4083,-2.4083,-2.4083,-2.4083,-2.4083,-2.4083,-2.4083,-2.4361,-2.4563,-2.4563,-2.5293,-2.6063,-2.668,-2.6995,-2.7426,-2.8057,-2.778,-2.76,-2.76,-2.76,-2.76,-2.76,-2.76,-2.76,-2.76,-2.76,-2.76,-2.76,-2.76,-2.76,-2.686,-2.6928,-2.7112,-2.7007,-2.6147,-2.5382,0.0,0.0,0.0,-2.4564,-2.4374,-2.4271,-2.4825,-2.4594,-2.442,-2.4835,-2.5518,-2.598,-2.5973,-2.6028,-2.635,-2.708,-2.7426,-2.7272,-2.6434,-2.7234,-2.7446,-2.6609,-2.5937,-2.5173,-2.4271,-2.4022,-2.3659,-2.3146,-2.2874,-2.2854,-2.3025,-2.3635,-2.3987,-2.4109,-2.472,-2.5005,-2.5005,-2.5005,-2.5005,-2.5005,-2.5005,-2.5005,-2.4977,-2.4863,-2.4778,-2.475,-2.4607,-2.439,-2.4141,-2.4112,-2.4083,-2.4083,-2.4083,-2.4083,-2.4083,-2.4083,-2.4083,-2.4083,-2.4083,-2.4083,-2.4083,-2.4083,-2.4083,-2.4083,-2.4083,-2.4083,-2.4083,-2.4083,-2.4083,-2.4083,-2.4083,-2.42,-2.4287,-2.4287,-2.4361,-2.4361,-2.4141,-2.4083,-2.4083,-2.4083,-2.42,-2.4287,-2.4287,-2.4778,-2.516,-2.516,-2.5646,-2.6375,-2.742,-2.7132,-2.7295,-2.8342,-2.7899,-2.76,-2.76,-2.76,-2.76,-2.76,-2.76,-2.76,-2.76,-2.76,-2.76,-2.76,-2.76,-2.76,-2.6708,-2.7706,-2.8328,-2.6643,-2.7292,-2.7583,-2.477,0.0,-2.3887,-2.284,0.0,-2.344,-2.3517,0.0,0.0,-2.3609,-2.4102,-2.4527,-2.4474,-2.4958,-2.5586,-2.626,-2.7479,-2.7733,-2.6352,-2.5882,-2.5881,-2.6374,-2.5737,-2.5354,-2.5397,-2.4458,-2.3683,-2.3195,-2.2156,-2.1852,-2.2414,-2.2998,-2.3581,-2.4109,-2.472,-2.5005,-2.5005,-2.5005,-2.5005,-2.5005,-2.5005,-2.5005,-2.4977,-2.4863,-2.4734,-2.4607,-2.4421,-2.4321,-2.4276,-2.4128,-2.4083,-2.4083,-2.4083,-2.4083,-2.4083,-2.4083,-2.4083,-2.4083,-2.4083,-2.4083,-2.4083,-2.4083,-2.4083,-2.4083,-2.4083,-2.4083,-2.4083,-2.4083,-2.4083,-2.4083,-2.4083,-2.4534,-2.4892,-2.4892,-2.5286,-2.5273,-2.4274,-2.4083,-2.4083,-2.4083,-2.4563,-2.4892,-2.4892,-2.537,-2.5715,-2.5715,-2.6229,-2.6645,-2.6796,-2.7248,-2.7554,-2.7705,-2.7645,-2.76,-2.76,-2.76,-2.76,-2.76,-2.76,-2.76,-2.76,-2.76,-2.76,-2.76,-2.76,-2.76,-2.681,-2.7165,-2.757,-2.7176,-2.7151,-2.6924,-2.5725,-2.5041,-2.4422,-2.3623,0.0,0.0,0.0,0.0,0.0,0.0,-2.3286,-2.3554,-2.3105,-2.3942,-2.4991,-2.5978,-2.6626,-2.6948,-2.6803,-2.6535,-2.6727,-2.7503,-2.6834,-2.6466,-2.6641,-2.6196,-2.5227,-2.3664,-2.3117,-2.2504,-2.1789,-2.2386,-2.2971,-2.3594,-2.4177,-2.4666,-2.5005,-2.5005,-2.5005,-2.5005,-2.5005,-2.5005,-2.4977,-2.4778,-2.4649,-2.4563,-2.4303,-2.4173,-2.4187,-2.4112,-2.4083,-2.4083,-2.4083,-2.4083,-2.4083,-2.4083,-2.4083,-2.4083,-2.4083,-2.4083,-2.4083,-2.4083,-2.4083,-2.4083,-2.4083,-2.4083,-2.4083,-2.4083,-2.4083,-2.4083,-2.4083,-2.4563,-2.5005,-2.5005,-2.5425,-2.566,-2.5175,-2.509,-2.509,-2.509,-2.5314,-2.5453,-2.5453,-2.596,-2.631,-2.631,-2.6852,-2.7229,-2.7229,-2.7458,-2.76,-2.76,-2.76,-2.76,-2.76,-2.76,-2.76,-2.76,-2.76,-2.76,-2.76,-2.76,-2.76,-2.76,-2.7675,-2.7675,-2.6843,-2.6843,-2.708,-2.7418,-2.6848,-2.6248,-2.6292,-2.5484,-2.4639,-2.4364,-2.3917,0.0,0.0,0.0,-2.2501,-2.2336,0.0,-2.2601,-2.2194,-2.2816,-2.3768,-2.4984,-2.5447,-2.5978,-2.6794,-2.6711,-2.7017,-2.801,-2.737,-2.7141,-2.7657,-2.7355,-2.6399,-2.4693,-2.4163,-2.324,-2.1911,-2.2311,-2.2663,-2.2971,-2.373,-2.4326,-2.4774,-2.4924,-2.5005,-2.5005,-2.5005,-2.5005,-2.4977,-2.4706,-2.4591,-2.4563,-2.4229,-2.4083,-2.4083,-2.4083,-2.4083,-2.4083,-2.4083,-2.4083,-2.4083,-2.4083,-2.4083,-2.4083,-2.4083,-2.4083,-2.4083,-2.4083,-2.4083,-2.4083,-2.4083,-2.4083,-2.4083,-2.4083,-2.4229,-2.4332,-2.4332,-2.4948,-2.5467,-2.5467,-2.5906,-2.6295,-2.6295,-2.6027,-2.5783,-2.5783,-2.5933,-2.6041,-2.6041,-2.6575,-2.6945,-2.6945,-2.7331,-2.76,-2.76,-2.76,-2.76,-2.76,-2.76,-2.76,-2.76,-2.76,-2.76,-2.76,-2.76,-2.7625,-2.765,-2.765,-2.7675,-2.77,-2.7765,-2.7765,-2.6725,-2.7232,-2.7604,-2.6911,-2.6651,-2.6416,-2.5697,-2.4899,-2.4317,-2.4302,-2.4287,-2.4271,-2.4271,-2.3717,-2.3055,-2.2413,-2.1781,0.0,0.0,-2.1478,-2.1546,-2.2762,-2.4059,-2.5145,-2.5963,-2.5447,-2.5659,-2.714,-2.6619,-2.6865,-2.828,-2.7258,-2.66,-2.6531,-2.482,-2.3645,-2.3142,-2.3108,-2.2804,-2.2346,-2.3527,-2.4109,-2.415,-2.4747,-2.5005,-2.5005,-2.5005,-2.5005,-2.4977,-2.4706,-2.4591,-2.4563,-2.4229,-2.4083,-2.4083,-2.4083,-2.4083,-2.4083,-2.4083,-2.4083,-2.4083,-2.4083,-2.4083,-2.4083,-2.4083,-2.4083,-2.4083,-2.4083,-2.4083,-2.4083,-2.4083,-2.4083,-2.4083,-2.4083,-2.4563,-2.4977,-2.4977,-2.5838,-2.6657,-2.6657,-2.7126,-2.7534,-2.7534,-2.6561,-2.5783,-2.5783,-2.6283,-2.6669,-2.6669,-2.7203,-2.7575,-2.7575,-2.76,-2.76,-2.76,-2.76,-2.76,-2.76,-2.76,-2.76,-2.76,-2.76,-2.76,-2.76,-2.76,-2.765,-2.779,-2.779,-2.7855,-2.798,-2.7855,-2.779,-2.6691,-2.6877,-2.7012,-2.6759,-2.6148,-2.5592,-2.5529,-2.4732,-2.4092,-2.4271,-2.4302,-2.4302,-2.4302,-2.4117,-2.3748,-2.3071,-2.2705,-2.2225,0.0,-2.1031,-2.0948,-2.1364,-2.3017,-2.4428,-2.5153,-2.5083,-2.5598,-2.7086,-2.6589,-2.6834,-2.8334,-2.8021,-2.7428,-2.663,-2.5571,-2.4599,-2.3659,-2.2904,-2.2618,-2.2828,-2.2879,-2.3106,-2.3527,-2.4123,-2.4394,-2.4421,-2.4842,-2.5005,-2.4977,-2.4706,-2.4591,-2.4563,-2.4229,-2.4083,-2.4083,-2.4083,-2.4083,-2.4083,-2.4083,-2.4083,-2.4083,-2.4083,-2.4083,-2.4083,-2.4083,-2.4083,-2.4083,-2.4083,-2.4083,-2.4083,-2.4083,-2.4083,-2.4083,-2.4083,-2.4258,-2.4505,-2.492,-2.5591,-2.6229,-2.6616,-2.7178,-2.76,-2.76,-2.7265,-2.6993,-2.6993,-2.7163,-2.7306,-2.7306,-2.7458,-2.76,-2.76,-2.76,-2.76,-2.76,-2.76,-2.76,-2.76,-2.76,-2.76,-2.76,-2.76,-2.76,-2.76,-2.7675,-2.7765,-2.779,-2.7905,-2.7955,-2.7995,-2.8039,-2.8014,-2.6691,-2.6691,-2.6691,-2.6691,-2.6067,-2.5455,-2.5482,-2.4846,-2.4249,-2.4292,-2.4302,-2.4302,-2.4302,-2.4302,-2.4087,-2.3409,-2.3227,-2.2653,0.0,-2.082,-2.0703,-2.0703,-2.2294,-2.3595,-2.4038,-2.4381,-2.5204,-2.6719,-2.6665,-2.7095,-2.8326,-2.8642,-2.8174,-2.6916,-2.6235,-2.534,-2.4149,-2.3186,-2.281,-2.3022,-2.2717,-2.2787,-2.3187,-2.3579,-2.3892,-2.4109,-2.4272,-2.4597,-2.4907,-2.445,-2.4363,-2.4463,-2.42,-2.4083,-2.4083,-2.4083,-2.4083,-2.4083,-2.4083,-2.4083,-2.4083,-2.4083,-2.4083,-2.4083,-2.4083,-2.4083,-2.4083,-2.4083,-2.4083,-2.4083,-2.4083,-2.4083,-2.4141,-2.4361,-2.4563,-2.4878,-2.5453,-2.6041,-2.6549,-2.693,-2.7331,-2.76,-2.76,-2.76,-2.76,-2.76,-2.76,-2.76,-2.76,-2.76,-2.76,-2.76,-2.76,-2.76,-2.76,-2.76,-2.76,-2.76,-2.76,-2.76,-2.76,-2.76,-2.7625,-2.7675,-2.7765,-2.784,-2.794,-2.8029,-2.8186,-2.8389,-2.8308,-2.8308]},{"header":{"parameterUnit":"m.s-1","parameterCategory":1,"la1":30.6,"la2":29.2853,"lo1":-89.7004,"lo2":-87.6739,"dy":0.0162,"dx":0.0183,"nx":112,"ny":82,"refTime":"2024-07-19T06:00:00:Z","depth":0,"parameterNumber":3,"parameterNumberName":"V-component_of_WINDS"},"data":[0.0,0.0,0.0,0.0,0.0,0.0,0.0,0.0,0.0,0.0,0.0,0.0,0.0,0.0,0.0,0.0,0.0,0.0,0.0,0.0,0.0,0.0,0.0,0.0,0.0,0.0,0.0,0.0,0.0,0.0,0.0,0.0,0.0,0.0,0.0,0.0,0.0,0.0,0.0,0.0,0.0,0.0,0.0,0.0,0.0,0.0,0.0,0.0,0.0,0.0,0.0,0.0,0.0,0.0,0.0,0.0,0.0,0.0,0.0,0.0,0.0,0.0,0.0,0.0,0.0,0.0,0.0,0.0,0.0,0.0,0.0,0.0,0.0,0.0,0.0,0.0,0.0,0.0,0.0,0.0,0.0,0.0,0.0,0.0,0.0,0.0,0.0,0.0,0.0,0.0,-1.4727,-1.4723,-1.5119,-1.5391,-1.541,-1.541,-1.502,-1.4163,0.0,0.0,0.0,0.0,0.0,0.0,0.0,0.0,0.0,0.0,0.0,0.0,0.0,0.0,0.0,0.0,0.0,0.0,0.0,0.0,0.0,0.0,0.0,0.0,0.0,0.0,0.0,0.0,0.0,0.0,0.0,0.0,0.0,0.0,0.0,0.0,0.0,0.0,0.0,0.0,0.0,0.0,0.0,0.0,0.0,0.0,0.0,0.0,0.0,0.0,0.0,0.0,0.0,0.0,0.0,0.0,0.0,0.0,0.0,0.0,0.0,0.0,0.0,0.0,0.0,0.0,0.0,0.0,0.0,0.0,0.0,0.0,0.0,0.0,0.0,0.0,0.0,0.0,0.0,0.0,0.0,0.0,0.0,0.0,0.0,0.0,0.0,0.0,0.0,0.0,0.0,0.0,0.0,0.0,0.0,0.0,0.0,0.0,0.0,0.0,0.0,0.0,0.0,0.0,-1.5333,-1.5292,-1.5245,-1.5284,-1.5381,-1.541,-1.502,-1.4163,0.0,0.0,0.0,0.0,0.0,0.0,0.0,0.0,0.0,0.0,0.0,0.0,0.0,0.0,0.0,0.0,0.0,0.0,0.0,0.0,0.0,0.0,0.0,0.0,0.0,0.0,0.0,0.0,0.0,0.0,0.0,0.0,0.0,0.0,0.0,0.0,0.0,0.0,0.0,0.0,0.0,0.0,0.0,0.0,0.0,0.0,0.0,0.0,0.0,0.0,0.0,0.0,0.0,0.0,0.0,0.0,0.0,0.0,0.0,0.0,0.0,0.0,0.0,0.0,0.0,0.0,0.0,0.0,0.0,0.0,0.0,0.0,0.0,0.0,0.0,0.0,0.0,0.0,0.0,0.0,0.0,0.0,0.0,0.0,0.0,0.0,0.0,0.0,0.0,0.0,0.0,0.0,0.0,0.0,0.0,0.0,0.0,0.0,0.0,0.0,0.0,0.0,0.0,-1.5531,-1.5604,-1.5869,-1.5526,-1.5478,-1.5864,-1.5575,-1.502,-1.4163,-1.437,0.0,0.0,0.0,0.0,0.0,0.0,0.0,0.0,0.0,0.0,0.0,0.0,0.0,0.0,0.0,0.0,0.0,0.0,0.0,0.0,0.0,0.0,0.0,0.0,0.0,0.0,0.0,0.0,0.0,0.0,0.0,0.0,0.0,0.0,0.0,0.0,0.0,0.0,0.0,0.0,0.0,0.0,0.0,0.0,0.0,0.0,0.0,0.0,0.0,0.0,0.0,0.0,0.0,0.0,0.0,0.0,0.0,0.0,0.0,0.0,0.0,0.0,0.0,0.0,0.0,0.0,0.0,0.0,0.0,0.0,0.0,0.0,0.0,0.0,0.0,0.0,0.0,0.0,0.0,0.0,0.0,0.0,0.0,0.0,0.0,0.0,0.0,0.0,0.0,0.0,0.0,0.0,0.0,0.0,0.0,0.0,0.0,0.0,0.0,0.0,0.0,0.0,-1.5714,-1.5901,-1.6458,-1.6112,-1.5997,-1.6472,-1.5963,-1.5269,-1.4367,-1.4576,0.0,0.0,0.0,0.0,0.0,0.0,0.0,0.0,0.0,0.0,0.0,0.0,0.0,0.0,0.0,0.0,0.0,0.0,0.0,0.0,0.0,0.0,0.0,0.0,0.0,0.0,0.0,0.0,0.0,0.0,0.0,0.0,0.0,0.0,0.0,0.0,0.0,0.0,0.0,0.0,0.0,0.0,0.0,0.0,0.0,0.0,0.0,0.0,0.0,0.0,0.0,0.0,0.0,0.0,0.0,0.0,0.0,0.0,0.0,0.0,0.0,0.0,0.0,0.0,0.0,0.0,0.0,0.0,0.0,0.0,0.0,0.0,0.0,0.0,0.0,0.0,0.0,0.0,0.0,0.0,0.0,0.0,0.0,0.0,0.0,0.0,0.0,0.0,0.0,0.0,0.0,0.0,0.0,0.0,0.0,0.0,0.0,0.0,0.0,0.0,0.0,0.0,-1.6332,-1.6458,-1.7062,-1.709,-1.709,-1.7146,-1.6634,-1.5919,-1.5013,-1.4512,0.0,0.0,0.0,0.0,0.0,0.0,0.0,0.0,0.0,0.0,0.0,0.0,0.0,0.0,0.0,0.0,0.0,0.0,0.0,0.0,0.0,0.0,0.0,0.0,0.0,0.0,0.0,0.0,0.0,0.0,0.0,0.0,0.0,0.0,0.0,0.0,0.0,0.0,0.0,0.0,0.0,0.0,0.0,0.0,0.0,0.0,0.0,0.0,0.0,0.0,0.0,0.0,0.0,0.0,0.0,0.0,0.0,0.0,0.0,0.0,0.0,0.0,0.0,0.0,0.0,0.0,0.0,0.0,0.0,0.0,0.0,0.0,0.0,0.0,0.0,0.0,0.0,0.0,0.0,0.0,0.0,0.0,0.0,0.0,0.0,0.0,0.0,0.0,0.0,0.0,0.0,0.0,0.0,0.0,0.0,0.0,0.0,0.0,0.0,0.0,0.0,0.0,-1.6744,-1.7146,-1.7704,-1.7424,-1.7341,-1.7727,-1.723,-1.6493,-1.5543,0.0,0.0,0.0,0.0,0.0,0.0,0.0,0.0,0.0,0.0,0.0,0.0,0.0,0.0,0.0,0.0,0.0,0.0,0.0,0.0,0.0,0.0,0.0,0.0,0.0,0.0,0.0,0.0,0.0,0.0,0.0,0.0,0.0,0.0,0.0,0.0,0.0,0.0,0.0,0.0,0.0,0.0,0.0,0.0,0.0,0.0,0.0,0.0,0.0,0.0,0.0,0.0,0.0,0.0,0.0,0.0,0.0,0.0,0.0,0.0,0.0,0.0,0.0,0.0,0.0,0.0,0.0,0.0,0.0,0.0,0.0,0.0,0.0,0.0,0.0,0.0,0.0,0.0,0.0,0.0,0.0,0.0,0.0,0.0,0.0,0.0,0.0,0.0,0.0,0.0,0.0,0.0,0.0,0.0,0.0,0.0,0.0,0.0,0.0,0.0,0.0,0.0,-1.6777,-1.7252,-1.7767,-1.834,-1.8011,-1.7929,-1.8348,-1.7687,-1.6931,-1.6142,0.0,0.0,0.0,0.0,0.0,0.0,0.0,0.0,0.0,0.0,0.0,0.0,0.0,0.0,0.0,0.0,0.0,0.0,0.0,0.0,0.0,0.0,0.0,0.0,0.0,0.0,0.0,0.0,0.0,0.0,0.0,0.0,0.0,0.0,0.0,0.0,0.0,0.0,0.0,0.0,0.0,0.0,0.0,0.0,0.0,0.0,0.0,0.0,0.0,0.0,0.0,0.0,0.0,0.0,0.0,0.0,0.0,0.0,0.0,0.0,0.0,0.0,0.0,0.0,0.0,0.0,0.0,0.0,0.0,0.0,0.0,0.0,0.0,0.0,0.0,0.0,0.0,0.0,0.0,0.0,0.0,0.0,0.0,0.0,0.0,0.0,0.0,0.0,0.0,0.0,0.0,0.0,0.0,0.0,0.0,0.0,0.0,0.0,0.0,0.0,0.0,0.0,-1.7314,-1.7824,-1.8348,-1.8934,-1.8987,-1.8987,-1.8987,-1.8025,-1.7216,0.0,0.0,0.0,0.0,0.0,0.0,0.0,0.0,0.0,0.0,0.0,0.0,0.0,0.0,0.0,0.0,0.0,0.0,0.0,0.0,0.0,0.0,0.0,0.0,0.0,0.0,0.0,0.0,0.0,0.0,0.0,0.0,0.0,0.0,0.0,0.0,0.0,0.0,0.0,0.0,0.0,0.0,0.0,0.0,0.0,0.0,0.0,0.0,0.0,0.0,0.0,0.0,0.0,0.0,0.0,0.0,0.0,0.0,0.0,0.0,0.0,0.0,0.0,0.0,0.0,0.0,0.0,0.0,0.0,0.0,0.0,0.0,0.0,0.0,0.0,0.0,0.0,0.0,0.0,0.0,0.0,0.0,0.0,0.0,0.0,0.0,0.0,0.0,0.0,0.0,0.0,0.0,0.0,0.0,0.0,0.0,0.0,0.0,0.0,0.0,0.0,0.0,0.0,-1.7339,-1.8172,-1.8789,-1.8987,-1.8987,-1.8987,-1.8987,-1.8362,-1.7734,-1.724,0.0,0.0,0.0,0.0,0.0,0.0,0.0,0.0,0.0,0.0,0.0,0.0,0.0,0.0,0.0,0.0,0.0,0.0,0.0,0.0,0.0,0.0,0.0,0.0,0.0,0.0,0.0,0.0,0.0,0.0,0.0,0.0,0.0,0.0,0.0,0.0,0.0,0.0,0.0,0.0,0.0,0.0,0.0,0.0,0.0,0.0,0.0,0.0,0.0,0.0,0.0,0.0,0.0,0.0,0.0,0.0,0.0,0.0,0.0,0.0,0.0,0.0,0.0,0.0,0.0,0.0,0.0,0.0,0.0,0.0,0.0,0.0,0.0,0.0,0.0,0.0,0.0,0.0,0.0,0.0,0.0,0.0,0.0,0.0,0.0,0.0,0.0,0.0,0.0,0.0,0.0,0.0,0.0,0.0,0.0,0.0,0.0,0.0,0.0,0.0,0.0,0.0,-1.7351,-1.8338,-1.8987,-1.8987,-1.8806,-1.8674,-1.8674,-1.8001,-1.7411,-1.7099,0.0,0.0,0.0,0.0,0.0,0.0,0.0,0.0,0.0,0.0,0.0,0.0,0.0,0.0,0.0,0.0,0.0,0.0,0.0,0.0,0.0,0.0,0.0,0.0,0.0,0.0,0.0,0.0,0.0,0.0,0.0,0.0,0.0,0.0,0.0,0.0,0.0,0.0,0.0,0.0,0.0,0.0,0.0,0.0,0.0,0.0,0.0,0.0,0.0,0.0,0.0,0.0,0.0,0.0,0.0,0.0,0.0,0.0,0.0,0.0,0.0,0.0,0.0,0.0,0.0,0.0,0.0,0.0,0.0,0.0,0.0,0.0,0.0,0.0,0.0,0.0,0.0,0.0,0.0,0.0,0.0,0.0,0.0,0.0,0.0,0.0,0.0,0.0,0.0,0.0,0.0,0.0,0.0,0.0,0.0,0.0,0.0,0.0,0.0,0.0,0.0,0.0,-1.7447,-1.8374,-1.8987,-1.8987,-1.8518,-1.8205,-1.8205,-1.7207,-1.6607,-1.6607,0.0,0.0,0.0,0.0,0.0,0.0,0.0,0.0,0.0,0.0,0.0,0.0,0.0,0.0,0.0,0.0,0.0,0.0,0.0,0.0,0.0,0.0,0.0,0.0,0.0,0.0,0.0,0.0,0.0,0.0,0.0,0.0,0.0,0.0,0.0,0.0,0.0,0.0,0.0,0.0,0.0,0.0,0.0,0.0,0.0,0.0,0.0,0.0,0.0,0.0,0.0,0.0,0.0,0.0,0.0,0.0,0.0,0.0,0.0,0.0,-1.5274,-1.5286,0.0,0.0,0.0,0.0,0.0,0.0,0.0,0.0,0.0,0.0,0.0,0.0,0.0,0.0,0.0,0.0,0.0,0.0,0.0,0.0,0.0,0.0,0.0,0.0,0.0,0.0,0.0,0.0,0.0,0.0,0.0,0.0,0.0,0.0,0.0,0.0,0.0,0.0,0.0,0.0,-1.7929,-1.8602,-1.8987,-1.8987,-1.8518,-1.8205,-1.8205,-1.7207,-1.6607,-1.6607,-1.5502,0.0,0.0,0.0,0.0,0.0,0.0,0.0,0.0,0.0,0.0,0.0,0.0,0.0,0.0,0.0,0.0,0.0,0.0,0.0,0.0,0.0,0.0,0.0,0.0,0.0,0.0,0.0,0.0,0.0,0.0,0.0,0.0,0.0,0.0,0.0,0.0,0.0,0.0,0.0,0.0,0.0,0.0,0.0,0.0,0.0,0.0,0.0,0.0,0.0,0.0,0.0,0.0,0.0,0.0,0.0,0.0,0.0,0.0,0.0,-1.6367,-1.6379,0.0,0.0,0.0,0.0,0.0,0.0,0.0,0.0,0.0,0.0,0.0,0.0,0.0,0.0,0.0,0.0,0.0,0.0,0.0,0.0,0.0,0.0,0.0,0.0,0.0,0.0,0.0,0.0,0.0,0.0,0.0,0.0,0.0,0.0,0.0,0.0,0.0,0.0,0.0,0.0,-1.8122,-1.8662,-1.8891,-1.8638,-1.8145,-1.7724,-1.7447,-1.6749,-1.6301,-1.6301,-1.5608,0.0,0.0,0.0,0.0,0.0,0.0,0.0,0.0,0.0,0.0,0.0,0.0,0.0,0.0,0.0,0.0,0.0,0.0,0.0,0.0,0.0,0.0,0.0,0.0,0.0,0.0,0.0,0.0,0.0,0.0,0.0,0.0,0.0,0.0,0.0,0.0,0.0,0.0,0.0,0.0,0.0,0.0,0.0,0.0,0.0,0.0,0.0,0.0,0.0,0.0,0.0,0.0,0.0,-1.7183,-1.7243,-1.7651,-1.7219,-1.7495,-1.8289,-1.7387,-1.7507,-1.8301,-1.7772,0.0,0.0,0.0,0.0,0.0,0.0,0.0,0.0,0.0,0.0,0.0,0.0,0.0,0.0,0.0,0.0,0.0,0.0,0.0,0.0,0.0,0.0,-2.0046,-1.9976,-2.0036,-1.9914,-1.9311,0.0,0.0,0.0,0.0,0.0,0.0,0.0,0.0,0.0,0.0,0.0,-1.8316,-1.8722,-1.8794,-1.8291,-1.7761,-1.7231,-1.6725,-1.6294,-1.6044,-1.6044,-1.5727,-1.5545,0.0,0.0,0.0,0.0,0.0,0.0,0.0,0.0,0.0,0.0,0.0,0.0,0.0,0.0,0.0,0.0,0.0,0.0,0.0,0.0,0.0,0.0,0.0,0.0,0.0,0.0,0.0,0.0,0.0,0.0,0.0,0.0,-1.3077,-1.4145,0.0,0.0,0.0,0.0,0.0,0.0,0.0,0.0,0.0,0.0,0.0,0.0,0.0,-1.7279,-1.7279,-1.7832,-1.8097,-1.8097,-1.8494,-1.871,-1.8782,-1.871,-1.8758,-1.8879,-1.8746,0.0,-1.8843,-1.8313,0.0,0.0,0.0,0.0,0.0,0.0,0.0,0.0,0.0,0.0,0.0,0.0,0.0,0.0,0.0,0.0,0.0,0.0,0.0,0.0,0.0,0.0,-2.1176,-2.1105,-2.1148,-2.1018,-2.0425,-1.9542,-1.8972,-1.923,-1.8901,-1.8533,0.0,0.0,0.0,0.0,0.0,0.0,-1.8897,-1.8951,-1.8847,-1.8405,-1.7897,-1.7411,-1.6979,-1.6463,-1.6166,-1.6166,-1.6126,-1.6154,-1.6271,-1.5769,0.0,0.0,0.0,0.0,0.0,0.0,0.0,0.0,0.0,0.0,0.0,0.0,0.0,0.0,0.0,0.0,0.0,0.0,0.0,0.0,0.0,0.0,0.0,0.0,0.0,0.0,0.0,0.0,0.0,-1.2801,-1.421,-1.4805,-1.544,-1.5812,0.0,0.0,0.0,0.0,0.0,0.0,0.0,0.0,0.0,-1.7845,-1.8145,-1.8434,-1.8746,-1.9287,-1.9558,-1.9547,-1.9433,-1.9391,-1.9384,-1.9045,-1.9082,-1.9409,-1.9749,-1.9901,-1.9837,-1.8995,-1.8975,-1.9447,0.0,0.0,0.0,0.0,-2.0399,-2.0623,-2.0375,-2.0702,-2.1041,-2.0136,0.0,0.0,0.0,0.0,0.0,0.0,0.0,-2.1189,-2.167,-2.1834,-2.1773,-2.1389,-2.1574,-2.1688,-2.1079,-2.0882,-2.0666,-2.0225,-1.9767,-1.9323,-1.895,-1.8989,0.0,0.0,0.0,-1.9171,-1.9216,-1.9225,-1.892,-1.8142,-1.7861,-1.7408,-1.6618,-1.6389,-1.6318,-1.6318,-1.6362,-1.6392,-1.6457,-1.6211,-1.6094,0.0,0.0,0.0,0.0,0.0,0.0,0.0,0.0,0.0,0.0,0.0,0.0,0.0,0.0,0.0,0.0,0.0,0.0,0.0,0.0,0.0,0.0,0.0,0.0,0.0,0.0,0.0,0.0,-1.4105,-1.5295,-1.573,-1.6543,-1.7033,0.0,0.0,0.0,0.0,0.0,0.0,-1.8192,-1.837,-1.8577,-1.8794,-1.934,-1.9821,-2.0223,-2.0637,-2.0918,-2.107,-2.0459,-2.0156,-2.0154,-1.9532,-1.9506,-1.996,-2.0402,-2.0701,-2.0794,-2.0136,-2.0137,-2.0514,-2.0797,-2.1231,-2.1745,-2.1907,-2.2104,-2.2243,-2.188,-2.2141,-2.2529,-2.1622,-2.1609,-2.1848,-2.1556,0.0,0.0,0.0,0.0,-2.2266,-2.2249,-2.239,-2.2301,-2.1324,-2.1713,-2.2131,-2.151,-2.1863,-2.2021,-2.1097,-2.0651,-2.0244,-1.9655,-1.9903,0.0,-1.9133,-1.967,-2.0074,-1.9825,-1.9811,-1.9396,-1.8372,-1.8148,-1.764,-1.6594,-1.6458,-1.6436,-1.6436,-1.6479,-1.65,-1.65,-1.65,-1.65,-1.65,0.0,0.0,0.0,0.0,0.0,0.0,0.0,0.0,0.0,0.0,0.0,0.0,0.0,0.0,0.0,0.0,0.0,0.0,0.0,0.0,0.0,0.0,0.0,0.0,0.0,0.0,0.0,0.0,0.0,-1.7561,-1.7714,0.0,0.0,0.0,0.0,-1.8617,-1.8835,-1.936,-2.0365,-2.0971,-2.1042,-2.0499,-2.1076,-2.1408,-2.1393,-2.143,-2.1763,-2.239,-2.1734,-2.1407,-2.138,-2.078,-2.0519,-2.0546,-2.0597,-2.0923,-2.1485,-2.2088,-2.2338,-2.2415,-2.3067,-2.3724,-2.4319,-2.4443,-2.4129,-2.3621,-2.3715,-2.3372,-2.2865,-2.2799,-2.2768,-2.2853,-2.3385,-2.345,0.0,0.0,-2.4365,-2.4055,-2.2729,-2.2904,-2.2936,-2.0996,-2.1581,-2.2398,-2.1747,-2.2126,-2.2486,-2.2165,-2.2105,-2.1917,-2.1366,0.0,-2.253,-2.0934,-2.1729,-2.2139,-2.1059,-2.0919,-2.0571,-1.9618,-1.905,-1.838,-1.7433,-1.6814,-1.65,-1.65,-1.65,-1.65,-1.65,-1.65,-1.65,-1.65,-1.5969,0.0,0.0,0.0,0.0,0.0,0.0,0.0,0.0,0.0,0.0,0.0,0.0,0.0,0.0,0.0,0.0,0.0,0.0,0.0,0.0,0.0,0.0,0.0,0.0,0.0,0.0,0.0,0.0,-1.747,-1.7906,0.0,-1.8682,-1.8603,-1.8912,-1.9749,-1.9949,-2.0201,-2.0598,-2.116,-2.1232,-2.0627,-2.1908,-2.2217,-2.1443,-2.2161,-2.2437,-2.2309,-2.1656,-2.1372,-2.1338,-2.074,-2.0671,-2.1064,-2.1448,-2.1979,-2.261,-2.3678,-2.3733,-2.3183,-2.3506,-2.4039,-2.4632,-2.4741,-2.4645,-2.4481,-2.4491,-2.4317,-2.4143,-2.4157,-2.4186,-2.4168,-2.437,-2.4365,-2.4375,-2.456,-2.433,-2.3861,-2.326,-2.268,-2.2004,-2.0891,-2.1019,-2.1319,-2.1069,-2.1526,-2.2175,-2.2904,-2.3037,-2.2997,-2.2884,-2.3348,-2.3214,-2.1834,-2.2104,-2.2171,-2.1353,-2.1248,-2.0984,-2.0325,-2.0084,-1.9525,-1.8526,-1.7886,-1.741,-1.7096,-1.6701,-1.65,-1.65,-1.65,-1.65,-1.65,-1.63,-1.619,0.0,0.0,0.0,0.0,0.0,0.0,0.0,0.0,0.0,0.0,0.0,0.0,0.0,0.0,0.0,0.0,0.0,0.0,0.0,0.0,0.0,0.0,0.0,0.0,0.0,-1.6483,-1.7296,-1.7966,-1.8402,-1.8864,-1.945,-1.9532,-1.9898,-2.0681,-2.0979,-2.1197,-2.1426,-2.203,-2.2069,-2.1444,-2.257,-2.2783,-2.1995,-2.2715,-2.3018,-2.2832,-2.2205,-2.1914,-2.1884,-2.1271,-2.1237,-2.1617,-2.2025,-2.2545,-2.3168,-2.4047,-2.4196,-2.3889,-2.4385,-2.4787,-2.5084,-2.5104,-2.4892,-2.4559,-2.4505,-2.4491,-2.4491,-2.4544,-2.4728,-2.4878,-2.4824,-2.481,-2.4843,-2.5026,-2.4596,-2.398,-2.3416,-2.2818,-2.2167,-2.1277,-2.1269,-2.1434,-2.1434,-2.1765,-2.2345,-2.3439,-2.3569,-2.3601,-2.3926,-2.4075,-2.3814,-2.2785,-2.2737,-2.2613,-2.1991,-2.1908,-2.1722,-2.1194,-2.0974,-2.0489,-1.9617,-1.8799,-1.8275,-1.818,-1.7402,-1.7059,-1.7335,-1.7085,-1.6897,-1.681,-1.6959,-1.7024,-1.6959,0.0,0.0,0.0,0.0,0.0,0.0,0.0,0.0,0.0,0.0,0.0,0.0,0.0,0.0,0.0,0.0,0.0,0.0,0.0,0.0,0.0,0.0,0.0,-1.6846,-1.731,-1.8045,-1.9186,-1.9191,-1.9434,-2.0238,-2.0077,-2.034,-2.1356,-2.1859,-2.238,-2.3042,-2.3644,-2.3714,-2.3089,-2.3111,-2.3095,-2.3081,-2.3081,-2.342,-2.4022,-2.3389,-2.3069,-2.3041,-2.2475,-2.2208,-2.2208,-2.2208,-2.2545,-2.3122,-2.3243,-2.3786,-2.4622,-2.5785,-2.6055,-2.5763,-2.5763,-2.4979,-2.392,-2.392,-2.392,-2.392,-2.392,-2.4355,-2.4878,-2.4824,-2.481,-2.494,-2.5589,-2.5353,-2.4534,-2.3181,-2.3328,-2.349,-2.2126,-2.2343,-2.2844,-2.2859,-2.2859,-2.3084,-2.376,-2.3688,-2.3736,-2.4408,-2.4646,-2.449,-2.3841,-2.3835,0.0,-2.2975,-2.2888,-2.2729,-2.2278,-2.1691,-2.1167,-2.0694,-1.9557,-1.9129,-1.9702,-1.8554,-1.8223,-1.8982,-1.8275,-1.7744,-1.7491,-1.7917,-1.8153,-1.8153,0.0,0.0,0.0,0.0,0.0,0.0,0.0,0.0,0.0,0.0,0.0,0.0,0.0,0.0,0.0,0.0,0.0,0.0,0.0,0.0,0.0,-1.717,-1.8058,-1.7964,-1.8298,-1.8836,-1.9639,-1.9605,-1.986,-2.0647,-2.0676,-2.0992,-2.1893,-2.211,-2.2245,-2.2444,-2.303,-2.3071,-2.2475,-2.3334,-2.3383,-2.2461,-2.2864,-2.2979,-2.2714,-2.2545,-2.2461,-2.2447,-2.2292,-2.2208,-2.2208,-2.2208,-2.2545,-2.3122,-2.3243,-2.3786,-2.4537,-2.4927,-2.5081,-2.5071,-2.5071,-2.4853,-2.4549,-2.4549,-2.4549,-2.4549,-2.4549,-2.4718,-2.4878,-2.4824,-2.481,-2.4853,-2.5081,-2.4675,-2.408,-2.3693,-2.3055,-2.2425,-2.2033,-2.1736,-2.167,-2.2149,-2.2251,-2.2585,-2.3673,-2.3844,-2.4144,-2.5243,-2.5094,-2.4771,-2.4529,-2.4157,-2.3659,-2.2975,-2.2888,-2.2843,-2.2729,-2.2571,-2.2275,-2.1802,-2.1038,-2.0551,-2.0361,-1.9603,-1.9288,-1.9503,-1.9293,-1.9141,-1.9075,-1.9527,-1.9614,0.0,0.0,0.0,0.0,0.0,0.0,0.0,0.0,0.0,0.0,0.0,0.0,0.0,0.0,0.0,0.0,0.0,0.0,0.0,0.0,0.0,0.0,-1.7984,-1.867,-1.9088,-1.9076,-1.9264,-2.0092,-1.9892,-2.0003,-2.075,-2.0996,-2.1188,-2.144,-2.2103,-2.2426,-2.2254,-2.2787,-2.2935,-2.2587,-2.3056,-2.2951,-2.221,-2.255,-2.2559,-2.2208,-2.2208,-2.2208,-2.2208,-2.2208,-2.2208,-2.2208,-2.2208,-2.2405,-2.2728,-2.2861,-2.3231,-2.3774,0.0,0.0,0.0,0.0,-2.3989,-2.4032,-2.4331,-2.4418,-2.4418,-2.4418,-2.4646,-2.4834,-2.453,-2.4418,-2.4442,-2.4457,-2.4007,-2.3484,-2.3484,-2.2925,-2.2374,-2.2374,-2.2069,-2.1895,-2.2287,-2.2374,-2.2614,-2.3331,-2.3484,0.0,-2.482,-2.4704,-2.4457,-2.4442,-2.3905,-2.3331,-2.2946,-2.2888,-2.2888,-2.2888,-2.2888,-2.2797,-2.2509,-2.1947,0.0,0.0,0.0,-2.0237,-2.0237,-2.0139,0.0,0.0,0.0,0.0,0.0,-2.1013,0.0,0.0,-1.9681,-1.988,0.0,0.0,0.0,0.0,0.0,0.0,0.0,0.0,0.0,0.0,0.0,0.0,0.0,0.0,0.0,0.0,-1.8595,-1.8885,-1.9894,-1.9487,-1.9448,-2.0405,-2.0031,-1.995,-2.0619,-2.1039,-2.1048,-2.0583,-2.1905,-2.2605,-2.2313,-2.2745,0.0,0.0,0.0,-2.2306,-2.2306,-2.2306,-2.2278,-2.2208,-2.2208,-2.2208,-2.2208,-2.2208,-2.2208,-2.2208,-2.2208,-2.2208,-2.2208,-2.237,-2.2509,-2.2738,-2.3928,-2.4149,-2.3717,-2.3128,-2.2888,-2.2975,-2.3586,0.0,0.0,-2.3789,-2.4181,-2.4559,-2.3963,-2.3789,-2.3789,-2.3789,-2.336,-2.2888,-2.2888,-2.2888,-2.2888,-2.2888,-2.2888,-2.2888,-2.2888,-2.2888,-2.2888,-2.2888,-2.2888,-2.3099,-2.3688,-2.3789,-2.3804,-2.3876,-2.3331,-2.2888,-2.2888,-2.2888,-2.2888,-2.2888,-2.2888,0.0,-2.2888,-2.2403,-2.2316,-2.2859,-2.1837,-2.1206,-2.1206,-2.0994,-2.1257,-2.2084,-2.1676,-2.1744,-2.2278,-2.2278,-2.203,-2.1561,-2.1014,-2.1072,0.0,0.0,0.0,0.0,0.0,0.0,0.0,0.0,0.0,0.0,0.0,0.0,0.0,0.0,0.0,-1.7991,-1.8762,-1.9333,-1.9154,-1.9112,-1.9332,-1.9971,-1.9835,-1.993,-2.0498,-2.0428,-2.0677,-2.1471,-2.1629,-2.1845,-2.219,-2.2328,-2.2615,-2.3069,-2.2985,-2.2929,-2.2929,-2.2929,-2.2676,-2.2208,-2.2208,0.0,-2.2208,-2.2208,-2.2208,-2.2208,-2.2208,-2.2208,-2.2231,-2.2463,-2.2684,-2.2872,-2.3117,-2.3155,-2.3084,-2.2946,-2.2888,-2.2917,-2.3055,-2.3099,-2.3099,-2.3099,-2.3186,-2.3273,-2.3142,-2.3099,0.0,-2.3099,-2.2989,-2.2888,-2.2888,-2.2888,-2.2888,-2.2888,-2.2888,-2.2888,-2.2888,-2.2888,-2.2888,-2.2888,-2.2888,-2.2931,-2.3084,-2.3099,-2.3273,-2.3818,-2.3331,-2.2888,-2.2888,-2.2888,-2.2888,-2.2888,-2.2888,-2.2888,-2.2888,-2.2786,-2.2772,-2.2888,-2.2656,-2.2533,-2.2533,-2.2485,-2.2542,-2.2714,-2.2632,-2.2645,-2.2752,-2.2752,-2.2706,-2.2601,-2.1688,-2.1591,0.0,0.0,0.0,0.0,0.0,0.0,0.0,0.0,0.0,0.0,0.0,-1.6991,-1.6991,0.0,-1.8297,-1.865,-1.8931,-1.9069,-1.902,-1.8779,-1.8906,-1.9703,-1.9506,-1.9402,-1.9666,-2.0069,-2.0382,-2.0591,-2.1231,-2.1672,-2.1797,-2.2347,-2.2774,-2.3083,-2.3431,-2.36,-2.36,-2.36,-2.3445,-2.315,-2.315,-2.315,-2.315,-2.315,-2.315,-2.315,-2.315,-2.315,-2.3174,-2.344,-2.3622,-2.3688,-2.3473,-2.32,-2.2888,-2.2888,-2.2888,-2.2888,-2.2888,-2.2888,-2.2888,-2.2888,-2.2888,-2.2888,-2.2888,-2.2888,-2.2888,-2.2888,-2.2888,-2.2888,-2.2888,-2.2888,-2.2888,-2.2888,-2.2888,-2.2888,-2.2888,-2.2888,-2.2888,-2.2888,-2.2888,-2.2888,-2.2888,-2.2888,-2.3004,-2.3345,-2.3113,-2.2888,-2.2888,-2.2888,-2.2888,-2.2888,-2.2888,-2.2888,-2.2888,-2.2888,-2.2888,-2.2888,-2.2888,-2.2888,-2.2888,-2.2888,-2.2888,-2.2888,-2.2888,-2.2888,-2.2888,-2.2888,-2.2888,-2.2888,-2.2379,-2.2648,0.0,0.0,0.0,0.0,0.0,0.0,0.0,-1.5886,-1.6128,-1.6201,-1.6896,-1.7494,-1.7494,-1.8026,-1.8664,-1.9258,-1.9032,-1.8782,-1.889,-1.8446,-1.8421,-1.9298,-1.9011,-1.8803,-1.8988,-1.9725,-2.0092,-1.9811,-2.105,-2.1791,-2.1732,-2.2724,-2.3336,-2.3463,-2.3994,-2.4261,-2.4261,-2.4261,-2.4205,-2.4092,-2.4092,-2.4092,-2.4092,-2.4092,-2.4092,-2.4092,-2.4092,-2.4118,-2.4129,-2.4394,-2.4519,-2.4486,-2.4226,-2.3775,-2.3258,-2.2989,-2.2888,-2.2888,-2.2888,-2.2888,-2.2888,-2.2888,-2.2888,-2.2888,-2.2888,-2.2888,-2.2888,-2.2888,-2.2888,-2.2888,-2.2888,-2.2888,-2.2888,-2.2888,-2.2888,-2.2888,-2.2888,-2.2888,-2.2888,-2.2888,-2.2888,-2.2888,-2.2888,-2.2888,-2.2888,-2.2888,-2.2888,-2.2888,-2.2888,-2.2888,-2.2888,-2.2888,-2.2888,-2.2888,-2.2888,-2.2888,-2.2888,-2.2888,-2.2888,-2.2888,-2.2888,-2.2888,-2.2888,-2.2888,-2.2888,-2.2888,-2.2888,-2.2888,-2.2888,-2.2888,-2.2888,-2.3511,-1.4717,-1.4824,-1.5093,-1.608,-1.6331,-1.6607,0.0,-1.7507,-1.7315,-1.7671,-1.786,-1.7904,-1.7779,-1.8685,-1.9254,-1.8642,-1.8958,-1.9054,-1.8317,-1.8146,-1.813,-1.8244,-1.8237,-1.8491,-1.9269,-1.9243,-1.9732,-2.1068,-2.1611,-2.2194,-2.2864,-2.3603,-2.4233,-2.4781,-2.4866,-2.4908,-2.4908,-2.4908,-2.4627,-2.4092,-2.4092,-2.4092,-2.4092,-2.4092,-2.4092,-2.4092,-2.4092,-2.4115,-2.4201,-2.4405,-2.4543,-2.4599,-2.4742,-2.4733,-2.453,-2.3345,-2.2888,-2.2888,-2.2888,-2.2888,-2.2888,-2.2888,-2.2888,-2.2888,-2.2888,-2.2888,-2.2888,-2.2888,-2.2888,-2.2888,-2.2888,-2.2888,-2.2888,-2.2888,-2.2888,-2.2888,-2.2888,-2.2888,-2.2888,-2.2888,-2.2888,-2.2888,-2.2888,-2.2888,-2.2888,-2.2888,-2.2888,-2.2888,-2.2888,-2.2888,-2.2888,-2.2888,-2.2888,-2.2888,-2.2888,-2.2888,-2.2888,-2.2888,-2.2888,-2.2888,-2.2888,-2.2888,-2.2888,-2.2888,-2.2888,-2.2888,-2.2888,-2.2888,-2.2888,-2.2888,-2.2888,-2.3302,-1.5229,-1.5372,-1.5489,-1.6008,-1.6116,-1.6343,-1.7087,-1.7327,-1.7435,-1.7527,-1.7774,-1.7962,-1.7822,-1.8219,-1.8522,-1.8429,-1.8652,-1.864,-1.8166,-1.8084,-1.8084,-1.8084,-1.8084,-1.8247,-1.8625,-1.8999,-1.9793,-2.1118,-2.1828,-2.262,-2.3645,-2.4275,-2.4739,-2.4992,-2.5358,-2.5514,-2.5514,-2.5514,-2.5414,-2.5161,-2.5161,-2.5161,-2.5161,-2.5161,-2.5161,-2.5161,-2.5161,-2.52,-2.5317,-2.5398,-2.554,-2.5689,-2.5409,-2.5354,-2.5299,-2.436,-2.4003,-2.4003,-2.4041,-2.3818,-2.3476,-2.3476,-2.3476,-2.3476,-2.3476,-2.3722,-2.3916,-2.3577,-2.3476,-2.3374,-2.2989,-2.2888,-2.2888,-2.2888,-2.2888,-2.2888,-2.2888,-2.2888,-2.2888,-2.2888,-2.2888,-2.2888,-2.2888,-2.2888,-2.2888,-2.2888,-2.2888,-2.2888,-2.2888,-2.2888,-2.2888,-2.2888,-2.2888,-2.2888,-2.2888,-2.2888,-2.2888,-2.2888,-2.2888,-2.2888,-2.2888,-2.2888,-2.2888,-2.2888,-2.2888,-2.2888,-2.2888,-2.2888,-2.2888,-2.2902,-2.3302,-2.363,-1.5542,-1.5659,-1.5751,-1.5984,-1.6008,-1.6175,-1.6703,-1.7003,-1.7171,-1.7156,-1.7451,-1.7708,-1.7683,-1.7953,-1.8204,-1.8298,-1.8503,-1.8545,-1.8329,-1.8166,-1.815,-1.8275,-1.8166,-1.8169,-1.8306,-1.8976,-1.9893,-2.1068,-2.2071,-2.3118,-2.4149,-2.487,-2.526,-2.526,-2.5655,-2.5893,-2.5893,-2.5893,-2.5893,-2.5893,-2.5893,-2.5893,-2.5893,-2.5893,-2.5893,-2.5893,-2.5948,-2.6002,-2.6111,-2.6192,-2.6312,-2.6467,-2.6075,-2.6006,-2.6036,-2.5546,-2.5129,-2.4824,-2.4863,-2.4559,-2.4123,-2.3949,-2.4007,-2.4123,-2.3949,-2.4326,-2.4679,-2.4065,-2.3891,-2.3746,-2.3084,-2.3055,-2.3186,-2.3186,-2.3186,-2.3229,-2.338,-2.3279,-2.3229,-2.3418,-2.3447,-2.3409,-2.3409,-2.3302,-2.3186,-2.3186,-2.3026,-2.2888,-2.2888,-2.2888,-2.2888,-2.2888,-2.2888,-2.2888,-2.2888,-2.2888,-2.2888,-2.2888,-2.2888,-2.2888,-2.2888,-2.2888,-2.2888,-2.2888,-2.2888,-2.2888,-2.2888,-2.2888,-2.2989,-2.3186,-2.3673,-2.3992,-1.5501,-1.5592,-1.5835,-1.6428,-1.6583,-1.6715,-1.7243,-1.6979,-1.6704,-1.6939,-1.7032,-1.7097,-1.7355,-1.8367,-1.8924,-1.8209,-1.8709,-1.9081,-1.8825,-1.8394,-1.8275,-1.8718,-1.8383,-1.8306,-1.8827,-1.9192,-1.9919,-2.1198,-2.251,-2.363,-2.4433,-2.5366,-2.5865,-2.5865,-2.5879,-2.5893,-2.5893,-2.5893,-2.5893,-2.5893,-2.5893,-2.5893,-2.5893,-2.5893,-2.5893,-2.5921,-2.6029,-2.6084,-2.6111,-2.6392,-2.6484,-2.651,-2.6698,-2.6765,-2.6777,-2.6762,-2.5952,-2.4878,-2.4824,-2.4795,-2.4679,-2.4094,-2.4312,-2.4665,-2.408,-2.4326,-2.4679,-2.4065,-2.3891,-2.3746,-2.3084,-2.3374,-2.3862,-2.3862,-2.3862,-2.4036,-2.4621,-2.4273,-2.4051,-2.4704,-2.4781,-2.4728,-2.4728,-2.4268,-2.3862,-2.3862,-2.3316,-2.2888,-2.2888,-2.2888,-2.2888,-2.2888,-2.2888,-2.2888,-2.2888,-2.2888,-2.2888,-2.2888,-2.2888,-2.2888,-2.2888,-2.2888,-2.2888,-2.2888,-2.2888,-2.2888,-2.2888,-2.2888,-2.3229,-2.3862,-2.3876,-2.4263,-1.5397,-1.5536,-1.5628,-1.593,-1.6,-1.6059,-1.6284,-1.6475,-1.668,-1.6939,-1.729,-1.7613,-1.7809,-1.8213,-1.8398,-1.8139,-1.8302,-1.8425,-1.8356,-1.8193,-1.8166,-1.8313,-1.852,-1.8701,-1.8873,-1.9569,-2.0632,-2.2176,-2.3244,-2.4299,-2.5367,-2.5727,-2.5893,-2.5893,-2.5893,-2.5893,-2.5893,-2.5893,-2.5893,-2.5893,-2.5893,-2.5893,-2.5893,-2.5893,-2.5893,-2.5893,-2.5948,-2.6056,-2.6233,-2.6245,-2.6406,-2.6686,-2.6618,-2.6686,-2.6806,-2.6806,-2.6544,-2.6141,-2.6126,-2.5836,-2.5429,-2.5236,-2.5299,-2.5429,-2.5212,-2.5604,-2.5995,-2.5328,-2.4849,-2.4447,-2.423,-2.4036,-2.3992,-2.4389,-2.453,-2.4617,-2.482,-2.4665,-2.4563,-2.4849,-2.4878,-2.4839,-2.481,-2.4675,-2.4544,-2.4491,-2.3592,-2.2888,-2.2888,-2.2888,-2.2888,-2.2888,-2.2888,-2.3084,-2.3543,-2.3572,-2.3722,-2.4143,-2.4201,-2.4036,-2.3586,-2.3954,-2.3757,-2.2917,-2.3714,-2.3969,-2.3572,-2.4022,-2.4341,-2.4559,-2.4965,-2.527,-1.5419,-1.5536,-1.5592,-1.5693,-1.5671,-1.5659,-1.577,-1.6056,-1.6359,-1.6656,-1.6984,-1.7295,-1.7534,-1.7722,-1.7848,-1.7848,-1.7997,-1.8166,-1.834,-1.822,-1.8235,-1.8572,-1.8774,-1.9034,-1.9401,-2.0317,-2.1322,-2.2398,-2.3478,-2.4532,-2.5536,-2.5784,-2.5893,-2.5893,-2.5893,-2.5893,-2.5893,-2.6104,-2.6217,-2.6217,-2.6217,-2.6104,-2.5893,-2.5893,-2.5893,-2.5893,-2.5948,-2.6056,-2.6233,-2.6245,-2.6433,-2.6686,-2.6645,-2.6686,-2.6806,-2.6806,-2.6806,-2.6806,-2.6806,-2.653,-2.6137,-2.589,-2.5952,-2.6123,-2.5865,-2.6283,-2.6675,-2.6006,-2.5487,-2.51,-2.4868,-2.4704,-2.4675,-2.5081,-2.5197,-2.5295,-2.5542,-2.5357,-2.5255,-2.5517,-2.5575,-2.556,-2.5506,-2.5357,-2.5125,-2.4853,-2.409,-2.3606,-2.3606,-2.3606,-2.3569,-2.3569,-2.3569,-2.3766,-2.4196,-2.4239,-2.4413,-2.4795,-2.4839,-2.4689,-2.4268,-2.4607,-2.4409,-2.3583,-2.4365,-2.4607,-2.4225,-2.466,-2.4994,-2.5236,-2.5629,-2.5948,-1.5536,-1.5592,-1.5693,-1.5693,-1.5592,-1.5558,-1.577,-1.576,-1.5791,-1.6115,-1.6197,-1.629,-1.6556,-1.7037,-1.7407,-1.7407,-1.7779,-1.8259,-1.8691,-1.8406,-1.8455,-1.9349,-1.9186,-1.9344,-2.032,-2.132,-2.1908,-2.1975,-2.3321,-2.4408,-2.4978,-2.5591,-2.5893,-2.5893,-2.5921,-2.595,-2.595,-2.6554,-2.6863,-2.6863,-2.6863,-2.654,-2.595,-2.595,-2.5921,-2.5921,-2.6029,-2.6084,-2.6111,-2.6392,-2.6484,-2.651,-2.6712,-2.6806,-2.6806,-2.6806,-2.6806,-2.6806,-2.6806,-2.6806,-2.6704,-2.6065,-2.6283,-2.6689,-2.605,-2.6312,-2.6675,-2.6036,-2.5832,-2.5647,-2.5056,-2.5357,-2.5818,-2.5847,-2.5836,-2.6036,-2.6649,-2.6312,-2.605,-2.6689,-2.6806,-2.6806,-2.6806,-2.6257,-2.5633,-2.4998,-2.4911,-2.4897,-2.4892,-2.4839,-2.481,-2.481,-2.481,-2.4824,-2.4853,-2.4921,-2.4936,-2.4911,-2.4911,-2.4911,-2.4936,-2.4911,-2.4882,-2.481,-2.4882,-2.4897,-2.4853,-2.4897,-2.5216,-2.5836,-2.5836,-2.6195,-1.5536,-1.5592,-1.5693,-1.5592,-1.5592,-1.5681,-1.577,-1.5792,-1.5858,-1.6138,-1.6197,-1.629,-1.6556,-1.7037,-1.7407,-1.7407,-1.7779,-1.8139,-1.8247,-1.8527,-1.8775,-1.9015,-1.9609,-2.0125,-2.0389,-2.132,-2.2212,-2.3028,-2.4131,-2.4954,-2.5369,-2.5716,-2.5893,-2.5893,-2.6343,-2.6582,-2.6582,-2.7214,-2.7566,-2.7566,-2.7566,-2.7186,-2.6582,-2.6582,-2.6329,-2.5893,-2.5948,-2.6002,-2.6111,-2.6272,-2.6392,-2.651,-2.6712,-2.6806,-2.6806,-2.6806,-2.6806,-2.6806,-2.6806,-2.6806,-2.6777,-2.6617,-2.6675,-2.6777,-2.6617,-2.6649,-2.675,-2.6602,-2.6195,-2.589,-2.6199,-2.6039,-2.5934,-2.6442,-2.6559,-2.6602,-2.675,-2.6675,-2.6617,-2.6777,-2.6806,-2.6806,-2.6806,-2.6675,-2.65,-2.6315,-2.6286,-2.5952,-2.5009,-2.4839,-2.481,-2.481,-2.4839,-2.5052,-2.5502,-2.556,-2.5763,-2.6257,-2.6286,-2.6068,-2.56,-2.6025,-2.5836,-2.4824,-2.5792,-2.6039,-2.5546,-2.6054,-2.6373,-2.6559,-2.6559,-2.6646,-1.5458,-1.5458,-1.5514,-1.5491,-1.5503,-1.5559,-1.5726,-1.5703,-1.5686,-1.5787,-1.58,-1.5905,-1.6246,-1.6899,-1.7407,-1.7407,-1.8196,-1.8707,-1.8478,-1.8919,-1.9321,-1.9539,-2.0067,-2.0504,-2.0722,-2.1444,-2.2354,-2.3434,-2.4352,-2.5097,-2.5654,-2.6187,-2.6427,-2.6301,-2.6905,-2.7369,-2.7636,-2.8001,-2.8199,-2.8199,-2.8199,-2.7846,-2.7228,-2.7228,-2.6891,-2.6287,-2.6287,-2.6201,-2.6029,-2.6165,-2.6299,-2.6418,-2.6592,-2.6712,-2.6806,-2.6806,-2.6806,-2.6806,-2.6806,-2.6806,-2.6806,-2.6806,-2.6806,-2.6806,-2.6806,-2.6806,-2.6806,-2.6806,-2.6544,-2.6341,-2.6704,-2.653,-2.6341,-2.6718,-2.6806,-2.6806,-2.6806,-2.6806,-2.6806,-2.6806,-2.6806,-2.6806,-2.6806,-2.6806,-2.6806,-2.6806,-2.6806,-2.6559,-2.5847,-2.5705,-2.5665,-2.5665,-2.5705,-2.5865,-2.6224,-2.6253,-2.6413,-2.6791,-2.6806,-2.6646,-2.6242,-2.6617,-2.6445,-2.568,-2.6416,-2.6617,-2.6253,-2.6631,-2.6806,-2.6806,-2.6806,-2.6806,-1.5425,-1.5357,-1.539,-1.5468,-1.5435,-1.5425,-1.5626,-1.5592,-1.5468,-1.5335,-1.537,-1.551,-1.5843,-1.6715,-1.7407,-1.7407,-1.8563,-1.9344,-1.8954,-1.9356,-1.9872,-2.0354,-2.0469,-2.0687,-2.1144,-2.1608,-2.2354,-2.3434,-2.4189,-2.5052,-2.598,-2.6765,-2.7159,-2.7074,-2.7607,-2.8227,-2.8802,-2.8816,-2.8816,-2.8816,-2.8816,-2.8493,-2.7932,-2.7932,-2.7551,-2.6933,-2.6933,-2.6596,-2.602,-2.6156,-2.625,-2.6272,-2.6445,-2.6618,-2.6779,-2.6779,-2.6806,-2.6806,-2.6806,-2.6806,-2.6806,-2.6806,-2.6806,-2.6806,-2.6806,-2.6806,-2.6806,-2.6806,-2.6806,-2.6806,-2.6806,-2.6806,-2.6806,-2.6806,-2.6806,-2.6806,-2.6884,-2.6948,-2.6974,-2.6896,-2.6896,-2.6884,-2.6806,-2.6806,-2.6806,-2.6806,-2.6806,-2.6806,-2.6806,-2.6806,-2.6806,-2.6806,-2.6806,-2.6806,-2.6806,-2.6806,-2.6806,-2.6806,-2.6806,-2.6806,-2.6806,-2.6806,-2.6806,-2.6806,-2.6806,-2.6806,-2.6806,-2.6806,-2.6806,-2.6806,-2.6806,-2.6806,-1.5671,-1.5659,-1.5681,-1.5536,-1.5603,-1.5681,-1.5558,-1.5592,-1.5604,-1.5357,-1.5649,-1.5951,-1.5912,-1.6715,-1.7407,-1.7407,-1.7955,-1.849,-1.885,-1.9356,-1.9872,-2.0354,-2.0779,-2.1098,-2.119,-2.1608,-2.2354,-2.3434,-2.4003,-2.4966,-2.6562,-2.6985,-2.7561,-2.8352,-2.8478,-2.883,-2.9448,-2.9448,-2.9448,-2.9448,-2.9448,-2.9125,-2.8535,-2.8535,-2.8227,-2.7636,-2.7636,-2.7242,-2.6652,-2.6792,-2.6551,-2.6165,-2.6404,-2.651,-2.6578,-2.6738,-2.6806,-2.6806,-2.6806,-2.6806,-2.6806,-2.6806,-2.6806,-2.6806,-2.6806,-2.6806,-2.6806,-2.6806,-2.6806,-2.6806,-2.6806,-2.6806,-2.6806,-2.6806,-2.6806,-2.6896,-2.7276,-2.7715,-2.7913,-2.7454,-2.7378,-2.7265,-2.6884,-2.6806,-2.6806,-2.6806,-2.6806,-2.6806,-2.6806,-2.6806,-2.6806,-2.6806,-2.6806,-2.6806,-2.6806,-2.6806,-2.6806,-2.6806,-2.6806,-2.6806,-2.6806,-2.6806,-2.6806,-2.6806,-2.6806,-2.6806,-2.6806,-2.6806,-2.6806,-2.6806,-2.6806,-2.6806,-1.5614,-1.5614,-1.5637,-1.5614,-1.5681,-1.5703,-1.5536,0.0,0.0,-1.5255,-1.5406,-1.5637,-1.5854,-1.6715,-1.7407,-1.7407,-1.8253,-1.9006,-1.9275,-1.9746,-2.0251,-2.0776,-2.104,-2.119,-2.119,-2.1898,-2.2806,-2.3909,-2.4664,-2.5597,-2.6738,-2.7566,-2.834,-2.9139,-2.9167,-2.9307,-2.9602,-2.9602,-2.9602,-2.9602,-2.9602,-2.9462,-2.9167,-2.9167,-2.883,-2.8283,-2.8283,-2.7902,-2.7284,-2.7004,-2.6778,-2.6564,-2.6359,-2.6392,-2.651,-2.6618,-2.6712,-2.6806,-2.6806,-2.6806,-2.6806,-2.6806,-2.6806,-2.6806,-2.6806,-2.6806,-2.6806,-2.6806,-2.6806,-2.6806,-2.6806,-2.6806,-2.6806,-2.6806,-2.6985,-2.7214,-2.7439,-2.7923,-2.8143,-2.76,-2.7515,-2.7352,-2.687,-2.6806,-2.6806,-2.6806,-2.7011,-2.7178,-2.7178,-2.7178,-2.7074,-2.6832,-2.6806,-2.6806,-2.6806,-2.6806,-2.6806,-2.6806,-2.6806,-2.6806,-2.6806,-2.6806,-2.6806,-2.6806,-2.6806,-2.6806,-2.6806,-2.6806,-2.6806,-2.6806,-2.6806,-2.6806,-1.558,-1.5558,-1.5592,-1.5693,-1.5693,-1.5671,-1.5491,-1.5446,-1.5379,-1.5153,-1.52,-1.5441,-1.5933,-1.6784,-1.7442,-1.7519,-1.8655,-1.9562,-1.9677,-2.0102,-2.0595,-2.1132,-2.119,-2.119,-2.119,-2.2165,-2.3168,-2.4144,-2.5503,-2.6542,-2.7145,-2.8271,-2.9111,-2.9602,-2.9602,-2.9602,-2.9602,-2.9602,-2.9602,-2.9602,-2.9602,-2.9602,-2.9602,-2.9602,-2.935,-2.8886,-2.8886,-2.8535,-2.796,-2.7425,-2.7116,-2.6905,-2.6507,-2.6386,-2.6472,-2.6551,-2.6645,-2.6806,-2.6806,-2.6806,-2.6806,-2.6806,-2.6806,-2.6806,-2.6806,-2.6806,-2.6806,-2.6806,-2.6806,-2.6806,-2.6806,-2.6806,-2.6832,-2.6922,-2.7418,-2.7849,-2.7849,-2.8264,-2.8496,-2.7947,-2.7849,-2.764,-2.7037,-2.7052,-2.7089,-2.6974,-2.7367,-2.7665,-2.7665,-2.7665,-2.753,-2.7167,-2.6937,-2.6832,-2.6948,-2.6858,-2.6806,-2.6806,-2.6806,-2.6806,-2.6806,-2.6806,-2.6806,-2.6806,-2.6806,-2.6806,-2.6806,-2.6806,-2.6806,-2.6806,-2.6806,-2.6806,-1.577,-1.577,-1.577,-1.5715,-1.5693,-1.5626,-1.538,0.0,-1.5278,-1.5131,-1.5498,-1.5956,-1.6449,-1.7014,-1.753,-1.7974,-1.8547,-1.9137,-1.9631,-2.0102,-2.0595,-2.1132,-2.119,-2.119,-2.119,-2.2113,-2.2935,-2.3545,-2.6026,-2.7787,-2.8397,-2.9115,-2.9546,-2.9602,-2.9602,-2.9602,-2.9602,-2.9602,-2.9602,-2.9602,-2.9602,-2.9602,-2.9602,-2.9602,-2.9574,-2.9532,-2.9532,-2.9167,-2.8605,-2.8549,-2.7846,-2.6835,-2.7086,-2.684,-2.6367,-2.6674,-2.6779,-2.6806,-2.6806,-2.6806,-2.6806,-2.6806,-2.6806,-2.6806,-2.6806,-2.6806,-2.6806,-2.6806,-2.6806,-2.6806,-2.6806,-2.6806,-2.6896,-2.7327,-2.8216,-2.8958,-2.8958,-2.9364,-2.9582,-2.9051,-2.8958,-2.8638,-2.7615,-2.7839,-2.8012,-2.7515,-2.7889,-2.8216,-2.8216,-2.8216,-2.8207,-2.8183,-2.7357,-2.6959,-2.7403,-2.7037,-2.6806,-2.6806,-2.6806,-2.6806,-2.6806,-2.6806,-2.6806,-2.6806,-2.6806,-2.6806,-2.6806,-2.6806,-2.6806,-2.6806,-2.6806,-2.6806,-1.5726,-1.5792,-1.5792,-1.577,-1.5738,-1.5649,-1.5458,-1.5345,-1.5348,-1.5544,-1.5762,-1.6049,-1.6507,-1.6759,-1.7094,-1.7599,-1.7852,-1.8407,-1.9528,-1.9861,-2.0274,-2.1098,-2.1433,-2.1617,-2.1617,-2.3138,-2.4612,-2.5817,-2.7362,-2.8361,-2.8587,-2.9226,-2.9602,-2.9602,-2.9602,-2.9602,-2.9602,-2.9602,-2.9602,-2.9602,-2.9602,-2.9602,-2.9602,-2.9602,-2.9602,-2.9602,-2.9602,-2.9462,-2.9209,-2.8844,-2.8243,-2.7498,-2.7131,-2.6759,-2.6418,-2.6474,-2.6621,-2.6806,-2.6806,-2.6806,-2.6806,-2.6806,-2.6806,-2.6806,-2.6806,-2.6806,-2.6806,-2.6806,-2.6806,-2.6858,-2.7152,-2.7469,-2.7755,-2.7938,-2.8567,-2.9097,-2.9097,-2.9515,-2.9748,-2.9205,-2.9097,-2.8865,-2.8094,-2.8143,-2.8216,-2.7997,-2.8448,-2.8779,-2.8779,-2.8779,-2.8912,-2.9227,-2.8036,-2.7316,-2.7489,-2.7074,-2.6806,-2.6806,-2.6806,-2.6806,-2.6806,-2.6806,-2.6806,-2.6806,-2.6806,-2.6806,-2.6806,-2.6806,-2.6806,-2.6806,-2.6806,-2.6806,-1.5491,-1.5681,-1.5792,-1.5792,-1.5726,-1.5614,-1.5513,-1.5368,-1.536,-1.5797,-1.5911,-1.6107,-1.6713,-1.6853,-1.7014,0.0,-1.7863,-1.8465,-1.9539,-1.9971,-2.0419,-2.1109,-2.1479,-2.1766,-2.1883,-2.3826,-2.5677,-2.7056,-2.8052,-2.8651,-2.8748,-2.9289,-2.9602,-2.9602,-2.9602,-2.9602,-2.9602,-2.9602,-2.9602,-2.9602,-2.9602,-2.9602,-2.9602,-2.9602,-2.9602,-2.9602,-2.9602,-2.9602,-2.9574,-2.9139,-2.8665,-2.8134,-2.7484,-2.7002,-2.6718,-2.672,-2.6753,-2.6849,-2.6997,-2.6939,-2.6806,-2.6806,-2.6806,-2.6806,-2.6806,-2.6806,-2.6806,-2.6806,-2.6806,-2.6896,-2.7378,-2.7898,-2.8336,-2.8496,-2.8958,-2.9341,-2.9341,-2.9643,-2.9792,-2.9425,-2.9341,-2.9182,-2.8638,-2.8662,-2.8709,-2.8567,-2.9005,-2.9341,-2.9341,-2.9341,-2.9425,-2.9643,-2.8519,-2.7725,-2.7725,-2.7152,-2.6806,-2.6806,-2.6806,-2.6806,-2.6806,-2.6806,-2.6806,-2.6806,-2.6806,-2.6806,-2.6806,-2.6806,-2.6806,-2.6806,-2.6806,-2.6806,-1.5108,-1.5446,-1.5792,-1.5792,-1.5647,-1.5491,-1.5491,-1.5289,-1.5257,-1.5797,-1.5911,-1.621,-1.7212,-1.7396,-1.7542,-1.802,-1.8971,-1.9677,-1.9688,-2.0557,-2.1178,-2.119,-2.1201,-2.1408,-2.1848,-2.3826,-2.5462,-2.6339,-2.7762,-2.8748,-2.9067,-2.9415,-2.9602,-2.9602,-2.9602,-2.9602,-2.9602,-2.9602,-2.9602,-2.9602,-2.9602,-2.9602,-2.9602,-2.9602,-2.9602,-2.9602,-2.9602,-2.9602,-2.9602,-2.9602,-2.9237,-2.8649,-2.8324,-2.7811,-2.7324,-2.7572,-2.7304,-2.6881,-2.7478,-2.7316,-2.6806,-2.6806,-2.6806,-2.6806,-2.6806,-2.6806,-2.6806,-2.6806,-2.6806,-2.6896,-2.7378,-2.7898,-2.8432,-2.8958,-2.9493,-2.988,-2.988,-2.9896,-2.9896,-2.988,-2.988,-2.971,-2.9166,-2.9515,-2.9687,-2.9182,-2.9554,-2.988,-2.988,-2.988,-2.9687,-2.9143,-2.8614,-2.8288,-2.8288,-2.7367,-2.6806,-2.6806,-2.6806,-2.6806,-2.6806,-2.6806,-2.6806,-2.6806,-2.6806,-2.6806,-2.6806,-2.6806,-2.6806,-2.6806,-2.6806,-2.6806,-1.4915,-1.5221,-1.539,-1.5659,-1.5864,-1.5857,-1.545,-1.551,-1.5797,-1.6266,-1.6369,-1.6679,-1.7687,-1.7611,-1.7783,-1.9,-1.9172,-1.9631,-2.102,-2.1181,-2.1328,-2.164,-2.1996,-2.2721,-2.3965,-2.5015,-2.6192,-2.7464,-2.8229,-2.8748,-2.9067,-2.9415,-2.9602,-2.9602,-2.9602,-2.9602,-2.9602,-2.9602,-2.9602,-2.9602,-2.9602,-2.9602,-2.9602,-2.9602,-2.9602,-2.9602,-2.9602,-2.9602,-2.9602,-2.9602,-2.9313,-2.8783,-2.8279,-2.7812,-2.7391,-2.7012,-2.6859,-2.6849,-2.7012,-2.6953,-2.6806,-2.6806,-2.6806,-2.6806,-2.6806,-2.6806,-2.6884,-2.7203,-2.753,-2.7938,-2.8472,-2.8709,-2.8982,-2.9515,-2.9792,-2.9896,-2.9896,-2.9896,-2.9896,-2.9896,-2.9896,-2.9852,-2.9665,-2.9792,-2.9836,-2.9665,-2.9792,-2.9896,-2.9896,-2.9576,-2.9296,-2.9136,-2.8288,-2.775,-2.775,-2.7178,-2.6806,-2.6806,-2.6806,-2.6806,-2.6806,-2.6806,-2.6806,-2.6806,-2.6806,-2.6806,-2.6806,-2.6806,-2.6806,-2.6806,-2.6806,-2.6806,-1.4246,-1.4731,-1.5074,-1.5255,-1.5578,-1.5765,-1.5382,-1.5441,-1.5797,-1.6461,-1.6598,-1.6908,-1.7901,-1.7848,-1.8047,-1.9206,-1.9275,-1.9769,-2.141,-2.1397,-2.1316,-2.1606,-2.226,-2.3219,-2.456,-2.5543,-2.6676,-2.8052,-2.8554,-2.894,-2.9257,-2.9477,-2.9602,-2.9602,-2.9602,-2.9602,-2.9602,-2.9602,-2.9602,-2.9602,-2.9602,-2.9602,-2.9602,-2.9602,-2.9602,-2.9602,-2.9602,-2.9602,0.0,-2.9602,-2.9423,-2.9106,-2.8574,-2.8195,-2.7997,-2.7693,-2.7371,-2.7118,-2.7418,-2.7212,-2.6806,-2.6806,-2.6806,-2.6832,-2.7011,-2.7049,-2.7178,-2.7665,-2.8046,-2.8424,-2.8958,-2.9097,-2.9227,-2.977,-2.9896,-2.9896,-2.9896,-2.9896,-2.9961,-3.0237,-3.0075,-2.9977,-3.0214,-3.0075,-2.9896,-2.9896,-2.9896,-2.9896,-2.9896,-2.9621,-2.9319,-2.912,-2.8312,-2.7715,-2.7515,-2.7074,-2.6806,-2.6806,-2.6806,-2.6806,-2.6806,-2.6806,-2.6806,-2.6806,-2.6806,-2.6806,-2.6806,-2.6806,-2.6806,-2.6806,-2.6806,-2.6806,0.0,-1.4095,-1.4835,-1.4732,-1.5006,-1.5324,-1.5289,-1.5245,0.0,-1.6403,-1.6633,-1.6965,-1.7974,-1.8169,-1.8352,-1.8965,-1.947,-2.0178,-2.1167,-2.127,-2.1236,-2.1233,-2.2063,-2.2998,-2.3867,-2.5415,-2.6891,-2.8122,-2.8771,-2.9257,-2.9571,-2.9602,-2.9602,-2.9602,-2.9602,-2.9602,-2.9602,-2.9602,-2.9602,-2.9602,-2.9602,-2.9602,-2.9602,-2.9602,-2.9602,-2.9602,-2.9602,-2.9602,-2.9602,-2.9602,-2.9602,-2.9546,-2.908,-2.8914,-2.893,-2.9215,-2.8569,-2.7648,-2.8364,-2.7839,-2.6837,-2.6794,-2.6806,-2.6896,-2.7403,-2.7565,-2.7665,-2.8207,-2.8376,-2.8496,-2.9028,-2.912,-2.9227,-2.977,-2.9896,-2.9896,-2.9896,-2.9896,-3.0107,-3.0775,-3.0393,-3.0204,-3.0856,-3.0409,-2.9961,-2.9961,-2.9913,-2.9896,-2.9896,-2.9874,-2.9643,-2.9143,-2.8614,-2.807,-2.7565,-2.7074,-2.6806,-2.6806,-2.6806,-2.6806,-2.6806,-2.6806,-2.6806,-2.6806,-2.6806,-2.6806,-2.6806,-2.6806,-2.6806,-2.6806,-2.6806,-2.6806,-1.2871,0.0,-1.4513,-1.4789,-1.5233,-1.5555,0.0,-1.5586,-1.6002,-1.6503,0.0,-1.7519,-1.8529,-1.8713,-1.9137,-2.0454,-2.0764,-2.1201,-2.2213,-2.1984,-2.1627,-2.1383,-2.1916,-2.2627,-2.3401,-2.5023,-2.6412,-2.7397,-2.8493,-2.9257,-2.9571,-2.9602,-2.9602,-2.9602,-2.9602,-2.9602,-2.9602,-2.9602,-2.9602,-2.9602,-2.9602,-2.9602,-2.9602,-2.9602,-2.9602,-2.9602,-2.9602,-2.9602,-2.9602,-2.9602,-2.9602,-2.9546,-2.908,-2.8914,-2.8873,-2.8582,-2.8297,-2.8025,-2.7835,-2.7588,-2.7283,-2.6912,-2.6806,-2.6948,-2.7839,-2.8094,-2.8216,-2.8756,-2.8912,-2.9028,-2.9576,-2.9403,-2.9227,-2.977,-2.9896,-2.9896,-2.9896,-2.9896,-3.0107,-3.0775,-3.0775,-3.0888,-3.1623,-3.1131,-3.0645,-3.0645,-3.0237,-2.9896,-2.9896,-2.9538,-2.9227,-2.9097,-2.8614,-2.807,-2.7565,-2.7074,-2.6806,-2.6806,-2.6806,-2.6806,-2.6806,-2.6806,-2.6806,-2.6806,-2.6806,-2.6806,-2.6806,-2.6806,-2.6806,-2.6806,-2.6806,-2.6806,-1.2808,-1.3486,-1.4225,-1.4297,-1.4707,-1.511,-1.5066,0.0,0.0,0.0,0.0,-1.7622,-1.8403,-1.8736,-1.9241,-2.0339,-2.0707,-2.1121,-2.1989,-2.2103,-2.1992,-2.1576,-2.1973,-2.2718,-2.3835,-2.5001,-2.6321,-2.7779,-2.8522,-2.9122,-2.9588,-2.9602,-2.9602,-2.9602,-2.9602,-2.9602,-2.9602,-2.9602,-2.9602,-2.9602,-2.9602,-2.9602,-2.9602,-2.9602,-2.9602,-2.9602,-2.9602,-2.9602,-2.9602,-2.9602,-2.9602,-2.9574,-2.9299,-2.9233,-2.9191,-2.9004,-2.8765,-2.851,-2.8397,-2.8049,-2.7556,-2.7304,-2.7026,-2.7,-2.7987,-2.8288,-2.8472,-2.925,-2.9519,-2.9688,-3.0216,-3.0126,-3.0012,-3.0299,-3.0123,-2.9977,-3.0279,-3.0123,-3.0301,-3.1656,-3.1357,-3.1244,-3.2319,-3.1898,-3.139,-3.139,-3.1089,-3.0755,-3.0393,-3.0103,-2.9927,-2.9927,-2.9438,-2.8921,-2.8419,-2.7916,-2.7386,-2.682,-2.6806,-2.6806,-2.6806,-2.6806,-2.6806,-2.6806,-2.6806,-2.6806,-2.6806,-2.6806,-2.6806,-2.6806,-2.6806,-2.6806,-1.2959,-1.3596,-1.4114,-1.378,-1.4094,-1.4566,-1.493,0.0,0.0,0.0,0.0,0.0,-1.8134,-1.8667,-1.9212,-1.9782,-2.0235,-2.0757,-2.133,-2.19,-2.2125,-2.1777,-2.2063,-2.2843,-2.419,-2.4999,-2.6166,-2.7991,-2.8402,-2.883,-2.9434,-2.9462,-2.9504,-2.9602,-2.9602,-2.9602,-2.9602,-2.9602,-2.9602,-2.9602,-2.9602,-2.9602,-2.9602,-2.9602,-2.9602,-2.9602,-2.9602,-2.9602,-2.9602,-2.9602,-2.9602,-2.9602,-2.9602,-2.9602,-2.9602,-2.973,-2.945,-2.9027,-2.9272,-2.8713,-2.784,-2.7739,-2.7414,-2.721,-2.7944,-2.8255,-2.8535,-2.9621,-3.0007,-3.0204,-3.0774,-3.0819,-3.0806,-3.1027,-3.0457,-3.0107,-3.0888,-3.0522,-3.0658,-3.2716,-3.2093,-3.1665,-3.3016,-3.2643,-3.2174,-3.2174,-3.2077,-3.1738,-3.1015,-3.102,-3.1043,-3.0935,-3.0607,-3.0147,-2.9599,-2.9053,-2.82,-2.7006,-2.6837,-2.6806,-2.6806,-2.6806,-2.6806,-2.6806,-2.6806,-2.6806,-2.6806,-2.6806,-2.6806,-2.6806,-2.6806,-2.6806,-1.3311,-1.4037,-1.4594,-1.4201,-1.4471,-1.5028,-1.5876,0.0,0.0,0.0,0.0,0.0,0.0,-1.9321,-1.9918,-2.047,-2.0927,-2.1275,-2.1376,-2.1489,-2.1619,-2.1843,-2.1934,-2.2138,-2.2542,-2.4109,-2.5201,-2.5535,-2.7021,-2.8213,-2.8802,-2.883,-2.9069,-2.9588,-2.9602,-2.9602,-2.9602,-2.9602,-2.9602,-2.9602,-2.9602,-2.9602,-2.9602,-2.9602,-2.9602,-2.9602,-2.9602,-2.9602,-2.9602,-2.9602,-2.9602,-2.9602,-2.9602,-2.9602,-2.9602,-2.9634,-2.9577,-2.9454,-2.9236,-2.8872,-2.8448,-2.7869,-2.7932,-2.8148,-2.7745,-2.7923,-2.8556,-2.973,-3.0054,-3.0149,-3.0751,-3.051,-3.0426,-3.1571,-3.083,-3.0253,-3.1558,-3.126,-3.1195,-3.2789,-3.2902,-3.3,-3.3809,-3.3372,-3.2919,-3.2919,-3.24,-3.1782,-3.114,-3.1534,-3.1629,-3.1124,-3.1446,-3.1286,-3.0243,-2.9617,-2.8783,-2.7632,-2.7084,-2.6806,-2.6806,-2.6806,-2.6806,-2.6806,-2.6806,-2.6806,-2.6806,-2.6806,-2.6806,-2.6806,-2.6806,-2.6806,-1.3057,-1.3789,-1.4449,-1.4523,-1.5256,-1.6147,-1.6808,0.0,0.0,0.0,0.0,0.0,0.0,-2.0,-2.0482,-2.09,-2.1217,-2.1388,-2.1388,-2.1557,-2.1726,-2.1894,-2.1999,-2.2235,-2.2641,-2.3748,-2.4734,-2.5437,-2.6917,-2.7932,-2.8213,-2.883,-2.9167,-2.9125,-2.9434,-2.9602,-2.9602,-2.9602,-2.9602,-2.9602,-2.9602,-2.9602,-2.9602,-2.9602,-2.9602,-2.9602,-2.9602,-2.9602,-2.9602,-2.9602,-2.9602,-2.9602,-2.9602,-2.9602,-2.9602,-2.9682,-2.9789,-2.9853,-2.9784,-2.9506,-2.9145,-2.8826,-2.844,-2.8054,-2.8044,-2.7951,-2.8183,-2.9674,-3.0354,-3.0862,-3.1838,-3.1887,-3.1831,-3.2466,-3.1494,-3.0733,-3.1785,-3.1137,-3.0895,-3.2724,-3.2773,-3.2854,-3.3922,-3.3841,-3.3631,-3.3631,-3.306,-3.2433,-3.1776,-3.1944,-3.1895,-3.128,-3.1754,-3.1637,-3.0514,-3.016,-2.9195,-2.7326,-2.6939,-2.6806,-2.6806,-2.6806,-2.6806,-2.6806,-2.6806,-2.6806,-2.6806,-2.6806,-2.6806,-2.6806,-2.6806,-2.6806,-1.2764,-1.3496,-1.4265,-1.4861,0.0,-1.69,-1.7483,-1.8054,0.0,0.0,0.0,0.0,-1.9839,-2.027,-2.0736,-2.1093,-2.1361,-2.1526,-2.1526,-2.1726,-2.1937,-2.1968,-2.2092,-2.2389,-2.2841,-2.3564,-2.4408,-2.5385,-2.663,-2.7426,-2.7566,-2.8591,-2.9026,-2.8703,-2.9293,-2.9602,-2.9602,-2.9602,-2.9602,-2.9602,-2.9602,-2.9602,-2.9602,-2.9602,-2.9602,-2.9602,-2.9602,-2.9602,-2.9602,-2.9602,-2.9602,-2.9602,-2.9602,-2.9602,-2.9602,-2.9761,-2.9929,-3.0111,-3.0266,-3.0099,-2.9798,-2.9508,-2.8897,-2.832,-2.8335,-2.8226,-2.843,-2.98,-3.0782,-3.1688,-3.2797,-3.3007,-3.295,-3.325,-3.2222,-3.139,-3.2303,-3.151,-3.1177,-3.2967,-3.287,-3.2838,-3.3906,-3.4101,-3.4101,-3.4101,-3.3697,-3.3129,-3.2348,-3.2362,-3.2139,-3.1408,-3.1891,-3.1787,-3.0601,-3.0378,-2.9358,-2.714,-2.7012,-2.6939,-2.682,-2.6806,-2.6806,-2.6806,-2.6806,-2.6806,-2.6806,-2.6806,-2.6806,-2.6806,-2.6806,-2.6806,-1.2764,-1.3496,-1.4346,-1.5372,-1.6001,0.0,-1.7651,-1.8008,0.0,-1.872,0.0,-1.9,-1.8758,-1.9641,-2.0523,-2.0852,-2.145,-2.1862,-2.1862,-2.1894,-2.1956,-2.2166,-2.2197,-2.2216,-2.2247,-2.331,-2.4047,-2.4144,-2.5326,-2.6273,-2.6849,-2.7537,-2.8185,-2.8675,-2.9293,-2.9602,-2.9602,-2.9602,-2.9602,-2.9602,-2.9602,-2.9602,-2.9602,-2.9602,-2.9602,-2.9602,-2.9602,-2.9602,-2.9602,-2.9602,-2.9602,-2.9602,-2.9602,-2.9602,-2.9602,-2.9761,-2.9929,-3.0111,-3.0266,-3.0418,-3.0336,-2.9159,-2.9426,-2.9911,-2.8263,-2.88,-3.0071,-3.0392,-3.1266,-3.2282,-3.2926,-3.2663,-3.2555,-3.3733,-3.2951,-3.2303,-3.3663,-3.3372,-3.308,-3.3874,-3.3987,-3.3987,-3.4084,-3.4101,-3.4101,-3.4101,-3.4075,-3.3646,-3.254,-3.2817,-3.2721,-3.1605,-3.2043,-3.1879,-3.0618,-2.9984,-2.9087,-2.7724,-2.7637,-2.7389,-2.6835,-2.6806,-2.6806,-2.6806,-2.6806,-2.6806,-2.6806,-2.6806,-2.6806,-2.6806,-2.6806,-2.6806,-1.2353,-1.3486,-1.4625,-1.5041,-1.5942,0.0,0.0,-1.9079,-1.9744,-2.0289,-2.0725,-2.0816,-2.025,-2.0784,-2.1222,-2.0941,-2.1396,-2.1781,-2.1781,-2.1843,-2.1925,-2.1999,-2.2123,-2.2359,-2.272,-2.3505,-2.3992,-2.4004,-2.5536,-2.6399,-2.6245,-2.7214,-2.8087,-2.8675,-2.8914,-2.9223,-2.9602,-2.9602,-2.9602,-2.9602,-2.9602,-2.9602,-2.9602,-2.9602,-2.9602,-2.9602,-2.9602,-2.9602,-2.9602,-2.9602,-2.9602,-2.9602,-2.9602,-2.9651,-2.973,-2.9929,-3.0097,-3.0235,-3.0417,-3.0538,-3.0525,-3.0045,-2.9886,-2.9694,-2.8635,-2.849,-2.8803,-2.9598,-3.0433,-3.1398,-3.2793,-3.3262,-3.3494,-3.3986,-3.3372,-3.2692,-3.2789,-3.2595,-3.2498,-3.274,-3.3161,-3.3599,-3.4036,-3.4101,-3.4101,-3.4101,-3.379,-3.3266,-3.2492,-3.2574,-3.2241,-3.1058,-3.1146,-3.1101,-3.0616,-3.0353,-2.9842,-2.8942,-2.8145,-2.742,-2.6835,-2.6806,-2.6806,-2.6806,-2.6806,-2.6806,-2.6806,-2.6806,-2.6806,-2.6806,-2.6806,-2.6806,-1.2314,-1.3486,-1.4648,-1.4912,0.0,0.0,-1.8001,-1.9032,-1.9959,-2.0734,-2.1175,-2.1338,-2.0997,-2.123,-2.1408,-2.1104,-2.15,-2.1855,-2.1855,-2.1937,-2.1999,-2.1999,-2.2135,-2.2359,-2.2781,-2.3535,-2.4008,-2.3992,-2.5398,-2.6132,-2.5907,-2.6736,-2.7551,-2.838,-2.8591,-2.8984,-2.9602,-2.9602,-2.9602,-2.9602,-2.9602,-2.9602,-2.9602,-2.9602,-2.9602,-2.9602,-2.9602,-2.9602,-2.9602,-2.9602,-2.9602,-2.9602,-2.9665,-2.9699,-2.9822,-3.0052,-3.0219,-3.0312,-3.0538,-3.0467,-3.0277,-3.0277,-2.9944,-2.949,-2.9101,-2.8633,-2.8437,-2.944,-3.0211,-3.1042,-3.2499,-3.3486,-3.4101,-3.4101,-3.3744,-3.3275,-3.2773,-3.2498,-3.2417,-3.2627,-3.2902,-3.3307,-3.3987,-3.4101,-3.405,-3.3841,-3.3475,-3.2933,-3.2216,-3.212,-3.1737,-3.0717,-3.0598,-3.0598,-3.0598,-3.0598,-3.0219,-2.9377,-2.8507,-2.7752,-2.7113,-2.6895,-2.6806,-2.6806,-2.6806,-2.6806,-2.6806,-2.6806,-2.6806,-2.6806,-2.6806,-2.6806,-1.2764,-1.3496,-1.4319,0.0,0.0,0.0,-1.6681,-1.7562,-1.8417,-1.9602,-1.9832,-1.9973,-2.0526,-2.0593,-2.0803,-2.132,-2.1849,-2.2197,-2.2197,-2.2197,-2.2197,-2.2197,-2.2197,-2.2197,-2.2228,-2.328,-2.3979,-2.3979,-2.4628,-2.5274,-2.5851,-2.5893,-2.6483,-2.7777,-2.838,-2.8984,-2.9602,-2.9602,-2.9602,-2.9602,-2.9602,-2.9602,-2.9602,-2.9602,-2.9602,-2.9602,-2.9602,-2.9602,-2.9602,-2.9602,-2.9602,-2.9602,-2.9761,-2.9808,-2.9839,-3.019,-3.0282,-3.0312,-3.0538,-3.0161,-2.9595,-2.9624,-2.9514,-2.9431,-2.9536,-2.9485,-2.954,-3.0199,-3.0861,-3.1506,-3.2043,-3.3134,-3.4084,-3.4101,-3.4101,-3.4101,-3.4084,-3.3566,-3.3291,-3.3955,-3.355,-3.3307,-3.3987,-3.4101,-3.3908,-3.3303,-3.3182,-3.2799,-3.1652,-3.148,-3.1263,-3.0657,-3.0598,-3.0598,-3.0598,-3.0598,-3.006,-2.8811,-2.8723,-2.839,-2.7724,-2.7128,-2.6806,-2.6806,-2.6806,-2.6806,-2.6806,-2.6806,-2.6806,-2.6806,-2.6806,-2.6806,-1.2954,-1.3936,0.0,-1.5352,0.0,0.0,0.0,-1.7822,0.0,0.0,-2.1476,-2.1416,-2.1211,-2.1476,-2.1656,-2.144,-2.1849,-2.2197,-2.2197,-2.2197,-2.2197,-2.2197,-2.2197,-2.2359,-2.2781,-2.3147,-2.3375,-2.3365,-2.439,-2.5091,-2.5274,-2.6062,-2.7116,-2.838,-2.8605,-2.8984,-2.9602,-2.9602,-2.9602,-2.9602,-2.9602,-2.9602,-2.9602,-2.9602,-2.9602,-2.9602,-2.9602,-2.9602,-2.9602,-2.9602,-2.9602,-2.9602,-2.9761,-2.9884,-3.0036,-3.0235,-3.0387,-3.0507,-3.0568,-3.0161,-2.9653,-3.0027,-2.9807,-2.9349,-2.8922,-2.906,-2.9184,-2.855,-2.9393,-3.0515,-3.0677,-3.2054,-3.3518,-3.3987,-3.4101,-3.3971,-3.3485,-3.3599,-3.3712,-3.3437,-3.3615,-3.3874,-3.4068,-3.4101,-3.3908,-3.3303,-3.3182,-3.2799,-3.1652,-3.1146,-3.0807,-3.0612,-3.0598,-3.0598,-3.0598,-3.0598,-3.0452,-3.006,-2.9595,-2.8652,-2.7128,-2.6895,-2.6806,-2.6806,-2.6806,-2.6806,-2.6806,-2.6806,-2.6806,-2.6806,-2.6806,-2.6806,-1.3639,-1.4666,0.0,-1.5889,-1.6133,-1.6503,-1.7164,-1.8278,-1.9535,-2.0934,-2.1576,-2.1849,-2.174,-2.1813,-2.1849,-2.174,-2.1993,-2.2197,-2.2197,-2.2197,-2.2197,-2.2197,-2.2197,-2.2451,-2.3027,-2.311,-2.3194,-2.3433,-2.3943,-2.4472,-2.4978,-2.5444,-2.6399,-2.7902,-2.8197,-2.8619,-2.9237,-2.949,-2.9602,-2.9602,-2.9602,-2.9602,-2.9602,-2.9602,-2.9602,-2.9602,-2.9602,-2.9602,-2.9602,-2.9602,-2.9602,-2.9634,-2.9837,-3.0005,-3.0111,-3.0326,-3.0507,-3.0569,-3.0292,-2.9784,-2.9304,-2.9631,-2.9394,-2.8947,-2.8888,-2.9022,-2.9124,-2.8636,-2.9128,-2.9902,-3.0314,-3.1222,-3.2324,-3.3443,-3.3906,-3.3922,-3.3226,-3.3404,-3.3582,-3.3186,-3.3215,-3.3418,-3.3716,-3.3723,-3.3465,-3.2664,-3.2321,-3.1918,-3.1219,-3.0836,-3.0598,-3.0598,-3.0598,-3.0598,-3.0598,-3.0598,-3.0496,-3.0219,-2.9813,-2.9,-2.7619,-2.7287,-2.7041,-2.6806,-2.6806,-2.6806,-2.6806,-2.6806,-2.6806,-2.6806,-2.6806,-2.6806,-1.458,-1.5439,0.0,-1.659,-1.6697,-1.6867,-1.7451,-1.8608,-1.9585,-1.969,-2.0606,-2.1548,-2.2041,-2.1765,-2.1632,-2.2113,-2.2197,-2.2197,-2.2197,-2.2197,-2.2197,-2.2197,-2.2197,-2.242,-2.295,-2.3081,-2.3298,-2.3797,-2.3476,-2.3744,-2.4866,-2.4542,-2.5105,-2.6764,-2.7439,-2.8101,-2.8675,-2.9237,-2.956,-2.9602,-2.9602,-2.9602,-2.9602,-2.9602,-2.9602,-2.9602,-2.9602,-2.9602,-2.9602,-2.9602,-2.9602,-2.9634,-2.9958,-3.008,-3.0142,-3.0492,-3.0569,-3.0438,-2.9827,-2.9174,-2.8622,-2.8678,-2.851,-2.8422,-2.9027,-2.9208,-2.9262,-2.9618,-2.9548,-2.9548,-3.0384,-3.0479,-3.0781,-3.2441,-3.3404,-3.3775,-3.3226,-3.3105,-3.3113,-3.3113,-3.2634,-3.241,-3.3009,-3.3119,-3.2772,-3.1665,-3.097,-3.0598,-3.0598,-3.0598,-3.0598,-3.0598,-3.0598,-3.0598,-3.0598,-3.0598,-3.0321,-2.9711,-2.9682,-2.9421,-2.8825,-2.81,-2.7434,-2.6881,-2.6849,-2.6806,-2.6806,-2.6806,-2.6806,-2.6806,-2.6806,-2.6806,-1.4824,-1.5439,0.0,-1.659,-1.6697,-1.6553,-1.6029,-1.7204,-1.8635,-1.9533,-2.0606,-2.144,-2.1548,-2.1825,-2.2065,-2.2173,-2.2197,-2.2197,-2.2197,-2.2197,-2.2197,-2.2197,-2.2197,-2.2247,-2.2389,-2.2803,-2.296,-2.2626,-2.3845,-2.45,-2.4289,-2.5514,-2.6399,-2.6793,-2.7439,-2.8101,-2.8675,-2.883,-2.9125,-2.9602,-2.9602,-2.9602,-2.9602,-2.9602,-2.9602,-2.9602,-2.9602,-2.9602,-2.9602,-2.9602,-2.9602,-2.9634,-2.9958,-3.008,-3.0142,-3.0492,-3.0263,-2.9784,-2.9639,-2.8855,-2.7981,-2.8426,-2.8444,-2.8253,-2.7996,-2.8776,-2.9412,-2.7911,-2.829,-2.9022,-2.8382,-2.9193,-3.0266,-3.064,-3.1746,-3.2764,-3.304,-3.3146,-3.3175,-3.3175,-3.2745,-3.2404,-3.2544,-3.2559,-3.2312,-3.1623,-3.097,-3.0598,-3.0598,-3.0598,-3.0598,-3.0598,-3.0598,-3.0598,-3.0598,-3.0598,-3.0539,-3.0379,-3.0364,-3.0089,-2.9421,-2.8304,-2.7637,-2.7507,-2.7041,-2.6806,-2.6806,-2.6806,-2.6806,-2.6806,-2.6806,-2.6806,-1.5088,0.0,0.0,-1.7187,0.0,-1.658,-1.6122,-1.6838,-1.7792,-1.8384,-1.9837,-2.1019,-2.1007,-2.1452,-2.1813,-2.1813,-2.2029,-2.2197,-2.2197,-2.2197,-2.2197,-2.2197,-2.2197,-2.242,-2.2992,-2.3081,-2.3102,-2.3096,-2.4024,-2.443,-2.4106,-2.5274,-2.6062,-2.6357,-2.6989,-2.7467,-2.779,-2.8099,-2.8422,-2.8731,-2.8731,-2.8886,-2.9181,-2.9476,-2.9602,-2.9602,-2.9602,-2.9602,-2.9602,-2.9602,-2.9602,-2.9634,-2.9867,-3.0005,-3.0142,-3.0371,-3.0305,-2.9987,-2.9377,-2.8739,-2.8113,-2.7795,-2.7788,-2.7849,-2.7575,-2.8264,-2.8912,-2.783,-2.7913,-2.8264,-2.7947,-2.8181,-2.8639,-2.9128,-3.0775,-3.2206,-3.2071,-3.2434,-3.2651,-3.2185,-3.2011,-3.1942,-3.1869,-3.1695,-3.1537,-3.1508,-3.097,-3.0598,-3.0598,-3.0598,-3.0598,-3.0598,-3.0598,-3.0598,-3.0598,-3.0598,-3.0598,-3.0598,-3.0292,-2.9972,-2.961,-2.8377,-2.7695,-2.7695,-2.7113,-2.6806,-2.6806,-2.6806,-2.6806,-2.6806,-2.6806,-2.6806,-1.5293,0.0,-1.6882,-1.7705,-1.7282,-1.6677,-1.6599,-1.6833,-1.7062,-1.7174,-1.8935,-2.0466,-2.047,-2.0887,-2.1272,-2.1272,-2.1716,-2.2053,-2.2053,-2.2137,-2.2197,-2.2197,-2.2197,-2.2622,-2.3728,-2.3475,-2.3482,-2.4044,-2.4294,-2.4359,-2.4247,-2.4838,-2.5386,-2.5879,-2.6385,-2.6694,-2.6807,-2.734,-2.7693,-2.7805,-2.7805,-2.8072,-2.8549,-2.9055,-2.9406,-2.9602,-2.9602,-2.9602,-2.9602,-2.9602,-2.9602,-2.9634,-2.9901,-3.0052,-3.0127,-3.0287,-3.0364,-3.0263,-2.8956,-2.8549,-2.8332,-2.7183,-2.7126,-2.7489,-2.7403,-2.7815,-2.8264,-2.8085,-2.779,-2.759,-2.7938,-2.7545,-2.7255,-2.7987,-2.9974,-3.1523,-3.0899,-3.153,-3.1916,-3.0975,-3.0911,-3.0971,-3.0858,-3.0536,-3.047,-3.1025,-3.072,-3.0481,-3.0598,-3.0598,-3.0598,-3.0598,-3.0598,-3.0598,-3.0598,-3.0598,-3.0598,-3.0598,-2.9972,-2.9595,-2.9595,-2.8377,-2.7695,-2.7695,-2.7113,-2.6806,-2.6806,-2.6806,-2.6806,-2.6806,-2.67,-2.6647,0.0,0.0,-1.6824,0.0,-1.71,-1.6599,-1.6271,-1.6314,-1.6557,-1.709,-1.8635,-1.9916,-1.9916,-2.0346,-2.0718,-2.0718,-2.1163,-2.1512,-2.1512,-2.1909,-2.2197,-2.2197,-2.2197,-2.2469,-2.3148,-2.3634,-2.3938,-2.4001,-2.5036,-2.5442,-2.4908,-2.543,-2.5809,-2.5893,-2.5978,-2.6273,-2.6793,-2.6891,-2.7228,-2.7805,-2.7805,-2.7847,-2.7932,-2.8016,-2.8605,-2.9602,-2.9602,-2.9602,-2.9602,-2.9602,-2.9602,-2.9696,-3.0524,-3.0539,-3.0131,-3.0394,-3.0159,-2.9537,-2.8275,-2.7826,-2.771,-2.7026,-2.7126,-2.7414,-2.7011,-2.7555,-2.8134,-2.7244,-2.724,-2.7414,-2.7089,-2.7545,-2.8012,-2.769,-2.8667,-2.9776,-3.0133,-3.0869,-3.1243,-3.0505,-2.966,-2.9068,-2.9065,-2.8983,-2.9115,-2.9536,-2.9653,-2.9943,-3.0539,-3.0598,-3.0598,-3.0598,-3.0598,-3.0598,-3.0598,-3.0598,-3.0598,-3.0598,-2.9972,-2.9595,-2.9595,-2.8377,-2.7695,-2.7695,-2.7113,-2.6806,-2.6806,-2.6806,-2.6806,-2.6779,-2.626,-2.6029,-1.5898,-1.6404,-1.6863,0.0,-1.7476,-1.7232,-1.7366,-1.736,-1.7473,-1.8031,-1.8775,-1.9336,-1.9336,-1.978,-2.0141,-2.0141,-2.0586,-2.1043,-2.1356,-2.1596,-2.1861,-2.2161,-2.25,-2.295,-2.3564,-2.4179,-2.4552,-2.4569,-2.5407,-2.5626,-2.5035,-2.5556,-2.5893,-2.5893,-2.5893,-2.602,-2.6287,-2.6301,-2.6441,-2.675,-2.675,-2.6905,-2.7242,-2.7242,-2.772,-2.8577,-2.8577,-2.8577,-2.8577,-2.8577,-2.8577,-2.8637,-2.9305,-2.9334,-2.907,-2.943,-2.9562,-2.9421,-2.8145,-2.7942,-2.81,-2.7125,-2.6948,-2.7063,-2.6858,-2.7115,-2.7382,-2.6922,-2.6948,-2.7063,-2.6858,-2.7141,-2.7393,-2.7152,-2.7703,-2.8415,-2.8832,-2.942,-2.9754,-2.9456,-2.8951,-2.8603,-2.8692,-2.8709,-2.8767,-2.8927,-2.9029,-2.9319,-2.9958,-3.0045,-3.0176,-3.0569,-3.0598,-3.0598,-3.0598,-3.0598,-3.0598,-3.0598,-2.9972,-2.9436,-2.9116,-2.8188,-2.7386,-2.67,-2.6765,-2.6621,-2.6313,-2.6647,-2.6621,-2.6313,-2.6367,-2.6233,0.0,0.0,-1.6768,-1.7637,-1.7601,-1.7542,-1.8246,-1.8207,-1.8188,-1.8765,-1.894,-1.8982,-1.8984,-1.9338,-1.9615,-1.9615,-2.0049,-2.0591,-2.1127,-2.132,-2.1596,-2.2125,-2.261,-2.313,-2.3699,-2.4366,-2.4829,-2.498,-2.5559,-2.5697,-2.526,-2.5655,-2.5893,-2.5893,-2.5893,-2.5893,-2.5893,-2.5893,-2.5893,-2.5893,-2.5893,-2.6132,-2.6582,-2.6582,-2.6835,-2.7341,-2.7665,-2.7805,-2.7805,-2.7805,-2.7805,-2.7864,-2.834,-2.8468,-2.8425,-2.8615,-2.905,-2.9345,-2.7953,-2.7911,-2.8245,-2.7142,-2.6806,-2.6806,-2.6806,-2.6806,-2.6806,-2.6806,-2.6806,-2.6806,-2.6806,-2.6896,-2.6992,-2.7009,-2.727,-2.7656,-2.8226,-2.851,-2.8672,-2.8693,-2.8368,-2.8089,-2.8197,-2.8229,-2.8302,-2.8505,-2.8622,-2.8971,-2.9755,-2.9856,-3.0045,-3.0554,-3.0598,-3.0598,-3.0598,-3.0598,-3.0539,-3.035,-2.974,-2.9102,-2.8463,-2.7824,-2.6989,-2.5935,-2.634,-2.6272,-2.566,-2.6123,-2.6096,-2.5688,-2.6123,-2.6029,0.0,-1.5781,0.0,-1.723,-1.7103,-1.7026,-1.815,-1.8093,-1.8029,-1.8743,-1.8912,-1.8918,-1.9003,-1.9011,-1.9035,-1.9035,-1.9495,-2.0021,-2.0586,-2.1091,-2.1596,-2.2125,-2.2216,-2.2469,-2.3088,-2.3699,-2.4323,-2.4951,-2.5578,-2.5879,-2.5837,-2.5879,-2.5893,-2.5893,-2.5893,-2.5893,-2.5893,-2.5893,-2.5893,-2.5893,-2.5893,-2.5921,-2.595,-2.595,-2.5964,-2.6062,-2.7285,-2.7805,-2.7805,-2.7805,-2.7805,-2.785,-2.858,-2.89,-2.8925,-2.8536,-2.8848,-2.9151,-2.743,-2.7244,-2.7637,-2.7012,-2.6806,-2.6806,-2.6806,-2.6806,-2.6806,-2.6806,-2.6806,-2.6806,-2.6806,-2.7126,-2.7516,-2.7627,-2.7568,-2.7848,-2.9065,-2.8889,-2.8548,-2.8677,-2.7706,-2.689,-2.6907,-2.6907,-2.7142,-2.7911,-2.8433,-2.9159,-3.0394,-3.0554,-3.0569,-3.0598,-3.0598,-3.0598,-3.0598,-3.0598,-3.0321,-2.9682,-2.9073,-2.8448,-2.7782,-2.7171,-2.6543,-2.5921,-2.5921,-2.566,-2.5049,-2.5077,-2.5077,-2.5049,-2.5077,-2.4766,0.0,0.0,0.0,-1.6971,-1.7214,-1.7583,-1.8712,-1.8922,-1.8981,-1.9233,-1.9405,-1.9392,-1.9056,-1.8987,-1.8987,-1.8987,-1.9143,-1.9456,-2.0009,-2.055,-2.1103,-2.162,-2.2323,-2.301,-2.361,-2.4266,-2.4893,-2.5536,-2.5784,-2.5893,-2.5893,-2.5893,-2.5893,-2.5893,-2.5893,-2.5893,-2.5893,-2.5893,-2.5893,-2.5893,-2.5893,-2.5893,-2.5893,-2.5893,-2.5893,-2.5921,-2.6371,-2.6596,-2.6596,-2.6596,-2.6596,-2.6624,-2.716,-2.7523,-2.7759,-2.7579,-2.8062,-2.8624,-2.7281,-2.72,-2.7594,-2.6997,-2.6806,-2.6806,-2.6806,-2.6806,-2.6806,-2.6806,-2.6806,-2.6806,-2.6806,-2.6922,-2.707,-2.7108,-2.7491,-2.7918,-2.8228,-2.849,-2.8406,-2.7632,-2.7125,-2.6806,-2.6806,-2.6806,-2.6907,-2.7198,-2.7708,-2.8231,-2.8695,-2.945,-2.9972,-2.9972,-3.0321,-3.0598,-3.0598,-3.0598,-3.0306,-2.9639,-2.9043,-2.8239,-2.7172,-2.654,-2.5756,-2.4765,-2.4751,-2.4637,-2.4436,-2.4823,-2.4794,-2.4423,-2.4823,-2.4681,-1.4316,0.0,0.0,-1.6517,-1.6939,-1.7532,-1.8892,-1.9492,-1.9764,-1.9764,-1.9918,-1.9904,-1.9387,-1.9107,-1.8987,-1.8987,-1.8987,-1.9206,-1.9736,-2.0105,-2.0598,-2.132,-2.2072,-2.284,-2.3627,-2.4266,-2.4921,-2.5564,-2.5784,-2.5893,-2.5893,-2.5893,-2.5893,-2.5893,-2.5893,-2.5893,-2.5893,-2.5893,-2.5893,-2.5893,-2.5893,-2.5893,-2.5893,-2.5893,-2.5893,-2.5893,-2.5893,-2.5893,-2.5893,-2.5893,-2.5975,-2.6123,-2.6258,-2.6811,-2.753,-2.7163,-2.7624,-2.8308,-2.7351,-2.7199,-2.7345,-2.6924,-2.6806,-2.6806,-2.6806,-2.6806,-2.6806,-2.6806,-2.6806,-2.6806,-2.6806,-2.6939,-2.7041,-2.6837,-2.752,-2.8071,-2.7534,-2.7911,-2.8173,-2.7576,-2.7096,-2.6852,-2.707,-2.6924,-2.6852,-2.707,-2.7434,-2.7782,-2.8,-2.8782,-2.9305,-2.9305,-2.9871,-3.0248,-3.0248,-3.0481,-3.0234,-2.9363,-2.8723,-2.7834,-2.6554,-2.592,-2.5128,-2.4102,-2.4102,-2.3985,-2.378,-2.4163,-2.4163,-2.378,-2.4394,-2.4481,0.0,0.0,0.0,-1.5841,-1.6195,-1.6788,-1.8557,-1.9627,-2.0293,-2.0293,-2.0441,-2.0434,-1.9929,-1.9411,-1.9035,-1.9011,-1.8999,-1.9167,-1.9712,-1.9796,-2.0177,-2.126,-2.1392,-2.1867,-2.2977,-2.364,-2.4224,-2.4893,-2.5508,-2.5824,-2.581,-2.5865,-2.5865,-2.5865,-2.5879,-2.5893,-2.5893,-2.5893,-2.5893,-2.5893,-2.5893,-2.5893,-2.5893,-2.5893,-2.5893,-2.5893,-2.5893,-2.5893,-2.5893,-2.5893,-2.6123,-2.6431,-2.6056,-2.6953,-2.8367,-2.7454,-2.7615,-2.8216,-2.769,-2.7188,-2.6806,-2.6806,-2.6806,-2.6806,-2.6806,-2.6806,-2.6806,-2.6806,-2.6806,-2.6806,-2.6806,-2.7229,-2.7521,-2.6924,-2.775,-2.8317,-2.7082,-2.7273,-2.7855,-2.8534,-2.7663,-2.6982,-2.7565,-2.72,-2.6997,-2.7579,-2.7695,-2.7913,-2.855,-2.868,-2.8694,-2.868,-2.9232,-2.9595,-2.9595,-3.019,-3.0016,-2.8753,-2.8068,-2.7144,-2.5895,-2.5286,-2.4681,-2.4073,-2.4073,-2.3738,-2.3108,-2.3108,-2.3108,-2.3108,-2.378,-2.4073,-1.3365,0.0,0.0,0.0,0.0,0.0,-1.7547,-1.8744,-1.9718,-1.9718,-2.0188,-2.0562,-2.0418,-2.0261,-2.0033,-1.9624,-1.9239,-1.9035,-1.9191,-1.9567,-2.0033,-2.0754,-2.1163,-2.1867,-2.2977,-2.3267,-2.3456,-2.3672,-2.4216,-2.4381,-2.4035,-2.4795,-2.526,-2.526,-2.5655,-2.5893,-2.5893,-2.5893,-2.5893,-2.5893,-2.5893,-2.5893,-2.5893,-2.5893,-2.5893,-2.5893,-2.5893,-2.5893,-2.5893,-2.5893,-2.5975,-2.6069,-2.6056,-2.689,-2.8012,-2.7449,-2.77,-2.8216,-2.769,-2.7188,-2.6806,-2.6806,-2.6806,-2.6806,-2.6806,-2.6806,-2.6806,-2.6806,-2.6806,-2.6806,-2.6806,-2.691,-2.7012,-2.6849,-2.7082,-2.7241,-2.6893,-2.6924,-2.7099,-2.73,-2.7053,-2.6837,-2.7012,-2.6895,-2.6852,-2.7012,-2.7405,-2.7608,-2.7345,-2.8142,-2.8507,-2.8042,-2.8942,-2.9595,-2.9595,-2.9356,-2.8892,-2.811,-2.6615,-2.5413,-2.4635,-2.3972,-2.356,-2.3365,-2.3365,-2.3275,-2.3108,-2.3108,-2.3108,-2.3108,-2.3275,-2.3365,-1.3652,-1.4258,-1.5151,-1.518,0.0,0.0,-1.755,-1.8549,-1.9401,-1.9744,-2.0235,-2.0653,-2.0882,-2.0737,-2.0514,-2.0177,-1.9865,-1.9588,-1.9387,-1.9423,-1.9744,-2.0526,-2.0887,-2.144,-2.2343,-2.2841,-2.3056,-2.2911,-2.3579,-2.3892,-2.3658,-2.4261,-2.4739,-2.4992,-2.5358,-2.564,-2.5893,-2.5893,-2.5893,-2.5893,-2.5893,-2.5893,-2.5893,-2.5893,-2.5893,-2.5893,-2.5893,-2.5893,-2.5893,-2.5893,-2.6029,-2.6204,-2.6138,-2.6837,-2.7849,-2.7449,-2.7575,-2.7923,-2.7615,-2.7188,-2.6806,-2.6806,-2.6806,-2.6806,-2.6806,-2.6806,-2.6806,-2.6806,-2.6806,-2.6806,-2.6806,-2.6806,-2.6806,-2.6806,-2.6806,-2.6806,-2.6806,-2.6806,-2.6852,-2.7128,-2.6968,-2.6866,-2.7128,-2.6968,-2.6806,-2.6806,-2.7099,-2.72,-2.6837,-2.7459,-2.7752,-2.7374,-2.8203,-2.8785,-2.877,-2.8491,-2.804,-2.7367,-2.5858,-2.4721,-2.4115,-2.3454,-2.3108,-2.3108,-2.3108,-2.3108,-2.3108,-2.3108,-2.3108,-2.3108,-2.3108,-2.3108,-1.4241,-1.4521,-1.515,-1.5953,-1.6148,0.0,-1.7981,-1.865,-1.9209,-1.9929,-2.0258,-2.0598,-2.1127,-2.0935,-2.0658,-2.0538,-2.0593,-2.0514,-1.9949,-1.9468,-1.9552,-2.0586,-2.0706,-2.0913,-2.1431,-2.2335,-2.2723,-2.2226,-2.3043,-2.3606,-2.3783,-2.3862,-2.4182,-2.4781,-2.4866,-2.5203,-2.5781,-2.5795,-2.5823,-2.5893,-2.5893,-2.5893,-2.5893,-2.5893,-2.5893,-2.5893,-2.5893,-2.5893,-2.5893,-2.5893,-2.6177,-2.6578,-2.6245,-2.6811,-2.7775,-2.7449,-2.7399,-2.7515,-2.7515,-2.7188,-2.6806,-2.6806,-2.6806,-2.6806,-2.6806,-2.6806,-2.6806,-2.6806,-2.6806,-2.6806,-2.6806,-2.6806,-2.6806,-2.6806,-2.6806,-2.6806,-2.6806,-2.6806,-2.6953,-2.7492,-2.7171,-2.6968,-2.7507,-2.7157,-2.6806,-2.6806,-2.6806,-2.6806,-2.6806,-2.6806,-2.6806,-2.6806,-2.7292,-2.7594,-2.7537,-2.752,-2.7213,-2.6543,-2.5435,-2.4536,-2.3998,-2.3424,-2.3108,-2.3108,-2.3108,-2.3108,-2.3108,-2.3108,-2.3108,-2.3108,-2.3108,-2.3108,-1.4319,-1.4961,-1.5752,-1.5338,-1.6714,0.0,-1.7221,-1.8049,-1.8936,-1.8658,-1.8964,-1.9468,-1.9997,-2.073,-2.0959,-2.0081,-2.0682,-2.1067,-2.0526,-2.0358,-2.0538,-2.1175,-2.1247,-2.1277,-2.1413,-2.1595,-2.1326,-2.0398,-2.0503,-2.1003,-2.1874,-2.2374,-2.2889,-2.3463,-2.3994,-2.457,-2.5175,-2.5189,-2.5428,-2.5893,-2.5893,-2.5893,-2.5893,-2.5893,-2.5893,-2.5893,-2.5893,-2.5893,-2.5893,-2.5893,-2.5975,-2.6084,-2.6206,-2.6669,-2.7261,-2.7414,-2.7489,-2.7515,-2.7515,-2.7188,-2.6806,-2.6806,-2.6806,-2.6806,-2.6806,-2.6806,-2.6806,-2.6806,-2.6806,-2.6806,-2.6806,-2.6806,-2.6806,-2.6806,-2.6806,-2.6806,-2.6806,-2.6806,-2.6849,-2.6939,-2.6866,-2.6849,-2.6953,-2.6866,-2.6806,-2.6806,-2.6806,-2.6806,-2.6806,-2.6806,-2.6806,-2.6806,-2.691,-2.6961,-2.6961,-2.6081,-2.5472,-2.5352,-2.4154,-2.3419,-2.3318,-2.3168,-2.3108,-2.3108,-2.3108,-2.3108,-2.3108,-2.3108,-2.3108,-2.3108,-2.3108,-2.3108,-1.4923,-1.5244,-1.5782,-1.5953,-1.6775,0.0,0.0,-1.8198,-1.8674,-1.8939,-1.8987,-1.9143,-1.9712,-2.0009,-2.0105,-1.9856,-2.0478,-2.0923,-2.0629,-2.0598,-2.0791,-2.1344,-2.1404,-2.1296,-2.1031,-2.1488,-2.1572,-2.1039,-2.075,-2.0833,-2.1358,-2.17,-2.2115,-2.268,-2.3034,-2.3631,-2.4542,-2.4852,-2.5161,-2.543,-2.5753,-2.5893,-2.5893,-2.5893,-2.5893,-2.5893,-2.5893,-2.5893,-2.5921,-2.5975,-2.6002,-2.6029,-2.6233,-2.6566,-2.6985,-2.71,-2.7152,-2.7152,-2.7152,-2.6985,-2.6806,-2.6806,-2.6806,-2.6806,-2.6806,-2.6806,-2.6806,-2.6806,-2.6806,-2.6806,-2.6806,-2.6806,-2.6806,-2.6806,-2.6806,-2.6806,-2.6806,-2.6806,-2.6806,-2.6806,-2.6806,-2.6806,-2.6806,-2.6806,-2.6806,-2.6806,-2.6806,-2.6806,-2.6806,-2.6527,-2.634,-2.634,-2.6077,-2.5893,-2.5877,-2.5063,-2.4532,-2.4497,-2.3621,-2.3108,-2.3108,-2.3108,-2.3108,-2.3108,-2.3108,-2.3108,-2.3108,-2.3108,-2.3108,-2.3108,-2.3108,-2.3108,-1.5508,-1.5508,-1.5851,-1.6672,-1.6899,-1.7241,0.0,0.0,0.0,-1.9191,-1.9086,-1.8963,-1.9396,-1.9215,-1.9122,-1.9447,-1.9937,-2.0298,-2.0338,-2.0427,-2.068,-2.1205,-2.1428,-2.1308,-2.0699,-2.1325,-2.1782,-2.1886,-2.1381,-2.1169,-2.1379,-2.1394,-2.168,-2.2255,-2.2283,-2.2804,-2.3895,-2.4528,-2.4894,-2.5021,-2.5598,-2.5893,-2.5893,-2.5893,-2.5893,-2.5893,-2.5893,-2.5893,-2.5921,-2.6029,-2.6111,-2.6138,-2.6272,-2.65,-2.6753,-2.6779,-2.6806,-2.6806,-2.6806,-2.6806,-2.6806,-2.6806,-2.6806,-2.6806,-2.6806,-2.6806,-2.6806,-2.6806,-2.6806,-2.6806,-2.6806,-2.6806,-2.6806,-2.6806,-2.6806,-2.6806,-2.6806,-2.67,-2.6621,-2.6621,-2.6527,-2.6527,-2.6753,-2.6806,-2.6806,-2.6806,-2.67,-2.6621,-2.6621,-2.6111,-2.5715,-2.5715,-2.5203,-2.4811,-2.4743,-2.4216,-2.3884,-2.3834,-2.3358,-2.3108,-2.3108,-2.3108,-2.3108,-2.3108,-2.3108,-2.3108,-2.3108,-2.3108,-2.3108,-2.3108,-2.3108,-2.3108,-1.542,-1.5956,-1.652,-1.6407,-1.7682,-1.8693,-1.7709,0.0,-1.8662,-1.7845,0.0,-1.8313,-1.8374,0.0,0.0,-1.8446,-1.8831,-1.9206,-1.9337,-1.9764,-2.0261,-2.0795,-2.1614,-2.1765,-2.0867,-2.0358,-2.0266,-2.0745,-2.029,-2.0395,-2.1358,-2.1402,-2.1654,-2.2204,-2.2204,-2.253,-2.321,-2.3867,-2.4472,-2.5021,-2.5598,-2.5893,-2.5893,-2.5893,-2.5893,-2.5893,-2.5893,-2.5893,-2.5921,-2.6029,-2.6179,-2.6272,-2.6418,-2.6484,-2.6551,-2.6738,-2.6806,-2.6806,-2.6806,-2.6806,-2.6806,-2.6806,-2.6806,-2.6806,-2.6806,-2.6806,-2.6806,-2.6806,-2.6806,-2.6806,-2.6806,-2.6806,-2.6806,-2.6806,-2.6806,-2.6806,-2.6806,-2.6367,-2.6002,-2.6002,-2.5564,-2.555,-2.6606,-2.6806,-2.6806,-2.6806,-2.634,-2.6002,-2.6002,-2.5481,-2.5105,-2.5105,-2.4567,-2.4203,-2.4181,-2.3582,-2.3223,-2.3195,-2.3145,-2.3108,-2.3108,-2.3108,-2.3108,-2.3108,-2.3108,-2.3108,-2.3108,-2.3108,-2.3108,-2.3108,-2.3108,-2.3108,-1.5478,-1.5684,-1.5998,-1.6128,-1.6884,-1.7568,-1.7639,-1.8068,-1.8445,-1.8332,0.0,0.0,0.0,0.0,0.0,0.0,-1.8193,-1.8485,-1.8297,-1.9002,-1.9879,-2.0803,-2.1275,-2.1435,-2.1272,-2.1013,-2.1022,-2.1488,-2.1107,-2.1005,-2.1382,-2.1403,-2.1498,-2.1732,-2.1746,-2.2019,-2.2564,-2.3182,-2.3839,-2.4486,-2.5091,-2.5542,-2.5893,-2.5893,-2.5893,-2.5893,-2.5893,-2.5893,-2.5921,-2.6111,-2.626,-2.634,-2.658,-2.6671,-2.6686,-2.6779,-2.6806,-2.6806,-2.6806,-2.6806,-2.6806,-2.6806,-2.6806,-2.6806,-2.6806,-2.6806,-2.6806,-2.6806,-2.6806,-2.6806,-2.6806,-2.6806,-2.6806,-2.6806,-2.6806,-2.6806,-2.6806,-2.634,-2.5893,-2.5893,-2.5425,-2.5161,-2.5674,-2.5756,-2.5756,-2.5756,-2.5536,-2.5398,-2.5398,-2.4851,-2.4481,-2.4481,-2.3914,-2.3514,-2.3514,-2.3245,-2.3108,-2.3108,-2.3108,-2.3108,-2.3108,-2.3108,-2.3108,-2.3108,-2.3108,-2.3108,-2.3108,-2.3108,-2.3108,-2.3108,-2.3017,-2.3017,-1.5498,-1.5498,-1.5635,-1.587,-1.6332,-1.6923,-1.7568,-1.8052,-1.8483,-1.8907,-1.8686,0.0,0.0,0.0,-1.758,-1.7411,0.0,-1.7738,-1.7654,-1.819,-1.9033,-2.0232,-2.0653,-2.099,-2.1409,-2.1294,-2.1442,-2.1982,-2.1626,-2.1444,-2.1608,-2.1613,-2.1617,-2.1608,-2.1471,-2.1672,-2.2199,-2.2655,-2.3213,-2.3839,-2.4627,-2.5246,-2.5655,-2.5809,-2.5893,-2.5893,-2.5893,-2.5893,-2.5921,-2.6206,-2.6313,-2.634,-2.6674,-2.6806,-2.6806,-2.6806,-2.6806,-2.6806,-2.6806,-2.6806,-2.6806,-2.6806,-2.6806,-2.6806,-2.6806,-2.6806,-2.6806,-2.6806,-2.6806,-2.6806,-2.6806,-2.6806,-2.6806,-2.6806,-2.6674,-2.6553,-2.6553,-2.5948,-2.5411,-2.5411,-2.4908,-2.4467,-2.4467,-2.4753,-2.5007,-2.5007,-2.4879,-2.4766,-2.4766,-2.4192,-2.3839,-2.3839,-2.3395,-2.3108,-2.3108,-2.3108,-2.3108,-2.3108,-2.3108,-2.3108,-2.3108,-2.3108,-2.3108,-2.3108,-2.3108,-2.3078,-2.3047,-2.3047,-2.3017,-2.2987,-2.2939,-2.2939,-1.5391,-1.5723,-1.5977,-1.5537,-1.6653,-1.7734,-1.7333,-1.8131,-1.8999,-1.8987,-1.8975,-1.8963,-1.8963,-1.853,-1.8013,-1.7471,-1.6979,0.0,0.0,-1.7392,-1.7525,-1.8722,-1.9789,-2.059,-2.0978,-2.056,-2.0639,-2.154,-2.1127,-2.1226,-2.2144,-2.2172,-2.2172,-2.2163,-2.1671,-2.1666,-2.2202,-2.2266,-2.2605,-2.314,-2.4416,-2.5021,-2.5063,-2.5626,-2.5893,-2.5893,-2.5893,-2.5893,-2.5921,-2.6206,-2.6313,-2.634,-2.6674,-2.6806,-2.6806,-2.6806,-2.6806,-2.6806,-2.6806,-2.6806,-2.6806,-2.6806,-2.6806,-2.6806,-2.6806,-2.6806,-2.6806,-2.6806,-2.6806,-2.6806,-2.6806,-2.6806,-2.6806,-2.6806,-2.634,-2.5921,-2.5921,-2.5006,-2.416,-2.416,-2.3632,-2.3155,-2.3155,-2.4179,-2.5007,-2.5007,-2.4509,-2.4118,-2.4118,-2.3543,-2.3138,-2.3138,-2.3108,-2.3108,-2.3108,-2.3108,-2.3108,-2.3108,-2.3108,-2.3108,-2.3108,-2.3108,-2.3108,-2.3108,-2.3108,-2.3047,-2.2909,-2.2909,-2.286,-2.2708,-2.286,-2.2909,-1.541,-1.5518,-1.5596,-1.5449,-1.5867,-1.6462,-1.7058,-1.756,-1.8072,-1.8835,-1.8987,-1.8987,-1.8987,-1.8843,-1.8554,-1.8025,-1.7859,-1.7678,0.0,-1.726,-1.7422,-1.7808,-1.9058,-2.0048,-2.0551,-2.0357,-2.059,-2.1545,-2.1102,-2.1202,-2.2137,-2.2189,-2.2211,-2.2197,-2.1696,-2.1478,-2.168,-2.1688,-2.1986,-2.2581,-2.3384,-2.398,-2.4416,-2.5035,-2.5316,-2.5344,-2.5725,-2.5893,-2.5921,-2.6206,-2.6313,-2.634,-2.6674,-2.6806,-2.6806,-2.6806,-2.6806,-2.6806,-2.6806,-2.6806,-2.6806,-2.6806,-2.6806,-2.6806,-2.6806,-2.6806,-2.6806,-2.6806,-2.6806,-2.6806,-2.6806,-2.6806,-2.6806,-2.6806,-2.6647,-2.6394,-2.5975,-2.5258,-2.4567,-2.4176,-2.3573,-2.3108,-2.3108,-2.3442,-2.3725,-2.3725,-2.356,-2.3424,-2.3424,-2.3245,-2.3108,-2.3108,-2.3108,-2.3108,-2.3108,-2.3108,-2.3108,-2.3108,-2.3108,-2.3108,-2.3108,-2.3108,-2.3108,-2.3108,-2.3017,-2.2939,-2.2909,-2.28,-2.2739,-2.272,-2.2604,-2.2635,-1.541,-1.541,-1.541,-1.541,-1.5585,-1.6022,-1.6987,-1.7398,-1.7861,-1.8809,-1.8987,-1.8987,-1.8987,-1.8987,-1.8819,-1.8289,-1.8269,-1.8019,0.0,-1.7239,-1.741,-1.741,-1.8583,-1.9493,-1.9815,-1.992,-2.0364,-2.1253,-2.1163,-2.1408,-2.218,-2.2378,-2.231,-2.1942,-2.1387,-2.1122,-2.1132,-2.0923,-2.1131,-2.1705,-2.2471,-2.3036,-2.3492,-2.4311,-2.4795,-2.5021,-2.5189,-2.5527,-2.5961,-2.5991,-2.6126,-2.6406,-2.67,-2.6806,-2.6806,-2.6806,-2.6806,-2.6806,-2.6806,-2.6806,-2.6806,-2.6806,-2.6806,-2.6806,-2.6806,-2.6806,-2.6806,-2.6806,-2.6806,-2.6806,-2.6806,-2.6806,-2.6753,-2.6527,-2.634,-2.5988,-2.5398,-2.4766,-2.4221,-2.3826,-2.3395,-2.3108,-2.3108,-2.3108,-2.3108,-2.3108,-2.3108,-2.3108,-2.3108,-2.3108,-2.3108,-2.3108,-2.3108,-2.3108,-2.3108,-2.3108,-2.3108,-2.3108,-2.3108,-2.3108,-2.3108,-2.3108,-2.3078,-2.3017,-2.2939,-2.2848,-2.2726,-2.2647,-2.242,-2.213,-2.2266,-2.2266]}]]